[[{"header":{"parameterUnit":"m.s-1","parameterCategory":1,"la1":30.6,"la2":28.766,"lo1":-90.7593,"lo2":-88.6598,"dy":0.0162,"dx":0.0183,"nx":116,"ny":114,"refTime":"2024-01-31T18:00:00:Z","depth":0,"parameterNumber":2,"parameterNumberName":"U-component_of_WINDS"},"data":[0.0,0.0,0.0,0.0,0.0,0.0,0.0,0.0,0.0,0.0,0.0,0.0,0.0,0.0,0.0,0.0,0.0,0.0,0.0,0.0,0.0,0.0,0.0,0.0,0.0,0.0,0.0,0.0,0.0,0.0,0.0,0.0,0.0,0.0,0.0,0.0,0.0,0.0,0.0,0.0,0.0,0.0,0.0,0.0,0.0,0.0,0.0,0.0,0.0,0.0,0.0,0.0,0.0,0.0,0.0,0.0,0.0,0.0,0.0,0.0,0.0,0.0,0.0,0.0,0.0,0.0,0.0,0.0,0.0,0.0,0.0,0.0,0.0,0.0,0.0,0.0,0.0,0.0,0.0,0.0,0.0,0.0,0.0,0.0,0.0,0.0,0.0,0.0,0.0,0.0,0.0,0.0,0.0,0.0,0.0,0.0,0.0,0.0,0.0,0.0,0.0,0.0,0.0,0.0,0.0,0.0,0.0,0.0,0.0,0.0,0.0,0.0,0.0,0.0,0.0,0.0,0.0,0.0,0.0,0.0,0.0,0.0,0.0,0.0,0.0,0.0,0.0,0.0,0.0,0.0,0.0,0.0,0.0,0.0,0.0,0.0,0.0,0.0,0.0,0.0,0.0,0.0,0.0,0.0,0.0,0.0,0.0,0.0,0.0,0.0,0.0,0.0,0.0,0.0,0.0,0.0,0.0,0.0,0.0,0.0,0.0,0.0,0.0,0.0,0.0,0.0,0.0,0.0,0.0,0.0,0.0,0.0,0.0,0.0,0.0,0.0,0.0,0.0,0.0,0.0,0.0,0.0,0.0,0.0,0.0,0.0,0.0,0.0,0.0,0.0,0.0,0.0,0.0,0.0,0.0,0.0,0.0,0.0,0.0,0.0,0.0,0.0,0.0,0.0,0.0,0.0,0.0,0.0,0.0,0.0,0.0,0.0,0.0,0.0,0.0,0.0,0.0,0.0,0.0,0.0,0.0,0.0,0.0,0.0,0.0,0.0,0.0,0.0,0.0,0.0,0.0,0.0,0.0,0.0,0.0,0.0,0.0,0.0,0.0,0.0,0.0,0.0,0.0,0.0,0.0,0.0,0.0,0.0,0.0,0.0,0.0,0.0,0.0,0.0,0.0,0.0,0.0,0.0,0.0,0.0,0.0,0.0,0.0,0.0,0.0,0.0,0.0,0.0,0.0,0.0,0.0,0.0,0.0,0.0,0.0,0.0,0.0,0.0,0.0,0.0,0.0,0.0,0.0,0.0,0.0,0.0,0.0,0.0,0.0,0.0,0.0,0.0,0.0,0.0,0.0,0.0,0.0,0.0,0.0,0.0,0.0,0.0,0.0,0.0,0.0,0.0,0.0,0.0,0.0,0.0,0.0,0.0,0.0,0.0,0.0,0.0,0.0,0.0,0.0,0.0,0.0,0.0,0.0,0.0,0.0,0.0,0.0,0.0,0.0,0.0,0.0,0.0,0.0,0.0,0.0,0.0,0.0,0.0,0.0,0.0,0.0,0.0,0.0,0.0,0.0,0.0,0.0,0.0,0.0,0.0,0.0,0.0,0.0,0.0,0.0,0.0,0.0,0.0,0.0,0.0,0.0,0.0,0.0,0.0,0.0,0.0,0.0,0.0,0.0,0.0,0.0,0.0,0.0,0.0,0.0,0.0,0.0,0.0,0.0,0.0,0.0,0.0,0.0,0.0,0.0,0.0,0.0,0.0,0.0,0.0,0.0,0.0,0.0,0.0,0.0,0.0,0.0,0.0,0.0,0.0,0.0,0.0,0.0,0.0,0.0,0.0,0.0,0.0,0.0,0.0,0.0,0.0,0.0,0.0,0.0,0.0,0.0,0.0,0.0,0.0,0.0,0.0,0.0,0.0,0.0,0.0,0.0,0.0,0.0,0.0,0.0,0.0,0.0,0.0,0.0,0.0,0.0,0.0,0.0,0.0,0.0,0.0,0.0,0.0,0.0,0.0,0.0,0.0,0.0,0.0,0.0,0.0,0.0,0.0,0.0,0.0,0.0,0.0,0.0,0.0,0.0,0.0,0.0,0.0,0.0,0.0,0.0,0.0,0.0,0.0,0.0,0.0,0.0,0.0,0.0,0.0,0.0,0.0,0.0,0.0,0.0,0.0,0.0,0.0,0.0,0.0,0.0,0.0,0.0,0.0,0.0,0.0,0.0,0.0,0.0,0.0,0.0,0.0,0.0,0.0,0.0,0.0,0.0,0.0,0.0,0.0,0.0,0.0,0.0,0.0,0.0,0.0,0.0,0.0,0.0,0.0,0.0,0.0,0.0,0.0,0.0,0.0,0.0,0.0,0.0,0.0,0.0,0.0,0.0,0.0,0.0,0.0,0.0,0.0,0.0,0.0,0.0,0.0,0.0,0.0,0.0,0.0,0.0,0.0,0.0,0.0,0.0,0.0,0.0,0.0,0.0,0.0,0.0,0.0,0.0,0.0,0.0,0.0,0.0,0.0,0.0,0.0,0.0,0.0,0.0,0.0,0.0,0.0,0.0,0.0,0.0,0.0,0.0,0.0,0.0,0.0,0.0,0.0,0.0,0.0,0.0,0.0,0.0,0.0,0.0,0.0,0.0,0.0,0.0,0.0,0.0,0.0,0.0,0.0,0.0,0.0,0.0,0.0,0.0,0.0,0.0,0.0,0.0,0.0,0.0,0.0,0.0,0.0,0.0,0.0,0.0,0.0,0.0,0.0,0.0,0.0,0.0,0.0,0.0,0.0,0.0,0.0,0.0,0.0,0.0,0.0,0.0,0.0,0.0,0.0,0.0,0.0,0.0,0.0,0.0,0.0,0.0,0.0,0.0,0.0,0.0,0.0,0.0,0.0,0.0,0.0,0.0,0.0,0.0,0.0,0.0,0.0,0.0,0.0,0.0,0.0,0.0,0.0,0.0,0.0,0.0,0.0,0.0,0.0,0.0,0.0,0.0,0.0,0.0,0.0,0.0,0.0,0.0,0.0,0.0,0.0,0.0,0.0,0.0,0.0,0.0,0.0,0.0,0.0,0.0,0.0,0.0,0.0,0.0,0.0,0.0,0.0,0.0,0.0,0.0,0.0,0.0,0.0,0.0,0.0,0.0,0.0,0.0,0.0,0.0,0.0,0.0,0.0,0.0,0.0,0.0,0.0,0.0,0.0,0.0,0.0,0.0,0.0,0.0,0.0,0.0,0.0,0.0,0.0,0.0,0.0,0.0,0.0,0.0,0.0,0.0,0.0,0.0,0.0,0.0,0.0,0.0,0.0,0.0,0.0,0.0,0.0,0.0,0.0,0.0,0.0,0.0,0.0,0.0,0.0,0.0,0.0,0.0,0.0,0.0,0.0,0.0,0.0,0.0,0.0,0.0,0.0,0.0,0.0,0.0,0.0,0.0,0.0,0.0,0.0,0.0,0.0,0.0,0.0,0.0,0.0,0.0,0.0,0.0,0.0,0.0,0.0,0.0,0.0,0.0,0.0,0.0,0.0,0.0,0.0,0.0,0.0,0.0,0.0,0.0,0.0,0.0,0.0,0.0,0.0,0.0,0.0,0.0,0.0,0.0,0.0,0.0,0.0,0.0,0.0,0.0,0.0,0.0,0.0,0.0,0.0,0.0,0.0,0.0,0.0,0.0,0.0,0.0,0.0,0.0,0.0,0.0,0.0,0.0,0.0,0.0,0.0,0.0,0.0,0.0,0.0,0.0,0.0,0.0,0.0,0.0,0.0,0.0,0.0,0.0,0.0,0.0,0.0,0.0,0.0,0.0,0.0,0.0,0.0,0.0,0.0,0.0,0.0,0.0,0.0,0.0,0.0,0.0,0.0,0.0,0.0,0.0,0.0,0.0,0.0,0.0,0.0,0.0,0.0,0.0,0.0,0.0,0.0,0.0,0.0,0.0,0.0,0.0,0.0,0.0,0.0,0.0,0.0,0.0,0.0,0.0,0.0,0.0,0.0,0.0,0.0,0.0,0.0,0.0,0.0,0.0,0.0,0.0,0.0,0.0,0.0,0.0,0.0,0.0,0.0,0.0,0.0,0.0,0.0,0.0,0.0,0.0,0.0,0.0,0.0,0.0,0.0,0.0,0.0,0.0,0.0,0.0,0.0,0.0,0.0,0.0,0.0,0.0,0.0,0.0,0.0,0.0,0.0,0.0,0.0,0.0,0.0,0.0,0.0,0.0,0.0,0.0,0.0,0.0,0.0,0.0,0.0,0.0,0.0,0.0,0.0,0.0,0.0,0.0,0.0,0.0,0.0,0.0,0.0,0.0,0.0,0.0,0.0,0.0,0.0,0.0,0.0,0.0,0.0,0.0,0.0,0.0,0.0,0.0,0.0,0.0,0.0,0.0,0.0,0.0,0.0,0.0,0.0,0.0,0.0,0.0,0.0,0.0,0.0,0.0,0.0,0.0,0.0,0.0,0.0,0.0,0.0,0.0,0.0,0.0,0.0,0.0,0.0,0.0,0.0,0.0,0.0,0.0,0.0,0.0,0.0,0.0,0.0,0.0,0.0,0.0,0.0,0.0,0.0,0.0,0.0,0.0,0.0,0.0,0.0,0.0,0.0,0.0,0.0,0.0,0.0,0.0,0.0,0.0,0.0,0.0,0.0,0.0,0.0,0.0,0.0,0.0,0.0,0.0,0.0,0.0,0.0,0.0,0.0,0.0,0.0,0.0,0.0,0.0,0.0,0.0,0.0,0.0,0.0,0.0,0.0,0.0,0.0,0.0,0.0,0.0,0.0,0.0,0.0,0.0,0.0,0.0,0.0,0.0,0.0,0.0,0.0,0.0,0.0,0.0,0.0,0.0,0.0,0.0,0.0,0.0,0.0,0.0,0.0,0.0,0.0,0.0,0.0,0.0,0.0,0.0,0.0,0.0,0.0,0.0,0.0,0.0,0.0,0.0,0.0,0.0,0.0,0.0,0.0,0.0,0.0,0.0,0.0,0.0,0.0,0.0,0.0,0.0,0.0,0.0,0.0,0.0,0.0,0.0,0.0,0.0,0.0,0.0,0.0,0.0,0.0,0.0,0.0,0.0,0.0,0.0,0.0,0.0,0.0,0.0,0.0,0.0,0.0,0.0,0.0,0.0,0.0,0.0,0.0,0.0,0.0,0.0,0.0,0.0,0.0,0.0,0.0,0.0,0.0,0.0,0.0,0.0,0.0,0.0,0.0,0.0,0.0,0.0,0.0,0.0,0.0,0.0,0.0,0.0,0.0,0.0,0.0,0.0,0.0,0.0,0.0,0.0,0.0,0.0,0.0,0.0,0.0,0.0,0.0,0.0,0.0,0.0,0.0,0.0,0.0,0.0,0.0,0.0,0.0,0.0,0.0,0.0,0.0,0.0,0.0,0.0,0.0,0.0,0.0,0.0,0.0,0.0,0.0,0.0,0.0,0.0,0.0,0.0,0.0,0.0,0.0,0.0,0.0,0.0,0.0,0.0,0.0,0.0,0.0,0.0,0.0,0.0,0.0,0.0,0.0,0.0,0.0,0.0,0.0,0.0,0.0,0.0,0.0,0.0,0.0,0.0,0.0,0.0,0.0,0.0,0.0,0.0,0.0,0.0,0.0,0.0,0.0,0.0,0.0,0.0,0.0,0.0,0.0,0.0,0.0,0.0,0.0,0.0,0.0,0.0,0.0,0.0,0.0,0.0,0.0,0.0,0.0,0.0,0.0,0.0,0.0,0.0,0.0,0.0,0.0,0.0,0.0,0.0,0.0,0.0,0.0,0.0,0.0,0.0,0.0,0.0,0.0,0.0,0.0,0.0,0.0,0.0,0.0,0.0,0.0,0.0,0.0,0.0,0.0,0.0,0.0,0.0,0.0,0.0,0.0,0.0,0.0,0.0,0.0,0.0,0.0,0.0,0.0,0.0,0.0,0.0,0.0,0.0,0.0,0.0,0.0,0.0,0.0,0.0,0.0,0.0,0.0,0.0,0.0,0.0,0.0,0.0,0.0,0.0,0.0,0.0,0.0,0.0,0.0,0.0,0.0,0.0,0.0,0.0,0.0,0.0,0.0,0.0,0.0,0.0,0.0,0.0,0.0,0.0,0.0,0.0,0.0,0.0,0.0,0.0,0.0,0.0,0.0,0.0,0.0,5.7997,5.7997,0.0,0.0,0.0,0.0,0.0,0.0,0.0,0.0,0.0,0.0,0.0,0.0,0.0,0.0,0.0,0.0,0.0,0.0,0.0,0.0,0.0,0.0,0.0,0.0,0.0,0.0,0.0,0.0,0.0,0.0,0.0,0.0,0.0,0.0,6.6812,6.6812,6.6812,6.6812,6.6812,6.6812,6.6779,6.6034,6.529,6.458,0.0,0.0,0.0,0.0,0.0,0.0,0.0,0.0,0.0,0.0,0.0,0.0,0.0,0.0,0.0,0.0,0.0,0.0,0.0,0.0,0.0,0.0,0.0,0.0,0.0,0.0,0.0,0.0,0.0,0.0,0.0,0.0,0.0,0.0,0.0,0.0,0.0,0.0,0.0,0.0,0.0,0.0,0.0,0.0,0.0,0.0,0.0,0.0,0.0,0.0,0.0,0.0,0.0,0.0,0.0,0.0,0.0,0.0,0.0,0.0,0.0,0.0,0.0,0.0,0.0,0.0,0.0,0.0,0.0,0.0,5.795,5.7997,0.0,0.0,0.0,0.0,0.0,0.0,0.0,0.0,0.0,0.0,0.0,0.0,0.0,0.0,0.0,0.0,0.0,0.0,0.0,0.0,0.0,0.0,0.0,7.077,7.0331,7.0195,6.962,6.8944,0.0,0.0,0.0,0.0,0.0,6.6812,6.6812,6.6812,6.6812,6.6812,6.6812,6.6812,6.6812,6.6812,6.617,6.4986,6.485,0.0,0.0,0.0,0.0,0.0,0.0,0.0,0.0,0.0,0.0,0.0,0.0,0.0,0.0,0.0,0.0,0.0,0.0,0.0,0.0,0.0,0.0,0.0,0.0,0.0,0.0,0.0,0.0,0.0,0.0,0.0,0.0,0.0,0.0,0.0,0.0,0.0,0.0,0.0,0.0,0.0,0.0,0.0,0.0,0.0,0.0,0.0,0.0,0.0,0.0,0.0,0.0,0.0,0.0,0.0,0.0,0.0,0.0,0.0,0.0,0.0,0.0,0.0,5.7688,5.7388,5.7388,5.7486,5.7583,5.7583,5.7857,5.795,5.795,5.795,0.0,0.0,0.0,0.0,0.0,0.0,0.0,0.0,0.0,0.0,0.0,0.0,0.0,0.0,0.0,0.0,0.0,0.0,0.0,0.0,0.0,7.121,7.0906,7.0263,7.0094,6.9722,6.8977,0.0,6.7861,6.776,6.7151,6.6812,6.6812,6.6812,6.6812,6.6812,6.6812,6.6812,6.6812,6.6812,6.6711,6.6508,6.5831,6.5493,6.5358,0.0,0.0,0.0,0.0,0.0,0.0,0.0,0.0,0.0,0.0,0.0,0.0,0.0,0.0,0.0,0.0,0.0,0.0,0.0,0.0,0.0,0.0,0.0,0.0,0.0,0.0,0.0,0.0,0.0,0.0,0.0,0.0,0.0,0.0,0.0,0.0,0.0,0.0,0.0,0.0,0.0,6.0512,6.0635,0.0,0.0,0.0,0.0,0.0,0.0,0.0,0.0,0.0,0.0,0.0,0.0,0.0,6.1661,6.081,6.0013,5.918,5.8383,5.7587,5.7289,5.7388,5.7388,5.7486,5.7583,5.7667,0.0,5.7631,5.7631,0.0,0.0,0.0,0.0,0.0,0.0,0.0,0.0,0.0,0.0,0.0,0.0,0.0,0.0,0.0,0.0,0.0,0.0,0.0,0.0,0.0,7.1222,7.1176,7.0838,7.0804,7.05,6.9755,6.9383,6.8808,6.7929,6.759,6.7218,6.6812,6.6812,6.6812,6.6812,6.6812,6.6812,6.6812,6.6812,6.6812,6.6812,6.6474,6.6102,6.5662,6.5358,0.0,0.0,0.0,0.0,0.0,0.0,0.0,0.0,0.0,0.0,0.0,0.0,0.0,0.0,0.0,0.0,0.0,0.0,0.0,0.0,0.0,0.0,0.0,0.0,0.0,0.0,0.0,0.0,0.0,0.0,0.0,0.0,0.0,0.0,0.0,0.0,0.0,0.0,0.0,5.9551,5.9648,5.9972,6.0227,6.0477,0.0,0.0,0.0,0.0,0.0,0.0,0.0,0.0,0.0,6.1784,6.1784,6.1387,6.0593,5.9799,5.9005,5.828,5.7485,5.7138,5.7289,5.7289,5.7289,5.7388,5.7388,5.7388,5.7388,5.7534,5.7583,5.7619,0.0,0.0,0.0,0.0,5.7583,5.7486,0.0,0.0,0.0,0.0,0.0,0.0,0.0,0.0,0.0,0.0,0.0,0.0,7.0916,7.1098,7.1222,7.1312,7.1142,7.0804,7.0229,6.9823,6.9079,6.7963,6.7726,6.7354,6.6812,6.6812,6.6812,6.6812,6.6812,6.6812,6.6812,6.6812,6.6812,6.6812,6.6812,6.6508,6.5967,6.5967,6.5222,6.4072,0.0,0.0,0.0,0.0,0.0,0.0,0.0,0.0,0.0,0.0,0.0,0.0,0.0,0.0,0.0,0.0,0.0,0.0,0.0,0.0,0.0,0.0,0.0,0.0,0.0,0.0,0.0,0.0,0.0,0.0,0.0,0.0,0.0,0.0,0.0,0.0,0.0,5.8875,5.9012,5.9215,5.9516,5.9879,0.0,0.0,0.0,0.0,0.0,0.0,6.0938,6.1152,6.127,6.127,6.1328,6.1099,6.0583,5.9633,5.8898,5.8447,5.7438,5.6984,5.7138,5.7138,5.7138,5.7188,5.7406,5.7514,5.7514,5.7715,5.7813,5.7813,5.8081,5.8105,5.8105,5.8154,5.8055,5.7919,0.0,0.0,0.0,0.0,0.0,0.0,0.0,0.0,0.0,0.0,0.0,7.0608,7.0916,7.0916,7.1007,7.1312,7.0669,7.0229,7.0195,6.8842,6.7996,6.7895,6.7252,6.6846,6.6812,6.6812,6.6812,6.6812,6.6812,6.6812,6.6812,6.6812,6.6812,6.6812,6.6812,6.6779,6.6745,6.6745,6.6305,6.5561,6.5561,0.0,0.0,0.0,0.0,0.0,0.0,0.0,0.0,0.0,0.0,0.0,0.0,0.0,0.0,0.0,0.0,0.0,0.0,0.0,0.0,0.0,0.0,0.0,0.0,0.0,0.0,0.0,0.0,0.0,0.0,0.0,0.0,0.0,0.0,0.0,0.0,0.0,0.0,5.8702,5.9081,0.0,0.0,0.0,0.0,5.9879,6.0072,6.0072,5.9879,6.0199,6.0388,6.0388,6.0661,6.0903,6.1022,5.9731,5.902,5.9114,5.7531,5.6881,5.6984,5.6984,5.7087,5.7224,5.8021,5.8347,5.8347,5.8347,5.8347,5.8471,5.9335,5.9574,5.9522,5.9626,5.9574,5.9361,0.0,0.0,0.0,0.0,0.0,0.0,0.0,0.0,7.027,7.027,7.027,7.0363,7.0456,7.0297,7.0209,7.0299,6.9803,6.9485,6.9485,6.8977,6.8436,6.7929,6.7658,6.7286,6.6812,6.6812,6.6812,6.6812,6.6812,6.6812,6.6812,6.6812,6.6812,6.6812,6.6812,6.6812,6.6812,6.6812,6.6373,6.5696,6.5696,6.5087,0.0,0.0,0.0,0.0,0.0,0.0,0.0,0.0,0.0,0.0,0.0,0.0,0.0,0.0,0.0,0.0,0.0,0.0,0.0,0.0,0.0,0.0,0.0,0.0,0.0,0.0,0.0,0.0,0.0,0.0,0.0,0.0,0.0,0.0,0.0,0.0,0.0,5.8385,5.8597,0.0,5.8978,5.9182,5.9351,5.9284,5.9516,5.9714,5.9814,6.0262,6.0485,6.0485,6.0696,6.0843,6.0878,5.9905,5.9581,5.9773,5.8697,5.8358,5.8536,5.8536,5.8589,5.8746,5.9072,5.918,5.9216,5.9724,5.9651,5.9216,5.9559,5.9667,5.9615,5.9667,5.9667,5.9579,0.0,0.0,0.0,0.0,0.0,0.0,0.0,0.0,7.0082,7.0082,7.0082,7.0082,7.0176,7.0021,6.9994,7.0175,6.9478,6.8992,6.9113,6.8605,6.8199,6.7895,6.8166,6.8098,6.759,6.759,6.759,6.759,6.759,6.7455,6.7184,6.7184,6.7049,6.6812,6.6812,6.6812,6.6812,6.6812,6.6542,6.6068,6.6068,6.5628,6.4918,0.0,0.0,0.0,0.0,0.0,0.0,0.0,0.0,0.0,0.0,0.0,0.0,0.0,0.0,0.0,0.0,0.0,0.0,0.0,0.0,0.0,0.0,0.0,0.0,0.0,0.0,0.0,0.0,0.0,0.0,0.0,0.0,0.0,0.0,0.0,5.7954,5.8099,5.8277,5.8385,5.8526,5.8736,5.8806,5.8736,5.8978,5.9249,5.9317,5.9879,6.0171,6.0234,6.0512,6.0696,6.0757,6.0072,5.9799,5.9996,5.9245,5.902,5.9349,5.9349,5.9456,5.9615,5.9905,6.0013,6.0086,6.0883,6.0919,6.0412,6.0412,6.0412,6.0412,6.0412,6.0412,6.0375,0.0,0.0,0.0,0.0,0.0,0.0,0.0,6.9798,6.9798,6.9798,6.9798,6.9893,7.0176,7.0176,7.033,7.0791,6.9536,6.8816,6.9113,6.7692,6.7184,6.7895,6.8673,6.9113,6.9113,6.9113,6.9113,6.9113,6.9113,6.8707,6.7929,6.7895,6.7523,6.6846,6.6812,6.6812,6.6812,6.6812,6.6812,6.6812,6.6812,6.6373,6.573,0.0,0.0,0.0,0.0,0.0,0.0,0.0,0.0,0.0,0.0,0.0,0.0,0.0,0.0,0.0,0.0,0.0,0.0,0.0,0.0,0.0,0.0,0.0,0.0,0.0,0.0,0.0,0.0,0.0,0.0,0.0,0.0,0.0,5.7881,5.7881,5.7881,5.7881,5.8027,5.8205,5.8205,5.8348,5.8419,5.8205,5.8419,5.849,5.849,5.9047,5.9386,5.9621,6.0142,6.0458,6.0547,5.9987,5.9775,5.9951,5.9166,5.8979,5.9257,5.9257,5.9421,5.9724,6.052,6.0846,6.0919,6.1679,6.2005,6.2005,6.2005,6.2005,6.2005,6.2005,6.2005,6.1897,0.0,0.0,0.0,0.0,0.0,0.0,6.9798,6.9798,6.9798,6.9798,6.9798,6.9798,6.9893,6.9616,6.941,6.9595,6.8908,6.8428,6.8517,6.8324,6.8364,6.8774,6.8977,6.9113,6.9113,6.9113,6.9113,6.9113,6.9113,6.8977,6.8774,6.8166,6.7793,6.7557,6.7049,6.6812,6.6812,6.6812,6.6812,6.6812,6.6812,6.6677,6.644,0.0,0.0,0.0,0.0,0.0,0.0,0.0,0.0,0.0,0.0,0.0,0.0,0.0,0.0,0.0,0.0,0.0,0.0,0.0,0.0,0.0,0.0,0.0,0.0,0.0,0.0,0.0,0.0,0.0,0.0,0.0,5.9505,5.9099,5.8051,5.7881,5.7881,5.7881,5.7954,5.7954,5.7954,5.8027,5.8027,5.7954,5.8171,5.8385,5.8667,5.9081,5.9386,5.9621,5.9683,5.9879,6.0008,5.9988,6.0167,6.0413,6.0558,6.0741,6.0911,6.1024,6.119,6.1353,6.1571,6.1679,6.1716,6.1933,6.2005,6.2005,6.2005,6.2005,6.2005,6.2005,6.2005,6.2005,0.0,0.0,0.0,0.0,0.0,0.0,6.9798,6.9798,6.9798,6.9798,6.9798,6.9798,6.9798,6.9528,6.9483,6.9577,6.8969,6.8717,6.8774,6.8987,6.9254,6.9553,6.9857,7.0026,7.0026,7.0026,7.0026,7.0026,7.0026,6.9857,6.9553,6.9079,6.8707,6.8368,6.759,6.7252,6.7252,6.6948,6.6812,6.6812,6.6812,6.6812,6.6779,6.6339,6.5967,6.5561,6.4715,6.4038,6.3463,6.3024,0.0,0.0,0.0,0.0,0.0,0.0,0.0,0.0,0.0,0.0,0.0,0.0,0.0,0.0,0.0,0.0,0.0,0.0,0.0,0.0,0.0,0.0,0.0,0.0,6.0114,5.981,5.893,5.8558,5.8355,5.8355,5.8084,5.7881,5.7881,5.7881,5.7881,5.7881,5.8027,5.8171,5.8456,5.8806,5.9047,5.9251,5.9284,5.9383,5.9582,5.9879,6.0135,6.0485,6.0974,6.1328,6.1595,6.1764,6.184,6.2005,6.2005,6.2005,6.2005,6.2005,6.2005,6.2005,0.0,0.0,0.0,0.0,6.2005,6.2005,0.0,0.0,0.0,0.0,0.0,0.0,6.9798,6.9798,6.9798,6.9798,6.9798,6.9798,6.9798,6.9798,6.9893,7.0082,6.9517,6.9303,6.9453,6.9726,7.003,7.0297,7.0939,7.1312,7.1312,7.1312,7.1312,7.1312,7.1312,7.0973,7.0297,7.0229,6.9857,6.918,6.8402,6.7996,6.7861,6.7218,6.688,6.6812,6.6812,6.6812,6.6812,6.6812,6.6406,6.5797,6.573,6.485,6.3734,6.3565,0.0,0.0,0.0,0.0,0.0,0.0,0.0,0.0,0.0,0.0,0.0,0.0,0.0,0.0,0.0,0.0,0.0,0.0,0.0,0.0,0.0,0.0,0.0,0.0,6.0351,6.0351,6.0351,5.9742,5.9201,5.9032,5.8423,5.7983,5.7915,5.7881,5.7881,5.7881,5.7881,5.7954,5.8205,5.8348,0.0,0.0,0.0,5.9012,5.9217,5.9516,5.9844,6.0262,6.0757,6.1211,6.1559,6.1728,6.184,6.2005,6.2005,6.2005,6.2005,6.2005,6.2005,6.2005,6.2005,6.2005,6.2005,6.2005,6.2005,6.2005,0.0,0.0,0.0,0.0,0.0,0.0,6.9898,6.9798,6.9798,6.9798,6.9798,6.9798,6.9798,6.9798,6.9798,6.9893,6.976,6.9789,7.007,7.0222,7.0498,7.0805,7.112,7.1312,7.1312,7.1312,7.1312,7.1312,7.1312,7.1244,7.1075,7.0466,7.0094,6.9958,6.9214,6.8504,6.7895,6.776,6.7354,6.6812,6.6812,6.6812,6.6812,6.6812,6.6711,6.6508,6.5899,6.5493,6.5087,6.3903,6.3429,6.3193,6.2584,6.2381,0.0,0.0,0.0,0.0,0.0,0.0,0.0,0.0,0.0,0.0,0.0,0.0,0.0,0.0,0.0,0.0,0.0,0.0,0.0,6.1975,6.1941,6.1941,6.1941,6.1332,6.0385,5.9167,5.8896,5.8558,5.7949,5.7881,5.7881,5.7881,5.7881,5.7954,5.8205,5.8277,5.8314,5.8561,5.8385,5.8456,5.8667,5.9012,5.9317,5.9613,6.0477,0.0,6.1386,6.1672,6.184,6.2005,6.2005,6.2005,6.2005,6.2005,6.2005,6.2005,6.2005,6.2005,6.2005,6.2005,6.2005,6.2005,0.0,0.0,0.0,0.0,0.0,0.0,6.9898,6.9798,6.9798,6.9798,6.9798,6.9798,6.9798,6.9798,6.9798,6.9798,6.9798,6.9893,7.0176,7.027,7.0549,7.0916,7.1007,7.1131,7.1312,7.1312,7.1312,7.1312,7.1312,7.1312,7.1312,7.0939,7.0737,7.0737,6.9958,6.9417,6.8977,6.8233,6.7692,6.732,6.6948,6.6812,6.6812,6.6812,6.6812,6.6779,6.6373,6.6,6.5561,6.485,6.4106,6.3463,6.3057,6.2685,6.2381,0.0,0.0,0.0,0.0,0.0,0.0,0.0,0.0,0.0,0.0,0.0,0.0,0.0,0.0,6.2381,6.2381,0.0,6.2381,6.2381,6.2381,6.2381,6.2381,6.2076,6.1264,5.9742,5.9235,5.8727,5.7949,5.7881,5.7881,5.7881,5.7881,5.7954,5.8027,5.8027,5.8099,5.8205,5.8099,5.8099,5.8171,5.8561,5.8944,5.9249,6.0001,6.06,6.1058,6.1386,6.1672,6.1895,6.1895,6.195,6.2005,6.2005,6.2005,6.2005,6.2005,6.2005,6.2005,6.2005,6.2005,6.2005,0.0,0.0,0.0,0.0,0.0,0.0,0.0,6.9898,6.9798,6.9798,6.9798,6.9798,6.9798,6.9798,6.9798,6.9798,6.9798,6.9893,7.0082,7.0176,7.0363,7.0825,7.0916,7.1007,7.1312,7.1312,7.1312,7.1312,7.1312,7.1312,7.1312,7.1312,7.1312,7.1278,7.0669,7.0331,7.0094,6.8876,6.8166,6.7861,6.7167,6.6863,6.6812,6.6728,6.6728,6.6812,6.6812,6.644,6.5865,6.573,6.4918,6.3903,6.3599,6.3091,6.2584,6.2415,6.2381,0.0,0.0,0.0,0.0,0.0,0.0,0.0,0.0,0.0,6.2302,6.2302,6.2302,6.2302,6.2302,6.2381,6.2381,6.2381,6.2381,6.2381,6.2381,6.2381,6.1806,6.0283,5.9573,5.8863,5.7983,5.7881,5.7881,5.7881,5.7881,5.7881,5.7881,5.7881,5.7881,5.7881,5.7881,5.7881,5.7881,5.8277,5.8631,5.8875,5.9582,6.0164,6.0722,6.1058,6.1444,6.1784,6.184,6.1895,6.2005,6.2005,6.2005,6.2005,6.2005,6.2005,6.2005,6.2005,6.2005,6.2005,0.0,0.0,0.0,0.0,0.0,0.0,0.0,0.0,6.9798,6.9798,6.9798,6.9798,6.9798,6.9798,6.9798,6.9798,6.9798,6.9798,6.9798,7.0082,7.027,7.0515,7.0825,7.1007,7.1312,7.1312,7.1312,7.1312,7.1312,7.1312,7.1312,7.1312,7.1312,7.1312,7.121,7.0804,7.0161,6.9992,6.9147,6.7895,6.7569,6.7251,6.6812,6.6592,6.6643,6.6812,6.6812,6.6779,6.6576,6.5899,6.5561,6.5222,6.3937,6.3463,6.326,6.2584,6.2381,6.2381,6.2381,6.2189,6.2076,6.2076,6.1951,6.179,0.0,0.0,6.179,6.179,6.1951,6.2076,6.2076,6.2268,6.2381,6.2381,6.2381,6.2381,6.2381,6.2381,6.1806,6.0283,6.0047,5.9438,5.8017,5.7881,5.7881,5.7881,5.7881,5.7881,5.7881,5.7881,5.7881,5.7881,5.7881,5.7881,5.7881,5.8099,5.8348,5.8561,5.9081,5.9748,6.0388,6.0661,6.1176,6.1784,6.1932,6.195,6.2005,6.2005,6.2005,6.2005,6.2005,6.2005,6.2005,6.2005,6.2005,6.2005,0.0,0.0,0.0,0.0,0.0,0.0,0.0,0.0,0.0,6.9864,6.9798,6.9798,6.9798,6.9798,6.9798,6.9798,6.9798,6.9798,6.9798,7.0082,7.027,7.0515,7.0733,7.1007,7.1312,7.1312,7.1312,7.1312,7.1312,7.1312,7.1312,7.1312,7.1312,7.1312,7.1312,7.1142,7.0804,7.0364,6.9586,6.8571,6.7873,6.7232,6.6592,6.6388,6.6302,6.644,6.6728,6.6812,0.0,6.644,6.6034,6.5561,6.4952,6.4208,6.3463,6.3125,6.2719,6.2381,6.2381,6.2189,0.0,0.0,6.1837,6.1709,6.1709,6.1709,6.1709,6.1709,6.179,6.187,6.187,6.203,6.2189,0.0,6.2302,6.2381,6.2381,6.2381,6.1806,6.0283,6.0114,5.9505,5.8017,5.7881,5.7881,5.7881,5.7881,5.7881,5.7881,5.7881,5.7881,5.7881,5.7881,5.7881,5.7881,5.7954,5.8099,5.8348,5.8701,5.9149,5.9748,6.0199,6.0878,6.1708,6.182,6.1895,6.2005,6.2005,6.2005,6.2005,6.2005,6.2005,6.2005,6.2005,6.2005,6.2005,0.0,0.0,0.0,0.0,0.0,0.0,0.0,0.0,0.0,0.0,7.0192,7.003,6.9798,6.9798,6.9798,6.9798,6.9798,6.9798,6.9798,7.0082,7.027,7.0515,7.0733,7.1007,7.1312,7.1312,7.1312,7.1312,7.1312,7.1312,7.1312,7.1312,7.1312,7.1312,7.1312,7.1312,7.1278,7.0647,6.9972,6.9228,6.8102,6.7275,6.6604,6.6196,6.6009,6.6182,6.644,6.6643,6.6643,6.6643,6.6272,6.5883,6.5681,6.4735,6.3768,6.3565,6.2876,6.2302,6.2302,0.0,0.0,6.1837,6.1709,6.1547,6.1547,6.1547,6.1547,6.1547,6.1547,6.1628,6.1628,6.1756,6.1917,6.1917,6.211,6.2302,6.2302,6.2381,6.1907,6.0588,6.0419,5.9911,5.8626,5.8118,5.7881,5.7881,5.7881,5.7881,5.7881,5.7881,5.7881,5.7881,5.7881,5.7881,5.7881,5.7881,5.7954,5.8099,5.8348,5.8701,5.9251,5.9943,6.0757,6.1501,6.1728,6.184,6.2005,6.2005,6.2005,6.2005,6.2005,6.195,6.195,6.195,6.195,6.2005,0.0,0.0,0.0,0.0,0.0,0.0,0.0,0.0,0.0,0.0,0.0,0.0,0.0,6.9798,6.9798,6.9798,6.9798,6.9798,6.9798,7.0082,7.027,7.0515,7.0733,7.1007,7.1312,7.1312,7.1312,7.1312,7.1312,7.1312,7.1312,7.1312,7.1312,7.1312,7.1312,7.1312,7.1312,7.1007,7.0445,6.9704,6.8517,6.7658,6.71,6.6134,6.5955,6.6095,6.6095,6.6095,6.6095,6.6095,6.6268,6.6339,6.5632,6.5024,6.4444,6.3734,6.2797,6.1997,6.1997,0.0,6.1383,6.1383,6.1252,6.1119,6.1119,6.1119,6.1119,6.1119,6.1252,6.1383,6.1383,6.1547,6.1709,6.1709,6.1837,6.1997,6.1997,6.2268,6.211,6.1366,6.1264,6.0926,6.0114,5.8727,5.7881,5.7881,5.7881,5.7881,5.7881,5.7881,5.7881,5.7881,5.7881,5.7881,5.7881,5.7881,5.7881,5.7881,5.8099,5.8456,5.9081,6.0227,6.0998,6.1328,6.1672,6.184,6.2005,6.2005,6.2005,6.2005,6.2005,6.1895,6.1784,6.1784,6.1895,6.195,0.0,0.0,0.0,0.0,0.0,0.0,0.0,0.0,0.0,0.0,0.0,0.0,0.0,0.0,0.0,0.0,6.9798,6.9798,6.9798,7.0642,7.1192,7.1285,7.2094,7.2641,7.2766,7.2293,7.2022,7.2022,7.1548,7.1312,7.1312,7.1312,7.1312,7.1312,7.1098,7.1007,7.1007,7.0733,7.0205,6.9468,6.8994,6.8069,6.6935,6.6434,6.6035,6.5658,0.0,6.5834,6.6095,6.6095,6.6302,6.6473,6.6,6.5564,6.5087,6.3708,6.2556,6.179,6.179,0.0,6.1383,6.1383,6.1252,6.1119,6.1119,6.1119,6.1119,6.1119,6.1169,6.1169,6.1169,6.1417,6.1465,6.1465,6.1756,6.1997,6.1997,6.2189,6.211,6.14,6.1298,6.0994,6.0182,0.0,5.937,5.937,5.937,5.937,5.937,5.8896,5.8626,5.8626,5.8152,5.8118,5.8626,5.8626,5.8896,5.937,5.9593,5.9925,6.0461,6.1148,6.1524,6.1686,6.1962,6.1911,6.1728,6.1728,6.1728,6.1728,6.1728,6.1615,6.1501,6.1501,6.1444,6.1444,0.0,0.0,0.0,0.0,0.0,0.0,0.0,0.0,0.0,0.0,0.0,0.0,0.0,0.0,0.0,0.0,0.0,7.0593,7.0593,7.1504,7.2022,7.2022,7.2962,7.3477,7.3477,7.3037,7.28,7.28,7.2056,7.1684,7.1684,7.1447,7.1222,7.1131,7.1007,7.0825,7.0733,7.0549,7.0155,6.9595,6.9177,6.8253,6.7065,6.6618,6.6055,0.0,6.5425,6.557,6.5834,6.5834,6.6042,6.6249,6.6042,6.5597,6.4806,6.343,6.2393,6.1628,6.1628,6.1465,6.1334,6.1334,6.1169,6.1119,6.1119,6.1119,6.1119,6.1119,6.1119,6.1119,6.1119,6.1169,6.1334,6.1334,6.1547,6.1756,6.1756,6.203,6.2021,6.1548,6.1593,6.139,0.0,0.0,0.0,6.0148,6.0114,6.0114,6.0114,5.9641,5.9404,5.9404,5.893,5.8896,5.9404,5.9404,5.9641,6.0114,6.034,6.0637,6.104,6.1466,6.1771,6.1969,6.2195,6.2256,6.2093,6.2093,6.2009,6.1781,6.1781,6.1485,6.1058,6.1058,6.0878,6.0696,0.0,0.0,0.0,0.0,0.0,0.0,0.0,0.0,0.0,0.0,0.0,0.0,0.0,0.0,0.0,0.0,0.0,0.0,7.2018,7.2471,7.2759,7.2759,7.3299,7.3612,7.3612,7.3578,7.3544,7.3544,7.28,7.2462,7.2428,7.1718,7.1165,7.095,7.0916,7.0733,7.0423,7.027,7.0176,7.0143,6.913,6.8307,6.7546,6.685,6.6088,6.5425,6.5425,6.5425,6.5425,6.5425,6.5603,6.578,6.578,6.4953,6.3752,6.2999,6.2181,6.1383,6.1383,6.1252,6.1119,6.1119,6.1119,6.1119,6.1119,6.1119,6.1119,6.1119,6.1119,6.1119,0.0,0.0,6.1119,6.1119,6.1252,6.1383,6.1383,6.1547,6.179,0.0,0.0,0.0,0.0,0.0,0.0,6.0317,6.0216,6.0216,6.0216,6.0182,6.0148,6.0148,6.0114,6.0114,6.0148,6.0216,6.0216,6.0216,6.0367,6.0625,6.0847,6.1321,6.1745,6.2018,6.2424,6.2752,6.3038,6.3038,6.2702,6.221,6.221,6.1564,6.0618,6.0618,6.0269,5.9914,0.0,0.0,0.0,0.0,0.0,0.0,0.0,0.0,0.0,0.0,0.0,0.0,0.0,0.0,0.0,0.0,0.0,0.0,7.2567,7.339,7.3884,7.3884,7.4674,7.5134,7.5134,7.4593,7.4322,7.4322,7.3578,7.3206,7.3206,7.2462,7.2032,7.169,7.0968,7.0456,7.027,6.9988,6.9893,6.9893,6.9599,6.8738,6.7612,6.7413,6.6552,6.5425,6.5425,6.5425,6.5425,6.5425,0.0,0.0,6.5922,6.4834,6.3496,6.3382,6.2332,6.1169,6.1169,6.1086,6.1119,6.1119,6.1119,6.1119,6.1119,6.1119,6.1119,6.1119,6.1119,6.1119,0.0,0.0,0.0,6.1119,6.1252,0.0,6.1383,6.1547,0.0,6.1997,0.0,6.211,6.2381,6.2381,0.0,0.0,6.1806,6.1806,6.1806,6.1298,6.0994,6.0994,6.0419,6.0385,6.0994,6.1535,6.1806,6.1806,6.1883,6.1961,6.2191,6.2494,6.2522,6.2331,6.2509,6.237,6.2051,6.2185,6.2147,6.2038,6.2038,6.18,6.146,6.129,6.0738,6.0047,0.0,0.0,0.0,0.0,0.0,0.0,0.0,0.0,0.0,0.0,0.0,0.0,0.0,0.0,0.0,0.0,0.0,0.0,0.0,7.4421,7.4719,7.4719,7.5411,7.5709,7.5709,7.5303,7.51,7.51,7.4356,7.3984,7.395,7.324,7.2515,7.1807,7.1312,7.0664,6.9988,6.9893,6.9798,0.0,0.0,6.8937,6.7612,6.7612,6.6717,6.5425,6.5425,6.5425,6.5425,0.0,0.0,6.5425,6.5658,6.4694,6.3358,6.3444,0.0,6.1119,6.1119,6.1119,6.1119,6.1119,6.1119,6.1119,6.1119,6.1119,6.1119,6.1119,6.1119,6.1119,6.1119,6.1119,0.0,0.0,0.0,0.0,6.1252,6.1334,6.1547,0.0,6.1837,0.0,6.2381,6.2381,6.2381,0.0,6.2381,6.2381,6.2381,6.2009,6.1772,6.1772,6.1332,6.1332,6.1772,6.2178,6.2381,6.2381,6.2381,6.2459,6.2571,6.277,6.2761,6.2501,6.269,6.2634,6.2398,6.2541,6.2404,6.2162,6.2162,6.1848,6.143,6.136,6.0871,6.0206,0.0,0.0,0.0,0.0,0.0,0.0,0.0,0.0,0.0,0.0,0.0,0.0,0.0,0.0,0.0,0.0,0.0,0.0,0.0,0.0,7.5325,7.5325,7.5614,7.5709,7.5709,7.5709,7.5709,7.5709,7.5067,7.4762,7.4728,7.3984,7.3055,7.1882,7.1781,7.1064,6.9893,6.9893,6.9893,6.9798,6.9798,6.8937,6.7612,0.0,6.6717,6.5425,6.5425,6.5425,0.0,0.0,6.5425,6.5425,6.5425,6.4432,6.3272,6.3272,6.2245,6.1119,6.1119,6.1119,6.1119,6.1119,6.1119,6.1119,6.1119,6.1119,6.1119,6.1119,6.1119,6.1119,6.1119,6.1119,6.1119,6.1119,0.0,6.1119,6.1119,6.1119,6.1252,6.1628,6.1628,6.187,6.2302,6.2381,6.2381,6.2381,6.2381,6.2381,6.2381,6.2381,6.2381,6.2381,6.2381,6.2381,6.2381,6.2381,6.2381,6.2381,6.2381,6.2381,6.2381,6.2537,6.2649,6.2649,6.2847,6.3,6.3152,6.3227,6.289,6.2419,6.2419,6.1968,6.1199,6.1199,6.0876,6.051,0.0,0.0,0.0,0.0,0.0,0.0,0.0,0.0,0.0,0.0,7.5067,7.487,0.0,0.0,0.0,0.0,0.0,0.0,0.0,0.0,0.0,7.5614,7.5709,7.5709,7.5709,7.5709,7.5709,7.5709,7.5574,7.5506,7.5506,7.4762,7.3831,7.2808,7.2203,7.1218,7.0176,7.0363,7.0143,6.9798,6.9988,6.9124,6.7612,6.7612,0.0,0.0,6.5425,0.0,0.0,0.0,6.5425,6.5425,6.5425,6.4432,6.3272,6.3272,6.2245,6.1119,6.1119,6.1119,6.1119,6.1119,6.1119,6.1119,6.1119,6.1119,0.0,6.1119,6.1119,6.1119,6.1119,6.1119,6.1119,6.1119,0.0,0.0,0.0,0.0,6.1169,0.0,0.0,0.0,0.0,0.0,0.0,0.0,6.2381,6.2381,6.2381,6.2381,6.2381,6.2381,6.2381,6.2381,6.2381,6.2381,6.2381,6.2381,6.2381,6.2381,6.2381,6.2459,6.2459,6.2459,6.2459,6.2537,6.2537,6.2693,6.2702,6.2642,6.2642,6.2574,6.2395,6.2242,6.168,6.1172,0.0,0.0,0.0,0.0,0.0,0.0,0.0,0.0,7.5518,7.5518,7.5422,7.5325,7.5131,7.5164,0.0,0.0,0.0,0.0,0.0,0.0,0.0,0.0,0.0,0.0,7.5709,7.5709,7.5709,7.5709,0.0,7.5709,7.5676,7.4965,7.4033,7.307,7.233,7.1404,7.0363,7.0423,7.033,7.0176,7.0176,6.9217,6.7796,6.7612,0.0,0.0,0.0,0.0,0.0,0.0,6.5425,6.5425,6.5425,6.4432,6.3272,6.3272,6.2245,6.1119,6.1119,6.1119,6.1119,6.1119,6.1119,6.1119,6.1119,0.0,0.0,6.1119,6.1119,6.1119,6.1119,6.1119,0.0,6.1119,0.0,0.0,0.0,0.0,0.0,0.0,0.0,0.0,0.0,0.0,6.2076,6.2381,6.2381,6.2381,6.2381,6.2381,6.2381,6.2381,6.2381,6.2381,6.2381,6.2381,6.2381,6.2381,6.2381,6.2381,6.2381,6.2381,6.2381,6.2381,6.2381,6.2381,6.2381,6.2459,6.2537,6.2537,6.2537,6.2537,6.2537,6.2459,6.2178,6.1873,0.0,0.0,0.0,0.0,0.0,0.0,0.0,7.5709,7.5709,7.5709,7.5709,7.5614,7.5422,7.5422,7.5518,0.0,0.0,0.0,0.0,0.0,0.0,0.0,0.0,0.0,0.0,0.0,0.0,7.5709,7.5709,0.0,0.0,0.0,0.0,0.0,7.2422,7.1497,7.0608,7.0608,7.0608,0.0,0.0,6.9277,0.0,0.0,0.0,0.0,0.0,0.0,0.0,0.0,6.5425,6.5425,6.5425,6.4432,6.3272,6.3272,6.2245,6.1119,6.1119,6.1119,6.1119,6.1119,6.1119,6.1119,6.1119,6.1119,0.0,6.1119,6.1119,6.1119,6.1119,6.1119,6.1119,0.0,6.1119,6.1119,0.0,0.0,0.0,0.0,0.0,0.0,0.0,6.1917,0.0,6.2302,6.2381,6.2381,6.2381,6.2381,6.2381,6.2381,6.2381,6.2381,6.2381,6.2381,6.2381,6.2381,6.2381,6.2381,6.2381,6.2381,6.2381,6.2381,6.2381,6.2381,6.2381,6.2381,6.2381,6.2381,6.2381,6.2381,6.2381,6.2381,6.2381,6.2381,0.0,0.0,0.0,0.0,0.0,0.0,0.0,7.5709,7.5709,7.5709,7.5709,7.5709,7.5709,7.5709,7.5709,0.0,0.0,0.0,0.0,0.0,0.0,0.0,0.0,0.0,0.0,0.0,0.0,7.5709,7.5709,0.0,0.0,0.0,0.0,0.0,0.0,7.1806,7.0916,7.1131,0.0,0.0,0.0,0.0,0.0,0.0,0.0,0.0,0.0,0.0,0.0,0.0,0.0,6.5425,6.5425,6.4432,6.3272,6.3272,0.0,0.0,6.1119,6.1119,6.1119,6.1119,6.1119,6.1119,6.1119,0.0,6.1119,6.1119,6.1119,6.1119,6.1119,6.1119,6.1119,6.1119,6.1119,6.1119,0.0,0.0,0.0,0.0,0.0,0.0,6.1465,6.1628,6.179,6.1997,6.2268,6.2381,6.2381,6.2381,6.2381,6.2381,6.2381,6.2381,6.2381,6.2381,6.2381,6.2381,6.2381,6.2381,6.2381,6.2381,6.2381,6.2381,6.2381,6.2381,6.2381,6.2381,6.2381,6.2381,6.2381,6.2381,6.2381,6.2381,6.2381,6.2381,0.0,0.0,0.0,0.0,0.0,0.0,7.5709,7.5709,7.5709,7.5709,7.5709,7.5709,7.5709,7.5709,7.5709,0.0,0.0,0.0,0.0,0.0,0.0,0.0,0.0,0.0,0.0,0.0,7.5709,7.5709,7.527,0.0,0.0,0.0,0.0,0.0,0.0,7.1492,7.1131,7.1222,0.0,0.0,0.0,0.0,0.0,0.0,0.0,0.0,0.0,0.0,0.0,0.0,0.0,0.0,6.5425,6.4432,0.0,0.0,6.2245,6.1119,6.1119,6.1119,6.1119,6.1119,6.1119,6.1119,6.1119,0.0,6.1119,6.1119,6.1119,6.1119,6.1119,6.1119,6.1119,6.1119,6.1119,6.1119,6.1119,0.0,0.0,0.0,0.0,0.0,0.0,0.0,6.187,6.2189,6.2381,6.2381,6.2381,6.2381,6.2381,6.2381,6.2381,6.2381,6.2381,6.2381,6.2381,6.2381,6.2381,6.2381,6.2381,6.2381,6.2381,6.2381,6.2381,6.2381,6.2381,6.2381,6.2381,6.2381,6.2381,6.2381,6.2381,6.2381,6.2381,6.2381,0.0,0.0,0.0,0.0,0.0,7.5709,7.5709,7.5709,7.5709,7.5709,7.5709,7.5709,7.5709,7.5709,7.5709,7.5709,0.0,0.0,0.0,0.0,0.0,0.0,0.0,0.0,0.0,0.0,7.5574,7.5371,7.4864,7.4492,0.0,0.0,7.2394,7.236,0.0,0.0,0.0,0.0,0.0,0.0,0.0,0.0,0.0,0.0,0.0,0.0,0.0,0.0,0.0,0.0,0.0,0.0,0.0,0.0,0.0,0.0,6.2245,6.1119,6.1119,6.1119,6.1119,6.1119,6.1119,6.1119,0.0,0.0,6.1119,6.1119,6.1119,6.1119,6.1119,6.1119,6.1119,6.1119,6.1119,6.1119,6.1119,6.1119,0.0,0.0,0.0,0.0,0.0,0.0,6.187,6.2381,6.2381,6.2381,6.2381,6.2381,6.2381,6.2381,6.2381,6.2381,6.2381,6.2381,6.2381,6.2381,6.2381,6.2381,6.2381,6.2381,6.2381,6.2381,6.2381,6.2381,6.2381,6.2381,6.2381,6.2381,6.2381,6.2381,6.2381,6.2381,6.2381,6.2381,0.0,0.0,0.0,0.0,0.0,0.0,0.0,7.5709,7.5709,7.5709,7.5709,7.5709,7.5709,7.5709,7.5709,7.5709,7.5709,0.0,0.0,0.0,0.0,0.0,0.0,0.0,0.0,0.0,7.5337,7.4627,7.4627,7.4221,7.3477,7.2732,7.2394,7.236,0.0,0.0,0.0,0.0,0.0,0.0,0.0,0.0,0.0,0.0,0.0,0.0,0.0,0.0,0.0,0.0,0.0,0.0,0.0,6.4432,6.3272,6.3272,6.2245,6.1119,6.1119,6.1119,6.1119,6.1119,6.1119,6.1119,0.0,0.0,6.1119,6.1119,6.1119,6.1119,6.1119,6.1119,6.1119,6.1119,6.1119,6.1119,6.1119,6.1119,0.0,0.0,0.0,0.0,0.0,0.0,6.187,6.2381,6.2381,6.2381,6.2381,6.2381,6.2381,6.2381,6.2381,6.2381,6.2381,6.2381,6.2381,6.2381,6.2381,6.2381,6.2381,6.2381,6.2381,6.2381,6.2381,6.2381,6.2381,6.2381,6.2381,6.2381,6.2381,6.2381,6.2381,6.2381,6.2381,6.2381,0.0,0.0,0.0,0.0,0.0,0.0,0.0,7.5709,7.5709,7.5709,7.5709,7.5709,7.5709,7.5709,7.5709,7.5709,7.5709,0.0,0.0,0.0,0.0,0.0,0.0,0.0,0.0,0.0,7.483,7.4627,7.3612,7.2969,7.2732,7.1988,7.165,7.165,7.1413,7.1312,0.0,0.0,0.0,0.0,0.0,0.0,0.0,0.0,0.0,0.0,0.0,0.0,0.0,0.0,0.0,0.0,0.0,0.0,0.0,6.2676,6.1848,6.1119,6.1119,6.1119,6.1119,6.1119,6.1119,6.1119,6.1119,0.0,6.1119,6.1119,6.1119,6.1119,6.1119,6.1119,6.1119,6.1119,6.1119,6.1119,6.1119,0.0,0.0,0.0,0.0,0.0,0.0,0.0,6.203,6.2381,6.2381,6.2381,6.2381,6.2381,6.2381,6.2381,6.2381,6.2381,6.2381,6.2381,6.2381,6.2381,6.2381,6.2381,6.2381,6.2381,6.2381,6.2381,6.2381,6.2381,6.2381,6.2381,6.2381,6.2381,6.2381,6.2381,6.2381,6.2381,6.2381,6.2381,0.0,0.0,0.0,0.0,0.0,0.0,0.0,7.5709,7.5709,7.5709,7.5709,7.5709,7.5709,7.5709,7.5709,7.5709,7.5709,0.0,0.0,0.0,0.0,0.0,0.0,0.0,0.0,7.4864,7.4356,7.3781,7.2868,7.2259,7.1988,7.1515,7.1312,7.1312,7.1312,7.1312,0.0,0.0,0.0,0.0,0.0,0.0,6.5425,0.0,0.0,0.0,0.0,0.0,0.0,0.0,0.0,0.0,0.0,0.0,0.0,0.0,6.1682,6.1119,6.1119,6.1119,6.1119,6.1119,6.1119,6.1119,6.1119,0.0,0.0,6.1119,6.1119,6.1119,6.1119,6.1119,6.1119,6.1119,6.1119,6.1119,6.1119,0.0,0.0,0.0,0.0,0.0,0.0,6.1756,6.203,6.2381,6.2381,6.2381,6.2381,6.2381,6.2381,6.2381,6.2381,6.2381,6.2381,6.2381,6.2381,6.2381,6.2381,6.2381,6.2381,6.2381,6.2381,6.2381,6.2381,6.2381,0.0,6.2381,6.2381,6.2381,6.2381,6.2381,6.2381,6.2381,6.2381,6.2381,0.0,0.0,0.0,0.0,0.0,0.0,0.0,0.0,7.5709,7.5709,7.5709,7.5709,7.5709,7.5709,7.5709,7.5709,0.0,0.0,0.0,0.0,0.0,0.0,0.0,0.0,0.0,7.4525,7.3781,7.2394,7.236,7.1988,7.1312,7.1312,7.1312,7.1312,7.1312,7.1278,0.0,0.0,0.0,0.0,6.7202,6.629,0.0,0.0,0.0,0.0,0.0,0.0,0.0,0.0,0.0,0.0,0.0,0.0,0.0,0.0,0.0,0.0,0.0,6.1119,6.1119,6.1119,6.1119,6.1119,6.1119,0.0,0.0,0.0,0.0,6.1119,6.1119,6.1119,6.1119,6.1119,6.1119,6.1119,6.1119,6.1119,0.0,0.0,0.0,0.0,0.0,6.1709,6.187,6.2381,6.2381,6.2381,6.2381,6.2381,6.2381,6.2381,6.2381,6.2381,6.2381,6.2381,6.2381,6.2381,6.2381,6.2381,6.2381,6.2381,6.2381,6.2381,6.2381,6.2381,6.2381,6.2381,6.2381,6.2381,6.2381,6.2381,6.2381,6.2381,6.2381,6.2381,0.0,0.0,0.0,0.0,0.0,0.0,0.0,0.0,0.0,0.0,7.5709,7.5709,7.5709,7.5709,7.5709,0.0,0.0,0.0,0.0,0.0,0.0,0.0,0.0,0.0,0.0,7.351,7.2766,7.2394,7.1853,7.1481,7.1312,7.1312,7.1312,7.1312,7.1312,7.1007,0.0,0.0,0.0,0.0,6.6577,6.5913,0.0,0.0,0.0,0.0,6.5425,6.5425,0.0,0.0,0.0,0.0,0.0,0.0,0.0,0.0,6.1251,6.1119,6.1119,0.0,6.1119,6.1119,6.1119,6.1119,0.0,0.0,0.0,0.0,0.0,6.1119,6.1119,6.1119,6.1119,6.1119,6.1119,6.1119,6.1119,0.0,0.0,0.0,0.0,0.0,0.0,6.1837,6.211,6.2381,6.2381,6.2381,6.2381,6.2381,6.2381,6.2381,6.2381,6.2381,6.2381,6.2381,6.2381,6.2381,6.2381,6.2381,6.2381,6.2381,6.2381,6.2381,6.2381,6.2381,6.2381,6.2381,6.2381,6.2381,6.2381,6.2381,6.2381,6.2381,6.2381,6.2381,0.0,0.0,0.0,0.0,0.0,0.0,0.0,0.0,0.0,0.0,0.0,0.0,0.0,0.0,0.0,0.0,0.0,0.0,0.0,0.0,0.0,0.0,0.0,7.4458,7.4086,7.2969,7.2225,7.1887,7.1515,7.1312,7.1312,7.1312,7.1312,7.1312,7.0939,7.0567,0.0,0.0,0.0,0.0,6.6397,0.0,0.0,0.0,0.0,0.0,6.5425,6.5425,0.0,6.5425,6.4962,6.4266,0.0,0.0,0.0,0.0,6.1119,6.1119,6.1252,6.1169,6.1119,6.1119,6.1119,6.1119,6.1119,0.0,0.0,0.0,0.0,0.0,6.1119,0.0,0.0,6.1119,6.1119,6.1119,0.0,0.0,0.0,0.0,0.0,0.0,0.0,6.1917,6.2076,6.2381,6.2381,6.2381,6.2381,6.2381,6.2381,6.2381,6.2381,6.2381,6.2381,6.2381,6.2381,6.2381,6.2381,6.2381,6.2381,6.2381,6.2381,6.2381,6.2381,6.2381,6.2381,6.2381,6.2381,6.2381,6.2381,6.2381,6.2381,6.2381,6.2381,6.2381,0.0,0.0,0.0,0.0,0.0,0.0,0.0,0.0,0.0,0.0,0.0,0.0,0.0,0.0,0.0,0.0,0.0,0.0,0.0,0.0,0.0,0.0,0.0,7.4153,7.351,7.2665,7.1921,7.1312,7.1312,7.1312,7.1312,7.1312,7.1312,7.1278,7.0534,7.0128,0.0,0.0,0.0,0.0,6.6276,0.0,0.0,0.0,0.0,0.0,0.0,0.0,0.0,6.5293,6.4796,6.4067,6.3338,0.0,0.0,0.0,0.0,0.0,6.1301,6.1334,6.1169,6.1169,6.1169,6.1202,6.1202,0.0,0.0,0.0,0.0,0.0,0.0,0.0,0.0,0.0,0.0,0.0,0.0,0.0,0.0,0.0,0.0,0.0,6.1917,6.1997,6.2189,6.2381,6.2381,6.2381,6.2381,6.2381,6.2381,6.2381,6.2381,6.2381,6.2381,6.2381,6.2381,6.2381,6.2381,6.2381,6.2381,6.2381,6.2381,6.2381,6.2381,6.2381,6.2381,6.2381,6.2381,6.2381,6.2381,6.2381,6.2381,6.2381,6.2381,6.2381,0.0,0.0,0.0,0.0,0.0,0.0,0.0,0.0,0.0,0.0,0.0,0.0,0.0,0.0,0.0,0.0,0.0,0.0,0.0,0.0,0.0,7.5709,7.439,7.3612,7.3477,7.2157,7.1413,7.1312,7.1312,7.1312,7.1312,7.1312,7.1312,7.1278,7.0321,6.9524,6.8884,0.0,0.0,6.6034,6.5901,0.0,0.0,0.0,0.0,0.0,0.0,0.0,0.0,6.473,6.4067,6.3305,6.2577,0.0,0.0,0.0,0.0,0.0,6.1383,6.1465,6.1628,6.1628,6.1465,6.1301,6.1301,0.0,0.0,0.0,0.0,0.0,0.0,0.0,0.0,0.0,0.0,0.0,0.0,0.0,0.0,0.0,0.0,6.1709,6.1709,6.211,6.2381,6.2381,6.2381,6.2381,6.2381,6.2381,6.2381,6.2381,6.2381,6.2381,6.2381,6.2381,6.2381,6.2381,6.2381,6.2381,6.2381,6.2381,6.2381,6.2381,6.2381,6.2381,6.2381,6.2381,6.2381,6.2381,6.2381,6.2381,6.2381,6.2381,6.2381,6.2381,0.0,0.0,0.0,0.0,0.0,0.0,0.0,0.0,0.0,0.0,0.0,0.0,0.0,0.0,0.0,0.0,0.0,0.0,0.0,0.0,0.0,7.5709,7.4289,7.3477,7.3477,7.2056,7.1312,7.1312,7.1312,7.1312,7.1312,7.1312,7.1312,7.1278,6.9794,6.8997,6.8594,6.7396,6.6464,6.578,0.0,0.0,0.0,0.0,0.0,0.0,0.0,0.0,0.0,0.0,6.42,6.3206,6.2875,0.0,0.0,0.0,0.0,0.0,6.1383,6.1547,6.1709,6.1837,6.1709,6.1547,0.0,0.0,0.0,0.0,0.0,0.0,0.0,0.0,0.0,0.0,0.0,0.0,0.0,0.0,0.0,0.0,0.0,6.1837,6.1837,6.2223,6.2381,6.2381,6.2381,6.2381,6.2381,6.2381,6.2381,6.2381,6.2381,6.2381,6.2381,6.2381,6.2381,6.2381,6.2381,6.2381,6.2381,6.2381,6.2381,6.2381,6.2381,6.2381,6.2381,6.2381,6.2381,6.2381,6.2381,6.2381,6.2381,6.2381,6.2381,6.2381,0.0,0.0,0.0,0.0,0.0,0.0,0.0,0.0,0.0,0.0,0.0,0.0,0.0,0.0,0.0,0.0,0.0,0.0,0.0,0.0,7.5614,7.5709,7.4289,7.3477,7.3477,7.2056,7.1312,7.1312,7.1312,7.1312,7.1312,7.1312,7.1312,7.1154,6.9368,6.8573,6.8417,6.6853,6.6042,6.5692,0.0,0.0,0.0,0.0,0.0,0.0,0.0,0.0,0.0,0.0,0.0,0.0,0.0,0.0,0.0,6.1119,6.1086,6.1169,6.1383,6.1547,6.1709,6.1917,0.0,0.0,0.0,0.0,0.0,0.0,0.0,0.0,0.0,0.0,0.0,0.0,0.0,0.0,0.0,0.0,0.0,0.0,6.1628,6.1837,6.1837,6.211,6.2223,6.2223,6.2302,6.2302,6.2302,6.2381,6.2381,6.2381,6.2381,6.2381,6.2302,6.2302,6.2381,6.2381,6.2381,6.2381,6.2381,6.2381,6.2381,6.2381,6.2381,6.2381,6.2381,6.2381,6.2381,6.2381,6.2381,6.2381,6.2381,6.2381,6.2381,6.2381,0.0,0.0,0.0,0.0,0.0,0.0,0.0,0.0,0.0,0.0,0.0,0.0,0.0,0.0,0.0,0.0,0.0,0.0,0.0,0.0,7.5422,7.5709,7.4289,7.3477,7.3477,7.2056,7.1312,7.1312,7.1312,7.1312,7.1312,7.1312,7.1222,7.0849,6.9189,6.8249,6.7969,6.6234,6.5425,6.5425,6.5425,0.0,0.0,0.0,0.0,0.0,0.0,0.0,0.0,0.0,0.0,0.0,0.0,0.0,6.1119,6.1119,6.1252,6.1383,6.1383,6.1547,6.1709,6.1709,0.0,0.0,0.0,0.0,0.0,0.0,0.0,0.0,0.0,0.0,0.0,0.0,0.0,0.0,0.0,0.0,6.1119,6.1119,6.1334,6.1465,6.1465,6.1628,6.1709,6.1709,6.1917,6.1997,6.1997,6.2268,6.2381,6.2381,6.2381,6.2268,6.1997,6.1997,6.2189,6.2381,6.2381,6.2381,6.2381,6.2381,6.2381,6.2381,6.2381,6.2381,6.2381,6.2381,6.2381,6.2381,6.2381,6.2381,6.2381,6.2381,6.2381,6.2381,0.0,0.0,0.0,0.0,0.0,0.0,0.0,0.0,0.0,0.0,0.0,0.0,0.0,0.0,0.0,0.0,0.0,0.0,0.0,7.5131,7.5164,7.5262,7.3783,7.301,7.301,7.1748,7.1007,7.0825,7.0825,7.0825,7.0825,7.0825,7.0733,7.0574,6.9386,6.8502,6.7911,6.6822,6.5946,6.5425,6.5603,6.5514,0.0,0.0,0.0,0.0,0.0,0.0,0.0,0.0,6.4564,6.3902,6.3637,6.304,6.2444,6.2444,6.2529,6.2614,6.2614,6.2698,6.2866,6.2866,0.0,0.0,0.0,0.0,0.0,0.0,0.0,0.0,0.0,0.0,0.0,0.0,0.0,0.0,0.0,6.2444,6.2444,6.2444,6.2614,6.2782,6.2782,6.3115,6.328,6.328,6.3492,6.3653,6.3653,6.3248,6.3091,6.3091,6.2425,6.2076,6.1997,6.1837,6.187,6.1951,6.1951,6.1951,6.1951,6.1951,6.1951,6.1951,6.211,6.2189,6.2189,6.2302,6.2381,6.2381,6.2381,6.2381,6.2381,6.2381,6.2381,6.2381,0.0,0.0,0.0,0.0,0.0,0.0,0.0,0.0,0.0,0.0,0.0,0.0,0.0,0.0,0.0,0.0,0.0,0.0,7.487,7.487,7.487,7.4968,7.3763,7.296,7.263,7.152,7.0876,7.0515,7.0515,7.0515,7.0515,7.0515,7.0423,7.0423,6.9503,6.8677,6.7854,6.7122,6.6268,6.5425,6.5603,6.5603,0.0,0.0,0.0,0.0,0.0,0.0,0.0,0.0,6.4962,6.4365,6.4365,6.3868,6.3272,6.3272,6.3272,6.3272,6.3358,6.3444,6.353,6.3615,0.0,0.0,0.0,0.0,0.0,0.0,0.0,0.0,0.0,0.0,0.0,0.0,0.0,0.0,6.3206,6.3272,6.3272,6.3272,6.3444,6.353,6.353,6.3784,6.3953,6.3953,6.4203,6.4285,6.4285,6.3896,6.3627,6.3627,6.2925,6.2441,6.2206,6.2044,6.1781,6.1499,6.1499,6.1547,6.1709,6.1709,6.1709,6.1709,6.187,6.1917,6.1917,6.211,6.2223,6.2223,6.2302,6.2268,6.2268,6.2381,6.2381,6.2381,0.0,0.0,0.0,0.0,0.0,0.0,0.0,0.0,0.0,0.0,0.0,0.0,0.0,0.0,0.0,0.0,0.0,0.0,7.4606,7.4606,7.4672,7.4968,7.4232,7.3399,7.2374,7.1675,7.1003,7.0515,7.0515,7.0515,7.0515,7.0515,7.0363,7.0143,6.941,6.8585,6.7579,6.685,6.6088,6.5425,6.5425,6.5425,6.5425,0.0,0.0,0.0,0.0,0.0,0.0,0.0,6.4962,6.4399,6.4399,6.3902,6.3305,6.3305,6.3305,6.3391,6.353,6.3477,6.3391,6.3563,0.0,0.0,0.0,0.0,0.0,0.0,0.0,0.0,0.0,0.0,0.0,0.0,0.0,0.0,6.3305,6.3305,6.3305,6.3305,6.3305,6.3305,6.3305,6.3305,6.3305,6.3305,6.3563,6.3615,6.3615,6.3784,6.3869,6.3869,6.3869,6.3417,6.2516,6.2516,6.2066,6.1119,6.1119,6.1334,6.1709,6.1709,6.1709,6.1709,6.1709,6.1709,6.1709,6.1743,6.1743,6.1743,6.1951,6.203,6.203,6.2302,6.2415,6.2415,0.0,0.0,0.0,0.0,0.0,0.0,0.0,0.0,0.0,0.0,0.0,0.0,0.0,0.0,0.0,0.0,0.0,0.0,7.4272,7.4272,7.4372,7.4473,7.3675,7.2944,7.2116,7.0855,7.022,6.9988,6.9988,6.9988,6.9988,6.9988,6.9988,6.9893,6.9661,6.8865,6.7612,6.738,6.6585,6.5425,6.5425,6.5425,6.5425,0.0,0.0,0.0,0.0,0.0,0.0,0.0,0.0,0.0,6.5094,6.4962,6.4796,6.4796,6.4796,6.4763,6.4851,0.0,0.0,0.0,0.0,0.0,0.0,0.0,0.0,0.0,0.0,0.0,0.0,0.0,0.0,0.0,0.0,6.4233,6.4697,6.4796,6.4796,6.4796,6.4796,6.4796,6.4796,6.4972,6.506,6.506,6.52,6.5373,6.5373,6.4905,6.4689,6.4689,6.4051,6.36,6.3282,6.3112,6.2927,6.2643,6.2643,6.2164,6.1252,6.1252,6.1252,6.1252,6.1383,6.1765,6.2299,6.2999,6.3283,6.3283,6.3283,6.3366,6.3366,6.3448,6.3448,6.3448,0.0,0.0,0.0,0.0,0.0,0.0,0.0,0.0,0.0,0.0,7.649,7.5894,0.0,0.0,0.0,0.0,0.0,0.0,0.0,7.4171,7.4171,7.4171,7.3773,7.3045,7.2018,7.0825,7.0096,6.9798,6.9798,6.9798,6.9798,6.9798,6.9798,6.9798,6.9798,6.9136,6.8042,6.7744,6.6949,6.5823,6.5525,6.5425,6.5425,0.0,0.0,0.0,0.0,0.0,0.0,0.0,0.0,0.0,6.5425,6.5425,6.5425,6.5425,6.5425,6.5425,6.5514,0.0,0.0,0.0,0.0,0.0,0.0,0.0,0.0,0.0,0.0,0.0,0.0,0.0,0.0,0.0,6.4796,6.4929,6.5359,6.5425,6.5425,6.5425,6.5425,6.5425,6.5425,6.5514,6.5603,6.5603,6.5746,6.5834,6.5834,6.5434,6.52,6.52,6.4594,6.4175,6.3876,6.379,6.357,6.3272,6.3272,6.2808,6.198,6.198,6.1815,6.155,6.1983,6.2465,6.2898,6.3415,6.37,6.37,6.3784,6.3784,6.3784,6.3869,6.3869,6.3953,0.0,0.0,7.8511,7.8444,0.0,0.0,0.0,0.0,0.0,0.0,7.6722,7.6026,0.0,0.0,0.0,0.0,0.0,0.0,0.0,0.0,7.4171,7.4171,7.4105,7.3442,7.2117,7.1322,7.056,6.9898,6.9831,6.9798,6.9798,6.9798,6.9798,6.9798,6.9798,6.9368,6.8639,6.8009,6.7247,6.6452,6.579,6.5492,6.5425,6.5425,0.0,0.0,0.0,0.0,0.0,0.0,0.0,0.0,6.5425,6.5425,6.5425,6.5425,6.5425,6.5425,0.0,0.0,0.0,0.0,0.0,0.0,0.0,0.0,0.0,0.0,0.0,0.0,0.0,0.0,0.0,6.5425,6.5425,6.5425,6.5425,6.5425,6.5425,6.5425,6.5425,6.5425,6.5425,6.5425,6.5425,6.5425,6.5425,6.5425,6.5425,6.5425,6.5425,6.5425,6.5425,6.5127,6.4498,6.4465,6.4133,6.3471,6.3471,6.3438,6.3372,6.3305,6.2908,6.2312,6.304,6.3372,6.3372,6.3438,6.3471,6.3471,6.3729,6.3729,6.3815,6.3985,6.4069,6.4069,0.0,0.0,7.8345,7.7749,0.0,0.0,0.0,0.0,0.0,0.0,0.0,0.0,0.0,0.0,0.0,0.0,0.0,0.0,0.0,0.0,7.4171,7.4171,7.3641,7.3177,7.2879,7.1587,7.0825,7.0659,7.0063,6.9798,6.9798,6.9798,6.9798,6.9798,6.9798,6.9368,6.8672,6.8539,6.7711,6.6519,6.6353,6.5922,6.5425,6.5425,6.5425,0.0,0.0,0.0,0.0,0.0,0.0,0.0,6.5425,6.5425,6.5425,6.5425,6.5425,6.5425,0.0,0.0,0.0,0.0,0.0,0.0,0.0,0.0,0.0,0.0,0.0,0.0,0.0,0.0,6.5425,6.5425,6.5425,6.5425,6.5425,6.5425,6.5425,6.5425,6.5425,6.5425,6.5425,6.5425,6.5425,6.5425,6.5425,6.5425,6.5425,6.5425,6.5425,6.5425,6.5425,6.5326,6.5194,6.5194,6.5127,6.4962,6.4962,6.4664,6.4133,6.3537,6.3173,6.3073,6.3835,6.4133,6.42,6.473,6.4962,6.4962,6.4962,6.505,6.505,6.505,6.505,6.5138,0.0,0.0,0.0,0.0,0.0,0.0,0.0,0.0,0.0,0.0,0.0,0.0,0.0,0.0,0.0,0.0,0.0,0.0,0.0,0.0,7.4171,7.4171,7.3807,7.3442,7.3111,7.2018,7.1256,7.0891,7.0163,6.9798,6.9798,6.9798,6.9798,6.9798,6.9798,6.9566,6.9202,6.8837,6.8241,6.7512,6.7181,6.6585,6.5955,6.5955,6.5724,6.5425,6.5425,0.0,0.0,0.0,0.0,0.0,0.0,0.0,6.5425,6.5425,6.5425,6.5425,0.0,0.0,0.0,0.0,0.0,0.0,0.0,0.0,0.0,0.0,0.0,0.0,0.0,6.5425,6.5425,6.5425,6.5425,6.5425,6.5425,6.5425,6.5425,6.5425,6.5425,6.5425,6.5425,6.5425,6.5425,6.5425,6.5425,6.5425,6.5425,6.5425,6.5425,6.5425,6.5425,6.5425,6.5425,6.5425,6.5591,6.5955,6.5955,6.5955,6.5889,6.4465,6.4001,6.4332,6.4697,6.4895,6.4895,6.526,6.5425,6.5425,6.5425,6.5425,6.5425,6.5425,6.5425,6.5425,0.0,0.0,0.0,0.0,0.0,0.0,0.0,0.0,0.0,0.0,0.0,0.0,0.0,0.0,0.0,0.0,0.0,0.0,0.0,0.0,0.0,7.4171,7.4171,7.3906,7.331,7.2581,7.1885,7.1289,7.0394,0.0,0.0,0.0,6.9798,6.9798,6.9798,6.9798,6.9765,6.9136,6.8804,6.8639,6.8042,6.738,6.6717,6.6717,6.6254,6.5591,6.5591,6.5525,6.5425,6.5425,0.0,0.0,0.0,0.0,6.5425,6.5425,6.5425,6.5425,0.0,0.0,0.0,0.0,0.0,0.0,0.0,0.0,0.0,0.0,0.0,0.0,6.5425,6.5425,6.5425,6.5425,6.5425,6.5425,6.5425,6.5425,6.5425,6.5425,6.5425,6.5425,6.5425,6.5425,6.5425,6.5425,6.5425,6.5425,6.5425,6.5425,6.5425,6.5425,6.5425,6.5492,6.5591,6.5591,6.5989,6.6717,6.6717,6.7016,6.7579,6.5757,6.5194,6.5591,6.5591,6.5525,6.5425,6.5425,6.5425,6.5425,6.5425,6.5425,6.5425,6.5425,6.5425,6.5425,0.0,0.0,0.0,0.0,0.0,0.0,0.0,0.0,0.0,0.0,7.702,7.7384,0.0,0.0,0.0,0.0,0.0,0.0,0.0,0.0,0.0,7.4171,7.4171,7.4105,7.4038,7.3343,7.2912,7.2813,0.0,0.0,0.0,0.0,0.0,6.9798,6.9798,6.9798,6.9798,6.9666,6.9268,6.8672,6.8572,6.8109,6.7479,6.7479,6.7016,6.6386,6.6386,6.5955,6.5425,6.5425,6.5425,0.0,0.0,0.0,6.5425,6.5425,6.5425,0.0,0.0,0.0,0.0,0.0,0.0,0.0,0.0,0.0,0.0,0.0,6.5425,6.5425,6.5425,6.5425,6.5425,6.5425,6.5425,6.5425,6.5425,6.5425,6.5425,6.5425,6.5425,6.5425,6.5425,6.5425,6.5425,6.5425,6.5425,6.5425,6.5425,6.5425,6.5425,6.5425,6.5425,6.5724,6.6353,6.6386,6.6751,6.7479,6.7479,6.7512,6.7612,6.7314,6.6883,6.6386,6.6386,6.6022,6.5425,6.5425,6.5425,6.5425,6.5425,6.5425,6.5425,6.5425,6.5425,6.5425,0.0,0.0,0.0,0.0,0.0,0.0,0.0,0.0,0.0,0.0,0.0,7.7881,0.0,0.0,0.0,7.5297,7.4602,7.4171,7.4171,7.4171,0.0,7.4171,7.4171,7.4171,7.4171,7.3475,7.3111,7.3111,0.0,0.0,0.0,7.0129,6.9798,0.0,0.0,0.0,6.9798,0.0,0.0,6.9301,6.9301,6.8871,6.8241,6.8241,6.7777,6.7148,6.7148,6.6916,6.6651,6.6651,6.6651,6.6651,6.6651,0.0,0.0,0.0,6.5724,0.0,0.0,0.0,0.0,0.0,0.0,0.0,0.0,0.0,0.0,6.5425,6.5425,6.5425,6.5425,6.5425,6.5425,6.5425,6.5425,6.5425,6.5425,6.5425,6.5425,6.5425,6.5425,6.5425,6.5425,6.5425,6.5425,6.5425,6.5425,6.5425,6.5425,6.5823,6.6022,6.6022,6.6452,6.6817,6.7148,6.7148,6.7512,6.8241,6.8639,6.8639,6.8241,6.8241,6.7612,6.6519,6.6519,6.6088,6.5425,6.5425,6.5425,6.5425,6.5425,6.5425,6.5425,6.5425,6.5425,6.5425,0.0,0.0,0.0,0.0,0.0,0.0,0.0,0.0,0.0,0.0,0.0,0.0,0.0,0.0,0.0,0.0,7.4867,7.437,7.4171,7.4171,0.0,0.0,7.4171,7.4171,7.4171,7.3641,7.3376,0.0,0.0,0.0,7.1156,7.0229,6.9798,0.0,6.9798,0.0,0.0,0.0,0.0,0.0,6.9798,6.9467,6.897,6.897,6.8506,6.791,6.791,6.7777,6.7612,6.7612,6.7612,6.7612,6.7612,6.7247,0.0,0.0,0.0,0.0,0.0,0.0,0.0,0.0,0.0,0.0,0.0,0.0,6.5425,0.0,6.5425,6.5425,6.5425,6.5425,6.5425,6.5425,6.5425,6.5425,6.5425,6.5425,6.5425,6.5425,6.5425,6.5425,6.5425,6.5425,6.5425,6.5425,6.5591,6.569,6.569,6.6386,6.6817,6.6817,6.7347,6.7711,6.791,6.8076,6.8341,6.8705,6.9235,6.9136,6.8407,6.8407,6.7711,6.6519,6.6519,6.6088,6.5425,6.5425,6.5425,6.5425,6.5425,6.5425,6.5425,6.5425,6.5425,6.5425,0.0,0.0,0.0,0.0,0.0,0.0,0.0,0.0,0.0,0.0,0.0,0.0,0.0,7.7782,7.7053,7.6324,7.5628,7.4933,7.4204,7.4171,7.4171,7.4171,0.0,0.0,7.4171,7.4138,0.0,0.0,0.0,0.0,7.1918,7.0461,6.9798,6.9798,6.9798,6.9798,6.9798,0.0,0.0,0.0,6.9798,6.9765,6.9732,6.9732,6.9268,6.8639,6.8639,0.0,6.7612,6.7612,6.7612,6.7612,6.7612,6.7612,6.7579,0.0,0.0,0.0,0.0,0.0,0.0,0.0,0.0,0.0,0.0,0.0,0.0,6.5425,6.5425,6.5425,6.5425,6.5425,6.5425,6.5425,6.5425,6.5425,6.5425,6.5425,6.5425,6.5425,6.5425,6.5425,6.5425,6.5425,6.5425,6.5425,6.6055,6.6452,6.6452,6.7181,6.7579,6.7579,6.7612,6.7943,6.8639,6.9334,6.9334,6.8672,6.8738,6.8374,6.7678,6.7678,6.7247,6.6519,6.6519,6.6088,6.5425,6.5425,6.5425,6.5425,6.5425,6.5425,6.5425,6.5425,6.5425,6.5425,0.0,0.0,0.0,0.0,0.0,0.0,0.0,0.0,0.0,0.0,0.0,0.0,0.0,7.745,7.6589,7.6324,7.5231,7.4469,7.4204,7.4171,7.4171,7.4171,0.0,0.0,0.0,0.0,0.0,0.0,0.0,7.2713,7.268,7.1189,7.0494,7.0494,6.9997,6.9798,6.9798,6.9798,0.0,0.0,6.9798,6.9798,6.9798,0.0,0.0,0.0,0.0,0.0,0.0,6.9003,6.9003,6.9003,6.9003,6.8705,6.8208,6.7777,6.7446,6.7181,6.6916,0.0,0.0,0.0,0.0,0.0,0.0,6.685,6.685,6.685,6.685,6.685,6.685,6.6055,6.5425,6.5425,6.5425,6.5425,6.5425,6.5425,6.5425,6.5425,6.5425,6.5591,6.6088,6.6121,6.632,6.6817,6.7082,6.7247,6.7247,6.791,6.8307,6.8307,6.8771,6.8904,6.8672,6.8937,6.8705,6.8009,6.8009,6.7612,6.6916,6.6916,6.6519,6.5823,6.5823,6.5657,6.5425,6.5425,6.5425,6.5425,6.5425,6.5425,6.5425,6.5425,6.5425,6.5425,0.0,0.0,0.0,0.0,0.0,0.0,0.0,0.0,0.0,0.0,0.0,0.0,0.0,0.0,7.6225,7.5993,7.4867,7.4171,7.4171,7.4171,7.4171,7.4171,7.4171,7.4171,7.4171,0.0,0.0,0.0,0.0,0.0,0.0,7.1852,7.1123,7.0891,7.0394,7.003,0.0,0.0,0.0,6.9798,0.0,6.9798,6.9798,0.0,0.0,0.0,0.0,0.0,0.0,0.0,0.0,6.9798,6.9798,6.9467,6.8904,6.8208,6.7976,6.7943,6.7678,0.0,0.0,0.0,0.0,6.7612,6.7612,0.0,6.7612,6.7612,6.7612,6.7612,6.7612,6.6817,6.6088,6.5823,6.579,6.579,6.579,6.5989,6.6154,6.6154,6.6154,6.6353,6.685,6.6883,6.7082,6.7579,6.7844,6.7976,6.7976,6.8672,6.9069,6.9069,6.9301,6.9202,6.8672,6.844,6.7976,6.7247,6.7247,6.685,6.6154,6.6419,6.6254,6.579,6.6055,6.5889,6.5425,6.5425,6.5425,6.5425,6.5425,6.5558,6.579,6.579,6.579,6.579,0.0,0.0,0.0,0.0,0.0,0.0,0.0,0.0,0.0,0.0,0.0,0.0,0.0,0.0,0.0,7.5297,7.4568,7.4171,7.4171,7.4171,7.4171,7.4171,7.4171,7.4171,7.4171,7.4171,0.0,0.0,0.0,0.0,0.0,0.0,7.1653,7.0958,7.0924,7.0527,6.9864,0.0,6.9831,6.9831,0.0,6.9864,6.9864,0.0,0.0,0.0,6.9864,6.9831,0.0,6.9831,0.0,0.0,6.9798,6.9798,6.9666,6.8937,6.8705,6.8572,0.0,0.0,0.0,0.0,0.0,0.0,6.7678,6.7678,6.7678,6.7678,6.7678,6.7678,6.7678,6.7678,6.7413,6.6684,6.6585,6.6552,6.6552,6.7181,6.7612,6.7612,6.7612,6.7645,6.7645,6.7645,6.7678,6.7678,6.8341,6.8705,6.8705,6.9401,6.9798,6.9798,6.9103,6.8705,6.8672,6.8009,6.7281,6.6552,6.6552,6.6187,6.5492,6.622,6.6552,6.6585,6.7314,6.6817,6.5492,6.5492,6.5492,6.5492,6.5492,6.5922,6.6552,6.6552,6.6552,6.6552,0.0,0.0,0.0,0.0,0.0,0.0,0.0,0.0,0.0,0.0,0.0,0.0,0.0,0.0,7.5264,7.4535,7.4303,7.4171,7.4171,7.4171,7.4171,7.4171,7.4171,7.4171,7.4171,7.4171,0.0,0.0,0.0,0.0,0.0,7.3144,7.2713,0.0,7.1951,7.1587,7.1355,7.0825,0.0,0.0,7.1189,7.1388,0.0,0.0,0.0,0.0,0.0,7.1057,7.0593,0.0,7.0229,6.9798,0.0,6.9798,6.9765,6.9533,6.95,6.9434,6.9235,0.0,0.0,0.0,0.0,0.0,6.9202,6.9202,6.9202,6.9202,6.9202,6.9202,6.9202,6.8771,6.8341,6.8109,6.7645,6.7314,6.7314,6.7512,6.7612,6.7612,6.7612,6.7811,6.8341,6.8407,6.8606,6.9136,6.9368,6.95,6.95,6.9666,6.9798,6.9798,6.9599,6.9235,6.8705,6.8506,6.8042,6.7314,6.7314,6.7214,6.7016,6.7214,6.7314,6.7347,6.7546,6.738,6.7016,6.7016,6.7016,6.7016,6.7016,6.7148,6.7314,6.7314,6.7314,6.7314,0.0,0.0,0.0,0.0,0.0,0.0,0.0,0.0,0.0,0.0,0.0,0.0,0.0,0.0,7.4635,7.4204,7.4171,7.4171,7.4171,7.4171,7.4171,7.4171,7.4171,7.4171,7.4171,7.4171,7.4171,7.4171,0.0,0.0,0.0,7.374,7.3376,7.3078,7.2647,7.2283,7.1985,7.1885,0.0,0.0,7.1819,0.0,0.0,7.2018,7.2018,0.0,0.0,0.0,7.1355,7.1355,7.1057,0.0,0.0,7.0262,7.0196,6.9898,6.9798,6.9798,6.9798,6.9798,6.9798,6.9798,0.0,0.0,6.9798,6.9798,6.9798,6.9798,6.9798,6.9798,6.9798,6.9434,6.9136,6.9136,6.8804,6.8407,6.8109,6.8341,6.8539,6.8539,6.8539,6.8705,6.9103,6.9136,6.9334,6.9765,6.9798,6.9798,6.9798,6.9798,6.9798,6.9798,6.95,6.9136,6.8672,6.8374,6.8042,6.7612,6.7612,6.7612,6.7645,6.7943,6.8076,6.8076,6.8407,6.8539,6.8539,6.8871,6.844,6.7612,6.7612,6.7811,6.8076,6.8076,6.8076,6.8076,0.0,0.0,7.8511,7.8511,7.7914,0.0,0.0,0.0,0.0,0.0,7.4337,7.4303,0.0,7.4204,7.4171,7.4171,7.4171,7.4171,7.4171,7.4171,7.4171,7.4171,7.4171,7.4171,7.4171,7.4171,7.4171,7.4171,0.0,0.0,0.0,7.4171,7.384,7.3243,7.3243,7.2846,7.2283,7.2945,0.0,7.225,7.225,7.225,0.0,0.0,7.225,7.225,7.225,7.2183,7.2117,7.2051,7.2018,0.0,0.0,0.0,0.0,7.0229,6.9997,6.9931,6.9931,6.9864,6.9798,6.9798,6.9798,0.0,6.9798,6.9798,6.9798,6.9798,6.9798,6.9798,6.9798,6.9798,6.9798,6.9798,6.9798,6.9566,6.8904,6.9368,6.9798,6.9798,6.9798,6.9798,6.9798,6.9798,6.9798,6.9798,6.9798,6.9798,6.9798,6.9798,6.9798,6.9798,6.9169,6.8804,6.8804,6.8175,6.7877,6.7877,6.7877,6.7877,6.7877,6.8606,6.8937,6.897,6.9699,7.003,7.0096,7.0759,6.9765,6.7877,6.7943,6.8341,6.8804,6.8804,6.8804,6.8804,7.9571,7.8941,7.8511,7.8511,0.0,0.0,0.0,0.0,0.0,0.0,7.5397,7.5065,0.0,7.4535,7.4171,7.4171,7.4171,7.4171,7.4171,7.4171,0.0,0.0,7.4171,7.4171,7.4171,7.4171,7.4171,7.4171,0.0,0.0,0.0,7.4171,7.4105,7.3972,7.3972,7.3873,7.374,7.3906,7.3873,7.374,7.374,0.0,7.374,7.374,7.374,7.374,7.374,7.3376,7.2813,7.2216,7.2018,7.1985,0.0,0.0,0.0,7.162,0.0,7.0693,7.0693,7.0262,6.9798,6.9798,6.9798,0.0,6.9798,6.9798,6.9798,6.9798,6.9798,6.9798,6.9798,6.9798,6.9798,6.9798,6.9798,6.9732,6.9599,6.9699,6.9798,6.9798,6.9798,6.9798,6.9798,6.9798,6.9798,6.9798,6.9798,6.9798,6.9798,6.9798,6.9798,6.9798,6.9666,6.9566,6.9566,6.9434,6.9368,6.9368,6.9368,6.9368,6.9401,7.0129,7.0461,7.0494,7.1256,7.1587,7.1587,7.172,7.0825,6.9434,7.003,6.9997,6.9566,6.9566,6.9566,6.9566,8.0299,7.9571,7.9074,7.9074,0.0,0.0,0.0,0.0,0.0,0.0,0.0,0.0,0.0,7.5463,7.5098,7.4767,7.4734,7.4568,7.4204,7.4171,0.0,0.0,7.4171,7.4171,7.4171,7.4171,7.4171,7.4171,0.0,0.0,0.0,7.4171,7.4171,7.4171,7.4171,7.4171,7.4171,7.4171,7.4171,7.4171,7.4171,0.0,7.4171,7.4171,7.4171,7.4171,7.4171,7.3939,7.3575,7.321,7.3078,0.0,7.2647,7.2548,7.2481,0.0,7.1753,7.1455,7.1455,7.0924,7.0361,7.0361,7.0063,0.0,0.0,6.9798,6.9798,6.9798,6.9798,6.9798,6.9798,6.9798,6.9798,6.9798,6.9798,6.9798,6.9798,6.9798,6.9798,6.9798,6.9798,6.9798,6.9798,6.9798,6.9798,6.9798,6.9798,6.9798,6.9798,6.9798,6.9798,6.9798,6.9798,6.9798,6.9798,6.9798,6.9798,6.9798,6.9798,6.9997,7.0361,7.0726,7.109,7.1455,7.1852,7.2018,7.2051,7.2415,7.1885,7.0924,7.1289,7.1223,7.0891,7.0891,7.0659,7.0361,8.1061,8.0332,7.9836,7.9836,0.0,0.0,0.0,0.0,0.0,0.0,0.0,7.6523,7.6523,7.639,7.6092,7.5529,7.5363,7.5032,7.4436,0.0,0.0,7.4171,7.4171,7.4171,7.4171,7.4171,7.4171,7.4171,0.0,0.0,7.4171,7.4171,7.4171,7.4171,7.4171,7.4171,0.0,0.0,0.0,7.4171,0.0,7.4303,7.4171,7.4171,7.4171,7.4171,7.4171,7.4171,7.4171,7.4171,7.4171,7.4072,7.3508,7.331,7.3177,7.2581,7.2316,7.2216,7.2216,7.1686,7.1123,7.1123,7.056,6.9997,0.0,0.0,0.0,6.9798,6.9798,6.9798,6.9798,6.9798,6.9798,6.9798,6.9798,6.9798,6.9798,6.9798,6.9798,6.9798,6.9798,6.9798,6.9798,6.9798,6.9798,6.9798,6.9798,6.9798,6.9798,6.9798,6.9798,6.9798,6.9798,6.9798,6.9798,6.9798,6.9864,6.9997,6.9997,7.0394,7.1123,7.1256,7.1653,7.2216,7.2349,7.2415,7.2448,7.2912,7.2746,7.2216,7.2051,7.1918,7.1786,7.162,7.1189,7.0693,8.1823,8.1061,8.0564,8.0564,0.0,0.0,0.0,7.8809,7.8345,0.0,7.7682,0.0,0.0,0.0,0.0,0.0,0.0,0.0,7.5165,0.0,7.4171,7.4171,7.4171,7.4171,7.4171,7.4171,7.4171,7.4171,7.4171,7.4171,7.4171,7.4171,7.4171,7.4171,7.4171,0.0,0.0,0.0,7.4171,0.0,7.49,7.4767,0.0,7.4171,7.4171,7.4171,7.4171,7.4171,7.4171,7.4171,7.4171,7.4171,7.4072,7.4038,7.4038,7.3939,7.3475,7.2978,7.2978,7.2448,7.1885,7.1885,7.1322,7.0792,7.0792,0.0,6.9798,6.9798,0.0,6.9798,6.9798,0.0,0.0,6.9798,6.9798,6.9798,6.9798,6.9798,6.9798,6.9798,6.9798,6.9798,6.9798,6.9798,6.9798,6.9798,6.9798,6.9798,6.9798,6.9798,6.9798,6.9798,6.9798,6.9798,6.9798,6.9798,7.0129,7.0792,7.0792,7.1156,7.1885,7.2548,7.2912,7.3011,7.3641,7.3939,7.3873,7.3343,7.3045,7.2912,7.225,7.162,7.0958,7.0295,6.9997,6.9931,8.2419,8.1492,8.0697,8.0697,0.0,0.0,7.8974,7.8709,7.8511,7.8511,7.8246,0.0,0.0,0.0,0.0,0.0,0.0,7.6324,0.0,0.0,7.5231,7.4833,0.0,0.0,0.0,7.4171,7.4171,7.4171,7.4171,7.4171,7.4171,7.4171,7.4171,7.4171,7.4171,0.0,7.48,0.0,7.5032,0.0,0.0,0.0,0.0,7.5397,7.5397,7.5397,7.5397,7.5397,7.5363,7.4933,7.48,7.4734,7.4303,7.4171,7.4171,7.4171,7.3972,7.374,7.374,7.321,7.2647,7.2647,7.2084,7.1554,7.1554,7.0958,7.0428,7.0428,0.0,0.0,0.0,0.0,0.0,0.0,6.9798,6.9798,6.9798,6.9798,6.9798,6.9798,6.9798,6.9798,6.9798,6.9798,6.9798,6.9798,6.9798,6.9798,6.9798,6.9798,6.9798,6.9798,6.9798,6.9997,7.0428,7.0428,7.0792,7.1554,7.1554,7.1918,7.2647,7.2978,7.3343,7.3707,7.3608,7.3541,7.3508,7.278,7.2481,7.2382,7.1653,7.1421,7.1488,7.1189,7.0792,7.0428,8.2221,8.1426,8.0697,8.0697,0.0,0.0,7.8544,7.8511,0.0,0.0,0.0,0.0,7.8511,7.8511,0.0,0.0,0.0,7.7185,0.0,0.0,7.6092,0.0,0.0,0.0,0.0,0.0,7.4668,7.4469,7.4469,7.437,7.4171,7.437,7.4469,7.4469,7.4668,7.5065,7.5562,0.0,0.0,7.6324,7.6523,7.6722,7.6887,7.6457,7.6324,7.6324,7.6324,7.6324,7.6225,7.5728,7.5562,7.5463,7.4933,7.4635,7.4469,7.4469,7.4337,7.4171,7.4171,7.3807,7.3409,7.3409,7.2846,7.2316,7.2316,7.172,7.1189,7.1189,7.0593,0.0,0.0,0.0,6.9798,6.9798,0.0,6.9798,6.9798,6.9798,6.9798,6.9798,6.9798,6.9798,6.9798,6.9798,6.9798,6.9798,6.9798,6.9798,6.9798,6.9798,6.9898,7.0096,7.0096,7.0461,7.1189,7.1189,7.1587,7.2316,7.2316,7.268,7.3376,7.321,7.3376,7.384,7.3111,7.2912,7.3045,7.2316,7.2117,7.225,7.1488,7.1521,7.1951,7.1554,7.1057,7.0593,8.0896,8.073,0.0,0.0,0.0,0.0,0.0,0.0,0.0,0.0,0.0,0.0,0.0,0.0,0.0,0.0,0.0,7.7417,7.7384,0.0,7.6291,0.0,0.0,7.6258,0.0,0.0,7.5894,7.5231,7.5231,7.4867,7.4204,7.49,7.5231,7.5264,7.5927,7.6258,7.6291,7.6291,7.6291,7.6357,7.7086,7.7815,7.8279,7.6854,7.6324,7.6324,7.6324,7.6324,7.6324,7.6291,7.6291,7.6258,7.6258,7.5794,7.5231,7.5231,7.4734,7.4171,7.4171,7.4138,7.4138,7.4138,7.3608,7.3078,7.3078,7.2481,7.1951,7.1951,7.1388,7.0858,7.0858,7.0262,6.9798,6.9798,6.9798,0.0,0.0,6.9798,6.9798,6.9798,6.9798,6.9798,6.9798,6.9798,6.9798,6.9798,6.9798,6.9798,6.9798,6.9798,7.0129,7.0825,7.0858,7.1223,7.1951,7.1951,7.2349,7.3078,7.3078,7.3442,7.4105,7.3442,7.3111,7.3111,7.2382,7.2448,7.3045,7.2316,7.2415,7.3011,7.225,7.1985,7.1819,7.0394,6.9864,6.9831,7.9471,7.9239,0.0,0.0,0.0,0.0,0.0,7.8511,0.0,0.0,0.0,0.0,0.0,0.0,7.8511,0.0,0.0,7.8146,7.8146,7.7914,0.0,0.0,0.0,7.6821,0.0,0.0,0.0,0.0,7.596,7.5827,7.5595,7.586,7.596,7.596,0.0,7.6589,0.0,0.0,0.0,0.0,0.0,7.8312,7.8477,7.798,7.7782,7.7782,7.7782,7.7782,7.7682,7.7219,7.7053,7.6954,7.6457,7.6159,7.596,7.596,7.5463,7.49,7.49,7.4535,7.4171,7.4171,7.4005,7.3807,7.3807,7.3243,7.2746,7.2746,7.215,7.162,7.162,7.1421,7.109,7.0593,7.0527,7.0361,0.0,6.9798,6.9798,6.9798,6.9798,6.9798,6.9798,6.9798,6.9798,6.9798,6.9798,6.9798,6.9798,7.0262,7.0626,7.0891,7.1355,7.1985,7.2713,7.2746,7.3111,7.3807,7.3807,7.3939,7.4171,7.3906,7.3807,7.3773,7.3045,7.2879,7.3045,7.2316,7.215,7.2349,7.2117,7.2018,7.1951,7.1455,7.1256,7.1256,7.9206,7.8908,7.8974,0.0,0.0,0.0,0.0,0.0,0.0,0.0,7.8511,0.0,7.8511,0.0,7.8511,0.0,7.8511,7.8511,7.8511,7.8511,0.0,7.7815,7.7815,0.0,0.0,0.0,0.0,0.0,7.6689,7.6556,7.6324,7.6589,7.6689,7.6722,0.0,7.7351,7.7815,0.0,7.808,0.0,0.0,7.8511,7.8511,7.8511,7.8511,7.8511,7.8511,7.8511,7.8444,7.798,7.7815,7.7715,7.7252,7.692,7.6689,7.6689,7.6192,7.5662,7.5662,7.5098,7.4568,7.4568,7.437,7.4171,7.4171,7.3807,7.3475,7.3475,7.2912,7.2382,7.2382,7.2183,7.1852,7.1355,7.1289,7.1024,0.0,7.0196,7.0096,6.9831,6.9798,6.9798,6.9798,6.9798,6.9798,6.9798,7.003,7.0196,7.0196,7.0891,7.1421,7.1686,7.215,7.2746,7.3475,7.3475,7.3707,7.4171,7.4171,7.4171,7.4171,7.3906,7.3807,7.374,7.3045,7.2879,7.3078,7.2581,7.2548,7.278,7.278,7.278,7.2713,7.2183,7.2018,7.2018,7.9968,7.9637,7.9405,7.8709,7.8544,0.0,0.0,0.0,7.8511,0.0,7.8511,7.8511,7.8511,7.8511,7.8511,7.8511,7.8511,0.0,7.8511,7.8511,0.0,0.0,7.8511,7.8511,7.8511,0.0,0.0,0.0,0.0,7.7119,7.6424,7.7152,7.745,7.7517,7.8212,0.0,7.8511,7.8511,7.8511,7.8511,7.8511,7.8511,7.8511,7.8511,7.8511,7.8511,7.8511,7.8511,7.8511,7.8511,7.8511,7.8511,7.8511,7.8047,7.745,7.745,7.6954,7.6357,7.6357,7.586,7.533,7.533,7.4767,7.4204,7.4204,7.4204,7.4171,7.4171,7.3641,7.3144,7.3144,7.2581,7.2117,7.2051,7.2018,7.1753,7.1057,7.0958,7.0693,6.9997,6.9898,6.9864,6.9798,6.9798,6.9798,6.9831,7.0494,7.0924,7.0958,7.1653,7.2382,7.3078,7.3144,7.3475,7.4171,7.4171,7.4171,7.4171,7.4171,7.4171,7.4138,7.3475,7.3144,7.3111,7.2415,7.2515,7.3144,7.3144,7.3575,7.4171,7.4171,7.4171,7.4005,7.2614,7.2117,7.2117,8.0598,8.0001,7.9571,7.9372,7.8875,7.8511,0.0,0.0,0.0,0.0,7.8511,7.8511,7.8511,7.8511,7.8511,7.8511,7.8511,0.0,0.0,0.0,0.0,7.8511,7.8511,7.8511,7.8511,7.8511,7.8444,7.8246,7.8246,7.8146,7.7947,7.8146,7.8246,7.8246,0.0,7.8511,7.8511,7.8511,7.8511,7.8511,7.8511,7.8511,7.8511,7.8511,7.8511,7.8511,7.8511,7.8511,7.8511,7.8511,7.8511,7.8511,7.8511,7.8378,7.8246,7.8246,7.7715,7.7119,7.7119,7.6589,7.6026,7.6026,7.5529,7.4999,7.4999,7.4568,7.4171,7.4171,7.4038,7.3906,7.3906,7.374,7.3442,7.2912,7.2382,7.1951,7.1753,7.172,7.1653,7.1455,7.1455,7.0991,6.9898,6.9798,7.003,7.056,7.0792,7.1123,7.1686,7.2415,7.2912,7.3111,7.3608,7.4005,7.4171,7.4171,7.4171,7.4171,7.4171,7.4171,7.4171,7.3972,7.3906,7.3906,7.3707,7.3707,7.3906,7.3906,7.3904,7.3899,7.3899,7.3764,7.3492,7.3368,7.3204,7.2967,8.1326,8.0598,8.0101,8.0101,7.9736,0.0,7.861,0.0,0.0,7.8511,7.8511,0.0,7.8511,7.8511,7.8511,7.8511,7.8511,0.0,7.8511,0.0,0.0,7.8511,7.8511,7.8511,7.8511,7.8511,0.0,7.8511,7.8511,7.8511,7.8511,7.8511,7.8511,7.8511,7.8511,7.8511,7.8511,7.8511,7.8511,7.8511,7.8511,7.8511,0.0,7.8511,7.8511,7.8511,7.8511,7.8511,7.8511,7.8511,7.8511,7.8511,7.8511,7.8511,7.8511,7.8511,7.8212,7.7914,7.7914,7.7351,7.6788,7.6788,7.6258,7.5728,7.5728,7.5397,7.4999,7.4701,7.4668,7.4535,7.4237,7.4171,7.4038,7.3641,7.321,7.2846,7.2548,7.2481,7.2382,7.2051,7.2018,7.1686,7.0825,7.0759,7.0924,7.1355,7.1686,7.2051,7.2481,7.3177,7.3575,7.3575,7.3972,7.4171,7.4171,7.4171,7.4171,7.4171,7.4171,7.4171,7.4171,7.4171,7.4171,7.4171,7.4171,7.4171,7.4171,7.4171,7.407,7.3797,7.3661,7.3422,7.311,7.3351,7.3318,7.3285,8.2055,8.1326,8.0829,8.0829,0.0,0.0,0.0,7.8742,0.0,7.8676,0.0,7.8511,7.8511,7.8511,7.8511,7.8511,0.0,7.8511,7.8511,7.8511,7.8511,7.8511,7.8511,7.8511,7.8511,7.8511,7.8511,7.8511,7.8511,7.8511,7.8511,7.8511,7.8511,7.8511,0.0,0.0,0.0,7.8511,7.8511,7.8511,7.8511,7.8511,7.8511,7.8511,7.8511,7.8511,7.8511,7.8511,7.8511,7.8511,7.8511,7.8511,7.8511,7.8511,7.8511,7.8511,7.8511,7.8511,7.8511,7.8047,7.755,7.755,7.702,7.6457,7.6457,7.639,7.6125,7.5529,7.5397,7.5198,7.4469,7.4237,7.4171,7.4171,7.4171,7.3972,7.3343,7.3243,7.3011,7.2349,7.2283,0.0,7.2283,7.2117,7.2051,7.215,7.2746,7.3144,7.3243,7.384,7.4171,7.4171,7.4171,7.4171,7.4171,7.4171,7.4171,7.4171,7.4171,7.4171,7.4171,7.4171,7.4171,7.4171,7.4171,7.4171,7.4171,7.4171,7.3968,7.3694,7.3318,7.3005,7.2827,7.2827,7.3005,7.3214,0.0,0.0,0.0,0.0,0.0,8.0598,8.0332,7.9802,7.9438,7.9438,7.8908,7.8511,7.8511,7.8511,7.8511,7.8511,7.8511,0.0,0.0,0.0,0.0,7.8511,7.8511,7.8511,7.8511,7.8511,7.8511,7.8511,7.8511,0.0,0.0,7.8511,7.8511,7.8511,0.0,0.0,7.8511,7.8511,7.8511,7.8511,7.8511,7.8511,7.8511,7.8511,7.8511,7.8511,7.8511,7.8511,7.8511,7.8511,7.8511,7.8511,7.8511,7.8511,7.8511,7.8511,7.8511,7.8511,7.8511,7.8444,7.8345,7.8345,7.7782,7.7219,7.7219,7.6755,7.6291,7.6159,7.6125,7.5927,7.5198,7.4568,7.4171,7.4171,7.4171,7.4138,7.4005,7.3972,7.3939,7.3807,7.3773,7.3773,7.3773,7.2713,7.225,7.2879,7.3045,7.3376,7.3939,7.4105,7.4171,7.4171,7.4171,7.4171,7.4171,7.4171,7.4171,7.4171,7.4171,7.4171,7.4171,7.4171,7.4171,7.4171,7.4171,7.4171,7.4171,7.4001,7.3558,7.3037,7.2721,7.2582,7.2615,7.2615,7.2615,7.2582,0.0,0.0,0.0,0.0,0.0,0.0,0.0,8.1227,8.0498,7.9736,7.9306,7.8941,7.8577,7.8511,7.8511,7.8511,7.8511,7.8511,7.8511,7.8511,7.8511,7.8511,7.8511,7.8511,7.8511,7.8511,7.8511,7.8511,7.8511,0.0,0.0,7.8511,7.8511,7.8511,0.0,7.8511,7.8511,7.8511,7.8511,7.8511,7.8511,7.8511,7.8511,7.8511,7.8511,7.8511,7.8511,7.8511,7.8511,7.8511,7.8511,7.8511,7.8511,7.8511,7.8511,7.8511,7.8511,7.8511,7.8511,7.8511,7.8511,7.8511,7.8246,7.798,7.798,7.7715,7.7351,7.6954,7.6887,7.6655,7.596,7.5529,7.5165,7.48,7.4734,7.4602,7.4204,7.4171,7.4171,7.4171,7.4171,7.4171,7.4171,7.3541,7.3276,7.3641,7.3674,7.3807,7.4138,7.4171,7.4171,7.4171,7.4171,7.4171,7.4171,7.4171,7.4171,7.4171,7.4171,7.4171,7.4171,7.4171,7.4171,7.4171,7.4171,7.407,7.4001,7.3558,7.3142,7.2932,7.2615,7.2508,7.2508,7.2508,7.2508,7.2508,0.0,8.2883,0.0,0.0,8.2883,0.0,8.2883,8.2419,8.1558,8.0266,7.9935,7.9637,7.9041,7.8974,7.8974,7.8974,7.8974,7.8908,7.8776,7.8742,7.8676,7.8544,7.8511,7.8511,7.8511,7.8511,7.8511,7.8511,7.8511,7.8511,7.8511,7.8511,7.8511,7.8511,7.8511,7.8511,7.8511,7.8511,7.8511,7.8511,7.8511,7.8511,7.8511,7.8511,7.8511,7.8511,7.8511,7.8511,7.8511,7.8511,7.8511,7.8511,7.8511,7.8511,7.8511,7.8511,7.8511,7.8511,7.8511,7.8511,7.8511,7.8511,7.8511,7.8511,7.8511,7.8511,7.8345,7.7782,7.7517,7.7252,7.6655,7.6424,7.6125,7.5595,7.5496,7.5231,7.4502,7.4403,7.4337,7.4204,7.4171,7.4171,7.4171,7.4171,7.4171,7.4171,7.4171,7.4171,7.4171,7.4171,7.4171,7.4171,7.4171,7.4171,7.4171,7.4171,7.4171,7.4171,7.4171,7.4171,7.4171,7.4171,7.4171,7.4171,7.4171,7.3866,7.3558,7.3142,7.2827,7.2827,7.2615,7.2508,7.2508,7.2508,7.2508,7.2508,0.0,0.0,0.0,0.0,0.0,0.0,8.2883,8.285,8.2519,8.1691,8.0995,8.0564,8.0498,8.0498,8.0498,8.0498,8.0498,8.02,7.9571,7.9537,7.9206,7.8544,7.8511,7.8511,7.8511,7.8511,7.8511,7.8511,7.8511,7.8511,7.8511,7.8511,7.8511,7.8511,7.8511,7.8511,7.8511,7.8511,7.8511,7.8511,7.8511,7.8511,7.8511,7.8511,7.8511,7.8511,7.8511,7.8511,7.8511,7.8511,7.8511,7.8511,7.8511,7.8511,7.8511,7.8511,7.8511,7.8511,7.8511,7.8511,7.8511,7.8511,7.8511,7.8511,7.8511,7.8511,7.8511,7.8444,7.7881,7.7384,7.7318,7.6755,7.6291,7.6225,7.6225,7.596,7.5264,7.5165,7.4933,7.4237,7.4171,7.4171,7.4171,7.4171,7.4171,7.4171,7.4171,7.4171,7.4171,7.4171,7.4171,7.4171,7.4171,7.4171,7.4171,7.4171,7.4171,7.4171,7.4171,7.4171,7.4171,7.4171,7.4171,7.4171,7.3968,7.3454,7.3037,7.2932,7.2721,7.2508,7.2508,7.2508,7.2508,7.2508,7.2508,7.2508,0.0,0.0,0.0,0.0,0.0,0.0,0.0,8.2883,8.2784,8.2486,8.1823,8.1194,8.073,8.0697,8.0697,8.0697,8.0697,8.0564,8.0266,8.0266,8.0134,7.9836,7.9836,7.9836,7.9836,7.9836,7.9836,7.9836,7.9836,7.9836,7.9802,7.9372,7.8941,7.8511,7.8511,7.8776,7.9173,7.9173,7.9438,7.9836,7.9836,7.9836,7.9836,7.9836,7.9836,7.9836,7.9836,7.9836,7.9836,7.9836,7.9239,7.8511,7.8511,7.8511,7.8511,7.8511,7.8511,7.8511,7.8511,7.8511,7.8511,7.8511,7.8511,7.8511,7.8511,7.8511,7.8511,7.8511,7.8279,7.808,7.808,7.7848,7.7484,7.7053,7.6987,7.6722,7.5993,7.5894,7.5794,7.5496,7.5098,7.4833,7.4833,7.4436,7.4171,7.4171,7.4171,7.4171,7.4171,7.4171,7.4171,7.4171,7.4171,7.4171,7.4171,7.4171,7.4171,7.4171,7.4171,7.4171,7.4171,7.407,7.3866,7.3628,7.3351,7.3142,7.2932,7.2721,7.2615,7.2508,7.2508,7.2508,7.2508,7.2508,7.2508,7.2508,8.444,0.0,8.4175,0.0,8.3546,8.3546,8.3546,8.3347,8.3215,8.3215,8.2585,8.1923,8.1393,8.1326,8.1326,8.1326,8.1326,8.1227,8.1028,8.1028,8.0929,8.0697,8.0697,8.0697,8.0697,8.0697,8.0697,8.0697,8.0697,8.0697,8.0664,8.0167,7.967,7.9173,7.9173,7.9438,7.9935,7.9935,8.0233,8.0697,8.0697,8.0697,8.0697,8.0697,8.0697,8.0697,8.0697,8.0697,8.0697,8.0697,8.0001,7.9173,7.9173,7.9007,7.8842,7.8842,7.8709,7.8511,7.8511,7.8511,7.8511,7.8511,7.8511,7.8511,7.8511,7.8511,7.8511,7.8511,7.8511,7.8511,7.8511,7.8511,7.8345,7.7815,7.7749,7.7484,7.6755,7.6622,7.6556,7.6324,7.5894,7.5595,7.5595,7.5098,7.4701,7.4502,7.4502,7.4403,7.4171,7.4171,7.4171,7.4171,7.4171,7.4171,7.4171,7.407,7.407,7.407,7.3968,7.3968,7.3935,7.3764,7.3454,7.3214,7.3005,7.2827,7.2827,7.2615,7.2638,7.2832,7.2832,7.2929,7.3124,7.3124,7.3124,7.3124,8.5103,8.5103,8.5103,8.507,8.507,8.507,8.507,8.4473,8.401,8.401,8.3347,8.2883,8.2883,8.2883,8.2883,8.2883,8.2883,8.2552,8.1823,8.179,8.1459,8.073,8.0697,8.0697,8.0697,8.0697,8.0697,8.0697,8.0697,8.0697,8.0697,8.0697,8.0664,8.0664,8.0664,8.0664,8.0664,8.0664,8.0697,8.0697,8.0697,8.0697,8.0697,8.0697,8.0697,8.0697,8.0697,8.0697,8.0697,8.0697,8.0664,8.0664,8.0664,8.0167,7.9604,7.9604,7.9107,7.8511,7.8511,7.8511,7.8511,7.8511,7.8511,7.8511,7.8511,7.8511,7.8511,7.8511,7.8511,7.8511,7.8511,7.8511,7.8511,7.8511,7.8511,7.8246,7.7517,7.7417,7.7119,7.639,7.6291,7.6291,7.6291,7.6291,7.5993,7.533,7.5264,7.4933,7.4204,7.4171,7.4171,7.4171,7.4171,7.4171,7.4171,7.4001,7.3797,7.3797,7.3422,7.3285,7.3285,7.3285,7.3214,7.2932,7.2932,7.2721,7.2508,7.2508,7.2929,7.3577,7.3577,7.3966,7.4548,7.4548,7.4548,7.4548,8.5931,8.5832,8.5666,8.5202,8.5103,8.5103,8.5103,8.4904,8.4771,8.4771,8.4573,8.4407,8.4407,8.3513,8.2883,8.2883,8.2883,8.2784,8.2552,8.2552,8.2453,8.2221,8.2188,8.2188,8.2188,8.2188,8.2188,8.2188,8.2188,8.1923,8.1459,8.1459,8.1161,8.0697,8.0697,8.0962,8.1459,8.1459,8.1724,8.2188,8.2188,8.2188,8.2188,8.2188,8.2188,8.2188,8.2188,8.2188,8.2188,8.2188,8.2188,8.2188,8.2188,8.1359,8.0366,8.0366,8.0167,8.0001,8.0001,7.9637,7.9272,7.9272,7.8908,7.8511,7.8511,7.8511,7.8511,7.8511,7.8511,7.8511,7.8511,7.8511,7.8511,7.8511,7.8511,7.8444,7.8212,7.8179,7.808,7.7848,7.7384,7.7053,7.7053,7.6622,7.6121,7.5713,7.568,7.5256,7.4237,7.4171,7.4171,7.4171,7.3968,7.3899,7.3899,7.3661,7.3422,7.3422,7.3318,7.3214,7.3037,7.3527,7.3649,7.3361,7.3815,7.4042,7.3933,7.3933,7.4063,7.4257,7.4257,7.4387,7.4581,7.4581,7.4581,7.4581,8.666,8.6593,8.6461,8.5997,8.5931,8.5931,8.5931,8.5699,8.55,8.55,8.5268,8.5103,8.5103,8.4275,8.3745,8.3745,8.3745,8.3745,8.3745,8.3745,8.3745,8.3745,8.3745,8.3745,8.3745,8.3745,8.3745,8.3745,8.3745,8.348,8.3016,8.2751,8.2386,8.1923,8.1624,8.179,8.2221,8.2221,8.2486,8.2883,8.2883,8.2883,8.2883,8.2883,8.2883,8.2883,8.2883,8.2883,8.2883,8.2883,8.2883,8.2883,8.2883,8.2254,8.1459,8.1194,8.0896,8.0697,8.0697,8.0366,8.0034,8.0034,7.967,7.9272,7.9007,7.8709,7.8511,7.8511,7.8511,7.8511,7.8511,7.8511,7.8511,7.8511,7.8511,7.8511,7.8511,7.8511,7.8511,7.8511,7.8113,7.7815,7.7815,7.7312,7.6809,7.6366,7.6227,7.5701,7.4757,7.4691,7.4691,7.4691,7.4483,7.4412,7.4412,7.4137,7.3926,7.3926,7.3788,7.3681,7.35,7.3955,7.4183,7.3998,7.4419,7.4581,7.4581,7.4581,7.4743,7.5002,7.5002,7.5196,7.5423,7.5423,7.5423,7.5423,8.7422,8.7422,8.7422,8.7355,8.7355,8.7322,8.7289,8.6693,8.6262,8.6262,8.5666,8.5268,8.5268,8.5268,8.5268,8.5268,8.5169,8.5103,8.5103,8.5103,8.5103,8.5103,8.5103,8.5103,8.5103,8.5103,8.5103,8.5103,8.5103,8.5103,8.5103,8.4407,8.4076,8.4043,8.3347,8.3049,8.3049,8.3049,8.3049,8.3049,8.3049,8.3049,8.3049,8.3049,8.3049,8.3049,8.3049,8.3049,8.3049,8.2983,8.2983,8.2983,8.2916,8.2883,8.2751,8.2088,8.1393,8.0829,8.0829,8.0796,8.0763,8.0763,8.073,8.0498,7.9836,7.914,7.861,7.861,7.8544,7.8511,7.8511,7.8511,7.8511,7.8511,7.8511,7.8511,7.8511,7.8511,7.8511,7.8511,7.8511,7.8511,7.8511,7.8296,7.7816,7.705,7.6768,7.6365,7.5602,7.5569,7.5537,7.5546,7.5546,7.5406,7.5406,7.519,7.5082,7.5082,7.4723,7.4581,7.4581,7.4646,7.4678,7.4678,7.471,7.4743,7.4743,7.4743,7.5164,7.5811,7.5811,7.62,7.6783,7.6783,7.6783,7.6783,8.8912,8.8912,8.8747,8.815,8.8051,8.7885,8.7355,8.7123,8.7024,8.7024,8.6858,8.6759,8.6759,8.6759,8.6759,8.6759,8.5732,8.5103,8.5103,8.5103,8.5103,8.5103,8.5103,8.5103,8.5103,8.5103,8.5103,8.5103,8.5103,8.5103,8.5103,8.4937,8.4838,8.4838,8.4672,8.4573,8.4573,8.4573,8.4573,8.4573,8.4573,8.4573,8.4573,8.4573,8.4573,8.4573,8.4573,8.4573,8.4506,8.3943,8.3745,8.3645,8.3082,8.2883,8.2883,8.2684,8.2519,8.2386,8.2386,8.1956,8.1525,8.1525,8.1094,8.0631,8.0465,7.9869,7.9372,7.9372,7.8908,7.8511,7.8511,7.8511,7.8511,7.8511,7.8511,7.8511,7.8511,7.8511,7.8511,7.8511,7.8511,7.8403,7.8188,7.8188,7.7796,7.7193,7.705,7.6874,7.6521,7.6521,7.6222,7.5578,7.5298,7.519,7.519,7.4832,7.4723,7.4723,7.4581,7.4581,7.4613,7.5196,7.5455,7.5488,7.6038,7.6265,7.6265,7.6265,7.6394,7.6556,7.6556,7.6653,7.6783,7.6783,7.6783,7.6783,8.9165,8.9165,8.9032,8.8879,8.8813,8.868,8.8316,8.825,8.825,8.825,8.825,8.8117,8.7786,8.7753,8.762,8.7322,8.656,8.6097,8.6097,8.6097,8.6097,8.6097,8.6097,8.6097,8.6097,8.6097,8.6097,8.6097,8.6097,8.6097,8.6097,8.5765,8.56,8.56,8.5268,8.5103,8.5103,8.5103,8.5103,8.5103,8.5103,8.5103,8.5103,8.5103,8.5103,8.5103,8.5103,8.5103,8.5037,8.4639,8.4506,8.444,8.4043,8.391,8.3844,8.3513,8.3148,8.2883,8.2883,8.2618,8.2287,8.2287,8.1757,8.1194,8.1194,8.0631,8.0101,8.0101,7.9537,7.9041,7.9041,7.8742,7.8511,7.8511,7.8511,7.8511,7.8511,7.8511,7.8403,7.8296,7.8296,7.8188,7.7938,7.7752,7.7532,7.7199,7.712,7.7008,7.6815,7.6783,7.6539,7.6092,7.5982,7.5871,7.5871,7.5728,7.5617,7.5617,7.5617,7.5617,7.5617,7.6038,7.62,7.6232,7.6621,7.6783,7.6783,7.6783,7.6783,7.6783,7.6783,7.6783,7.6783,7.6783,7.6783,7.6783,8.8999,8.9123,8.9215,8.9486,8.9453,8.9419,8.9442,8.9409,8.9409,8.9409,8.9409,8.9177,8.8548,8.8482,8.825,8.7654,8.7587,8.7521,8.7289,8.7289,8.7289,8.7289,8.7289,8.7289,8.7289,8.7289,8.7289,8.7289,8.7289,8.7289,8.7256,8.6627,8.6328,8.6328,8.5699,8.5434,8.5434,8.5434,8.5434,8.5434,8.5434,8.5434,8.5434,8.5434,8.5434,8.5434,8.5434,8.5434,8.5434,8.5302,8.5268,8.5268,8.5136,8.5103,8.5003,8.4341,8.3711,8.3181,8.295,8.2883,8.2883,8.2883,8.2419,8.1956,8.1956,8.1393,8.0863,8.0863,8.0299,7.9802,7.9802,7.9173,7.8709,7.8709,7.861,7.8511,7.8511,7.8511,7.8403,7.8079,7.8079,7.7862,7.761,7.7311,7.7199,7.7088,7.6896,7.6783,7.6783,7.6783,7.6783,7.6783,7.6783,7.6783,7.6783,7.6783,7.6783,7.6783,7.6783,7.6783,7.6783,7.6783,7.6783,7.6783,7.6783,7.6783,7.6783,7.6783,7.6783,7.6783,7.6783,7.6783,7.6783,7.6783,7.6783,7.6783,8.9804,9.0094,9.0186,8.9973,8.9874,8.9767,8.9509,8.9409,8.9409,8.9409,8.9409,8.9376,8.9244,8.9244,8.921,8.9078,8.9078,8.8581,8.7355,8.7289,8.7289,8.7289,8.7289,8.7289,8.7289,8.7289,8.7289,8.7289,8.7289,8.7289,8.7289,8.7157,8.709,8.709,8.6991,8.6958,8.6958,8.6958,8.6958,8.6958,8.6958,8.6958,8.6958,8.6958,8.6958,8.6958,8.6958,8.6958,8.6858,8.6229,8.5997,8.5898,8.5302,8.5103,8.5103,8.497,8.4871,8.4506,8.3248,8.2883,8.2883,8.2883,8.2817,8.2718,8.2718,8.2154,8.1624,8.1624,8.1028,8.0531,8.0531,7.9935,7.9471,7.9471,7.8941,7.8511,7.8511,7.8296,7.8188,7.8079,7.7829,7.761,7.7311,7.7199,7.7088,7.6896,7.6783,7.6783,7.6783,7.6783,7.6783,7.6783,7.6783,7.6783,7.6783,7.6783,7.6783,7.6783,7.6783,7.6783,7.6783,7.6783,7.6783,7.6783,7.6783,7.6783,7.6783,7.6783,7.6783,7.6783,7.6783,7.6783,7.6783,7.6783,7.6783,7.6783,8.9928,9.0032,9.0065,9.0284,9.0346,9.0374,9.0262,9.0354,9.0321,9.0569,9.0569,9.0436,9.0072,9.0006,8.984,8.9442,8.9409,8.9144,8.8482,8.8415,8.8415,8.8415,8.8415,8.8415,8.8415,8.8415,8.8415,8.8415,8.8415,8.8217,8.7852,8.7852,8.762,8.7289,8.7289,8.7289,8.7289,8.7289,8.7289,8.7289,8.7289,8.7289,8.7289,8.7289,8.7289,8.7289,8.7289,8.7289,8.7223,8.6892,8.6759,8.6693,8.6395,8.6262,8.6196,8.5798,8.5136,8.4374,8.3678,8.3215,8.2883,8.2883,8.2883,8.2883,8.2883,8.2651,8.2386,8.2386,8.179,8.1293,8.1293,8.0697,8.02,8.02,7.9902,7.9571,7.9173,7.889,7.8508,7.7894,7.761,7.7311,7.7008,7.7008,7.6896,7.6783,7.6783,7.6783,7.6783,7.6783,7.6783,7.6783,7.6783,7.6783,7.6783,7.6783,7.6783,7.6783,7.6783,7.6783,7.6783,7.6783,7.6783,7.6783,7.6783,7.6783,7.6783,7.6783,7.6783,7.6783,7.6783,7.6783,7.6783,7.6783,7.6783,7.6783,8.9723,8.9714,8.9831,9.0457,9.0554,9.0779,9.1126,9.1093,9.1219,9.1596,9.1596,9.1364,9.0834,9.0767,9.0536,8.9972,8.9906,8.9906,8.9906,8.9906,8.9774,8.9442,8.9409,8.9409,8.9409,8.9409,8.9409,8.9409,8.9409,8.9111,8.8581,8.8581,8.8184,8.7521,8.7521,8.7422,8.7289,8.7289,8.7289,8.7289,8.7289,8.7289,8.7289,8.7289,8.7289,8.7289,8.7289,8.7289,8.7289,8.7289,8.7289,8.7289,8.7289,8.7289,8.7157,8.6593,8.55,8.4473,8.4308,8.3711,8.3148,8.3148,8.3016,8.2883,8.2883,8.2883,8.2883,8.2883,8.2453,8.2055,8.2055,8.1459,8.0962,8.0962,8.0796,8.0498,7.9968,7.9375,7.8716,7.7937,7.7409,7.7008,7.6783,7.6783,7.6783,7.6783,7.6783,7.6783,7.6783,7.6783,7.6783,7.6783,7.6783,7.6783,7.6783,7.6783,7.6783,7.6783,7.6783,7.6783,7.6783,7.6783,7.6783,7.6783,7.6783,7.6783,7.6783,7.6783,7.6783,7.6783,7.6783,7.6783,7.6783,7.6783,7.6783,7.6783,8.9339,8.9762,9.0096,9.051,9.0647,9.0684,9.1065,9.1093,9.1219,9.1596,9.1596,9.1562,9.1496,9.1496,9.1496,9.143,9.143,9.143,9.143,9.143,9.0834,8.9475,8.9409,8.9409,8.9409,8.9409,8.9409,8.9409,8.9409,8.9376,8.9343,8.9343,8.8945,8.825,8.825,8.7885,8.7289,8.7289,8.7289,8.7289,8.7289,8.7289,8.7289,8.7289,8.7289,8.7289,8.7289,8.7289,8.7289,8.7289,8.7289,8.7289,8.7289,8.7289,8.7256,8.7223,8.6627,8.5865,8.5202,8.4473,8.391,8.391,8.3413,8.2883,8.2883,8.2883,8.2883,8.2883,8.285,8.2817,8.2817,8.2221,8.1724,8.1724,8.1128,8.0664,8.0631,7.9562,7.8691,7.8625,7.7511,7.6783,7.6783,7.6783,7.6783,7.6783,7.6783,7.6783,7.6783,7.6783,7.6783,7.6783,7.6783,7.6783,7.6783,7.6783,7.6783,7.6783,7.6783,7.6783,7.6783,7.6783,7.6783,7.6783,7.6783,7.6783,7.6783,7.6783,7.6783,7.6783,7.6783,7.6783,7.6783,7.6783,7.6783,7.6783,8.9523,8.9608,8.9934,9.0782,9.0499,9.0514,9.1011,9.0973,9.0966,9.1219,9.1471,9.1596,9.1596,9.1596,9.1596,9.1596,9.1596,9.1596,9.1596,9.1596,9.1331,9.0801,9.0767,9.0767,9.0767,9.0767,9.0767,9.0767,9.0767,9.0536,9.0105,9.0105,8.9707,8.8979,8.8979,8.8846,8.8614,8.8614,8.8614,8.8614,8.8614,8.8614,8.8614,8.8614,8.8614,8.8548,8.8084,8.7919,8.7852,8.7422,8.7289,8.7289,8.7289,8.7289,8.7289,8.7289,8.709,8.6792,8.6527,8.56,8.4672,8.4672,8.4142,8.3579,8.3579,8.3215,8.2883,8.2883,8.2883,8.2883,8.2883,8.2651,8.2486,8.2486,8.2254,8.1778,8.1203,8.0457,7.9757,7.9186,7.847,7.8111,7.8111,7.769,7.7431,7.7431,7.7042,7.6783,7.6783,7.6783,7.6783,7.6783,7.6783,7.6783,7.6783,7.6783,7.6783,7.6783,7.6783,7.6783,7.6783,7.6783,7.6783,7.6783,7.6783,7.6783,7.6783,7.6783,7.6783,7.6783,7.6783,7.6783,7.6783,7.6783,7.6783,7.6783,8.9511,8.9577,8.9717,9.066,9.0661,9.0518,9.1202,9.1109,9.1072,9.1455,9.1477,9.1596,9.1596,9.1596,9.1596,9.1596,9.1596,9.1596,9.1596,9.1596,9.1596,9.1596,9.1596,9.1596,9.1596,9.1596,9.1596,9.1596,9.1596,9.1331,9.0867,9.0867,9.0469,8.9774,8.9774,8.9641,8.9409,8.9409,8.9409,8.9409,8.9409,8.9409,8.9409,8.9409,8.9409,8.9343,8.8846,8.8647,8.8581,8.8117,8.7786,8.7587,8.7587,8.7455,8.7289,8.7289,8.7289,8.7289,8.7289,8.656,8.5732,8.55,8.4904,8.4341,8.4341,8.3778,8.3248,8.3248,8.3049,8.2883,8.2883,8.2883,8.2883,8.2883,8.2883,8.2605,8.1736,8.1245,8.0575,7.9708,7.9249,7.8888,7.8888,7.8435,7.8143,7.8143,7.7495,7.701,7.6815,7.6783,7.6783,7.6783,7.6783,7.6783,7.6783,7.6783,7.6783,7.6783,7.6783,7.6783,7.6783,7.6783,7.6783,7.6783,7.6783,7.6783,7.6783,7.6783,7.6783,7.6783,7.6783,7.6783,7.6783,7.6783,7.6783,7.6783,8.9053,8.9205,8.9443,9.0347,9.0795,9.1074,9.1506,9.1597,9.1826,9.2117,9.1808,9.1596,9.1596,9.1596,9.1596,9.1596,9.1596,9.1596,9.1596,9.1596,9.1596,9.1596,9.1596,9.1596,9.1596,9.1596,9.1596,9.1596,9.1596,9.1596,9.1596,9.1596,9.1198,9.0536,9.0536,9.0138,8.9442,8.9442,8.9442,8.9442,8.9442,8.9442,8.9442,8.9442,8.9442,8.9442,8.9442,8.9442,8.9409,8.9409,8.8912,8.8316,8.8316,8.7852,8.7289,8.7289,8.7289,8.7289,8.7289,8.7289,8.709,8.6362,8.5633,8.5103,8.5103,8.454,8.401,8.401,8.3413,8.2916,8.2916,8.2883,8.2883,8.2883,8.2883,8.277,8.2395,8.1574,8.0771,8.0392,7.9542,7.892,7.892,7.8888,7.8888,7.8888,7.824,7.7528,7.6848,7.6815,7.6815,7.6815,7.6783,7.6783,7.6783,7.6783,7.6783,7.6783,7.6783,7.6783,7.6783,7.6783,7.6783,7.6783,7.6783,7.6783,7.6783,7.6783,7.6783,7.6783,7.6783,7.6783,7.6783,7.6783,7.6783,7.6783,8.8532,8.9022,8.9416,9.0213,9.0536,9.0842,9.1462,9.1809,9.2155,9.2548,9.244,9.2358,9.2358,9.1894,9.1596,9.1596,9.1596,9.1596,9.1596,9.1596,9.1596,9.1596,9.1596,9.1596,9.1596,9.1596,9.1596,9.1596,9.1596,9.1596,9.1596,9.1596,9.1463,9.1264,9.1264,9.1132,9.0933,9.0933,9.0933,9.0933,9.0933,9.0933,9.0933,9.0933,9.0933,9.0867,9.037,9.0204,9.0105,8.9575,8.9277,8.9078,8.9078,8.8581,8.7985,8.7985,8.7654,8.7289,8.7289,8.7289,8.7223,8.6991,8.6395,8.5865,8.5865,8.5302,8.4771,8.4771,8.4208,8.3678,8.3678,8.3248,8.2883,8.2883,8.2656,8.2428,8.2198,8.1654,8.1173,8.082,8.0507,8.0378,8.0378,7.9957,7.9633,7.9633,7.8985,7.8467,7.8273,7.7787,7.7495,7.7495,7.7042,7.6783,7.6783,7.6783,7.6783,7.6783,7.6783,7.6783,7.6783,7.6783,7.6783,7.6783,7.6783,7.6783,7.6783,7.6783,7.6783,7.6783,7.6783,7.6783,7.6783,7.6783,7.6783,7.6783,8.8378,8.8716,8.9174,8.9898,9.0444,9.0919,9.1603,9.2111,9.2473,9.2873,9.294,9.2992,9.2992,9.2331,9.2026,9.2026,9.1761,9.1596,9.1596,9.1596,9.1596,9.1596,9.1596,9.1596,9.1596,9.1596,9.1596,9.1596,9.1596,9.1596,9.1596,9.1596,9.1596,9.1596,9.1596,9.1596,9.1596,9.1596,9.1596,9.1596,9.1596,9.1596,9.1596,9.1596,9.1596,9.1529,9.1099,9.0933,9.0867,9.0436,9.0105,8.9807,8.9509,8.9111,8.8747,8.8747,8.825,8.7687,8.7687,8.7488,8.7289,8.7289,8.6925,8.6627,8.6627,8.6063,8.5533,8.5533,8.4937,8.444,8.444,8.3844,8.3347,8.3347,8.2822,8.228,8.2083,8.1734,8.1381,8.1025,8.1025,8.1025,8.1025,8.0637,8.028,7.9989,7.9568,7.9212,7.892,7.8467,7.824,7.824,7.756,7.7204,7.7204,7.6945,7.6783,7.6783,7.6783,7.6783,7.6783,7.6783,7.6783,7.6783,7.6783,7.6783,7.6783,7.6783,7.6783,7.6783,7.6783,7.6783,7.6783,7.6783,7.6783,7.6783,8.8409,8.8563,8.8869,8.9659,9.0345,9.1229,9.1953,9.2403,9.2846,9.3286,9.3434,9.3366,9.3366,9.3092,9.2788,9.2788,9.2093,9.1662,9.1596,9.1596,9.1596,9.1596,9.1596,9.1596,9.1596,9.1596,9.1596,9.1596,9.1596,9.1596,9.1596,9.1596,9.1596,9.1596,9.1596,9.1596,9.1596,9.1596,9.1596,9.1596,9.1596,9.1596,9.1596,9.1596,9.1596,9.1596,9.1596,9.1596,9.1596,9.1596,9.1165,9.0502,8.984,8.9575,8.9509,8.9509,8.8979,8.8415,8.8415,8.7885,8.7355,8.7355,8.7322,8.7289,8.7289,8.6759,8.6262,8.6262,8.5699,8.5202,8.5202,8.4606,8.4109,8.4109,8.3103,8.2412,8.2065,8.1649,8.1381,8.1025,8.1025,8.1025,8.1025,8.1025,8.0766,8.0119,8.0054,7.9795,7.9115,7.9017,7.8985,7.8985,7.8273,7.7916,7.7916,7.7301,7.6912,7.6783,7.6783,7.6783,7.6783,7.6783,7.6783,7.6783,7.6783,7.6783,7.6783,7.6783,7.6783,7.6783,7.6783,7.6783,7.6783,7.6783,7.6783,7.6783,8.8378,8.8869,8.9205,8.9628,9.0377,9.1114,9.152,9.2506,9.3282,9.359,9.3922,9.4157,9.4157,9.3724,9.355,9.355,9.2888,9.2192,9.1629,9.1596,9.1596,9.1596,9.1596,9.1596,9.1596,9.1596,9.1596,9.1596,9.1596,9.1596,9.1596,9.1596,9.1596,9.1596,9.1596,9.1596,9.1596,9.1596,9.1596,9.1596,9.1596,9.1596,9.1596,9.1596,9.1596,9.1596,9.1596,9.1596,9.1596,9.1596,9.1463,9.1331,9.1165,9.0734,9.0271,9.0271,8.9774,8.9177,8.9177,8.8647,8.8084,8.8084,8.7687,8.7289,8.7289,8.7157,8.7024,8.7024,8.6461,8.5931,8.5931,8.5368,8.4755,8.4489,8.3629,8.2819,8.2497,8.162,8.1025,8.1025,8.1025,8.1025,8.1025,8.1025,8.0961,8.0799,8.0799,8.0734,8.0572,8.0054,7.973,7.973,7.905,7.8661,7.8661,7.8499,7.7884,7.6783,7.6783,7.6783,7.6783,7.6783,7.6783,7.6783,7.6783,7.6783,7.6783,7.6783,7.6783,7.6783,7.6783,7.6783,7.6783,7.6783,7.6783,7.6783,8.8991,8.9597,9.0079,9.0377,9.0967,9.152,9.1809,9.2666,9.3261,9.354,9.4176,9.4617,9.4617,9.4483,9.4179,9.3815,9.3451,9.2888,9.2159,9.2093,9.196,9.1596,9.1596,9.1596,9.1596,9.1596,9.1596,9.1596,9.1596,9.1596,9.1596,9.1596,9.1596,9.1596,9.1596,9.1596,9.1596,9.1596,9.1596,9.1596,9.1596,9.1596,9.1596,9.1596,9.1596,9.1596,9.1596,9.1596,9.1596,9.1596,9.1596,9.1596,9.1596,9.1331,9.1032,9.1032,9.0502,8.9939,8.9939,8.9409,8.8747,8.8415,8.8051,8.7687,8.7355,8.7289,8.7289,8.7289,8.6958,8.6693,8.6693,8.6097,8.5483,8.513,8.4268,8.3323,8.2672,8.2042,8.1414,8.1058,8.1025,8.1025,8.1025,8.1025,8.1025,8.1025,8.1025,8.1025,8.1025,8.0669,8.0475,8.0475,7.9795,7.9406,7.9406,7.905,7.8532,7.7787,7.7463,7.7269,7.7269,7.6945,7.6783,7.6783,7.6783,7.6783,7.6783,7.6783,7.6783,7.6783,7.6783,7.6783,7.6783,7.6783,7.6783,7.6783,8.9814,9.0533,9.0914,9.0936,9.152,9.2097,9.2097,9.284,9.3293,9.3433,9.4229,9.4874,9.5009,9.5046,9.4776,9.4047,9.3981,9.3649,9.2921,9.2888,9.2623,9.1993,9.196,9.1894,9.1761,9.1761,9.1728,9.1596,9.1596,9.1596,9.1596,9.1596,9.1596,9.1596,9.1596,9.1596,9.1596,9.1596,9.1596,9.1596,9.1596,9.1596,9.1596,9.1596,9.1596,9.1596,9.1596,9.1596,9.1596,9.1596,9.1596,9.1596,9.1596,9.1596,9.1596,9.1596,9.1165,9.0701,9.0701,9.0171,8.9442,8.8846,8.8581,8.8316,8.762,8.7355,8.7289,8.7289,8.7289,8.7289,8.7289,8.6759,8.6244,8.5887,8.4904,8.3857,8.3063,8.2506,8.2062,8.1479,8.1284,8.1155,8.1025,8.1025,8.1025,8.1025,8.1025,8.1025,8.1025,8.1025,8.1025,8.1025,8.0475,8.0151,8.0151,7.9568,7.9244,7.9244,7.8532,7.8111,7.7981,7.7269,7.6977,7.6977,7.6848,7.6783,7.6783,7.6783,7.6783,7.6783,7.6783,7.6783,7.6783,7.6783,7.6783,7.6783,9.0649,9.098,9.1212,9.1093,9.152,9.2097,9.2097,9.284,9.3433,9.3679,9.4333,9.5009,9.5276,9.564,9.5571,9.4809,9.4743,9.4445,9.3683,9.3649,9.3616,9.3484,9.3484,9.3186,9.2556,9.2556,9.2225,9.1596,9.1596,9.1596,9.1596,9.1596,9.1596,9.1596,9.1596,9.1596,9.1596,9.1596,9.1596,9.1596,9.1596,9.1596,9.1596,9.1596,9.1596,9.1596,9.1596,9.1596,9.1596,9.1596,9.1596,9.1596,9.1596,9.1596,9.1596,9.1596,9.1529,9.143,9.143,9.09,9.0337,9.0237,8.9741,8.9078,8.8349,8.772,8.7289,8.7289,8.7289,8.7289,8.7289,8.6951,8.6645,8.6249,8.5294,8.4528,8.4063,8.3422,8.3001,8.2904,8.2353,8.1705,8.109,8.1025,8.1025,8.1025,8.1025,8.1025,8.1025,8.1025,8.1025,8.1025,8.0928,8.0896,8.0896,8.0799,8.0734,8.0734,8.0021,7.9341,7.8726,7.8014,7.7657,7.7625,7.7042,7.6783,7.6783,7.6783,7.6783,7.6783,7.6783,7.6783,7.6783,7.6783,7.6783,7.6783,9.1695,9.2419,9.2794,9.2247,9.2845,9.3288,9.3013,9.354,9.3955,9.406,9.474,9.5276,9.5408,9.5706,9.5869,9.5538,9.5505,9.5206,9.4445,9.4411,9.4213,9.3815,9.3782,9.3649,9.3318,9.3318,9.2954,9.2192,9.1794,9.1596,9.1596,9.1596,9.1596,9.1596,9.1596,9.1596,9.1596,9.1596,9.1596,9.1596,9.1596,9.1596,9.1596,9.1596,9.1596,9.1596,9.1596,9.1596,9.1596,9.1596,9.1596,9.1596,9.1596,9.1596,9.1596,9.1596,9.1596,9.1596,9.1596,9.1364,9.1032,9.0635,9.0271,8.984,8.9111,8.868,8.825,8.7455,8.7289,8.7289,8.705,8.693,8.6689,8.6169,8.5662,8.5057,8.4264,8.394,8.3616,8.3227,8.2904,8.258,8.2256,8.1867,8.1641,8.1641,8.1252,8.1025,8.1025,8.1025,8.1025,8.1025,8.1025,8.1025,8.1025,8.1025,8.1025,8.1025,8.0701,8.0183,7.9471,7.8758,7.8402,7.8402,7.8111,7.7949,7.7949,7.7949,7.7722,7.7366,7.7366,7.7139,7.6783,7.6783,7.6783,7.6783]},{"header":{"parameterUnit":"m.s-1","parameterCategory":1,"la1":30.6,"la2":28.766,"lo1":-90.7593,"lo2":-88.6598,"dy":0.0162,"dx":0.0183,"nx":116,"ny":114,"refTime":"2024-01-31T18:00:00:Z","depth":0,"parameterNumber":3,"parameterNumberName":"V-component_of_WINDS"},"data":[0.0,0.0,0.0,0.0,0.0,0.0,0.0,0.0,0.0,0.0,0.0,0.0,0.0,0.0,0.0,0.0,0.0,0.0,0.0,0.0,0.0,0.0,0.0,0.0,0.0,0.0,0.0,0.0,0.0,0.0,0.0,0.0,0.0,0.0,0.0,0.0,0.0,0.0,0.0,0.0,0.0,0.0,0.0,0.0,0.0,0.0,0.0,0.0,0.0,0.0,0.0,0.0,0.0,0.0,0.0,0.0,0.0,0.0,0.0,0.0,0.0,0.0,0.0,0.0,0.0,0.0,0.0,0.0,0.0,0.0,0.0,0.0,0.0,0.0,0.0,0.0,0.0,0.0,0.0,0.0,0.0,0.0,0.0,0.0,0.0,0.0,0.0,0.0,0.0,0.0,0.0,0.0,0.0,0.0,0.0,0.0,0.0,0.0,0.0,0.0,0.0,0.0,0.0,0.0,0.0,0.0,0.0,0.0,0.0,0.0,0.0,0.0,0.0,0.0,0.0,0.0,0.0,0.0,0.0,0.0,0.0,0.0,0.0,0.0,0.0,0.0,0.0,0.0,0.0,0.0,0.0,0.0,0.0,0.0,0.0,0.0,0.0,0.0,0.0,0.0,0.0,0.0,0.0,0.0,0.0,0.0,0.0,0.0,0.0,0.0,0.0,0.0,0.0,0.0,0.0,0.0,0.0,0.0,0.0,0.0,0.0,0.0,0.0,0.0,0.0,0.0,0.0,0.0,0.0,0.0,0.0,0.0,0.0,0.0,0.0,0.0,0.0,0.0,0.0,0.0,0.0,0.0,0.0,0.0,0.0,0.0,0.0,0.0,0.0,0.0,0.0,0.0,0.0,0.0,0.0,0.0,0.0,0.0,0.0,0.0,0.0,0.0,0.0,0.0,0.0,0.0,0.0,0.0,0.0,0.0,0.0,0.0,0.0,0.0,0.0,0.0,0.0,0.0,0.0,0.0,0.0,0.0,0.0,0.0,0.0,0.0,0.0,0.0,0.0,0.0,0.0,0.0,0.0,0.0,0.0,0.0,0.0,0.0,0.0,0.0,0.0,0.0,0.0,0.0,0.0,0.0,0.0,0.0,0.0,0.0,0.0,0.0,0.0,0.0,0.0,0.0,0.0,0.0,0.0,0.0,0.0,0.0,0.0,0.0,0.0,0.0,0.0,0.0,0.0,0.0,0.0,0.0,0.0,0.0,0.0,0.0,0.0,0.0,0.0,0.0,0.0,0.0,0.0,0.0,0.0,0.0,0.0,0.0,0.0,0.0,0.0,0.0,0.0,0.0,0.0,0.0,0.0,0.0,0.0,0.0,0.0,0.0,0.0,0.0,0.0,0.0,0.0,0.0,0.0,0.0,0.0,0.0,0.0,0.0,0.0,0.0,0.0,0.0,0.0,0.0,0.0,0.0,0.0,0.0,0.0,0.0,0.0,0.0,0.0,0.0,0.0,0.0,0.0,0.0,0.0,0.0,0.0,0.0,0.0,0.0,0.0,0.0,0.0,0.0,0.0,0.0,0.0,0.0,0.0,0.0,0.0,0.0,0.0,0.0,0.0,0.0,0.0,0.0,0.0,0.0,0.0,0.0,0.0,0.0,0.0,0.0,0.0,0.0,0.0,0.0,0.0,0.0,0.0,0.0,0.0,0.0,0.0,0.0,0.0,0.0,0.0,0.0,0.0,0.0,0.0,0.0,0.0,0.0,0.0,0.0,0.0,0.0,0.0,0.0,0.0,0.0,0.0,0.0,0.0,0.0,0.0,0.0,0.0,0.0,0.0,0.0,0.0,0.0,0.0,0.0,0.0,0.0,0.0,0.0,0.0,0.0,0.0,0.0,0.0,0.0,0.0,0.0,0.0,0.0,0.0,0.0,0.0,0.0,0.0,0.0,0.0,0.0,0.0,0.0,0.0,0.0,0.0,0.0,0.0,0.0,0.0,0.0,0.0,0.0,0.0,0.0,0.0,0.0,0.0,0.0,0.0,0.0,0.0,0.0,0.0,0.0,0.0,0.0,0.0,0.0,0.0,0.0,0.0,0.0,0.0,0.0,0.0,0.0,0.0,0.0,0.0,0.0,0.0,0.0,0.0,0.0,0.0,0.0,0.0,0.0,0.0,0.0,0.0,0.0,0.0,0.0,0.0,0.0,0.0,0.0,0.0,0.0,0.0,0.0,0.0,0.0,0.0,0.0,0.0,0.0,0.0,0.0,0.0,0.0,0.0,0.0,0.0,0.0,0.0,0.0,0.0,0.0,0.0,0.0,0.0,0.0,0.0,0.0,0.0,0.0,0.0,0.0,0.0,0.0,0.0,0.0,0.0,0.0,0.0,0.0,0.0,0.0,0.0,0.0,0.0,0.0,0.0,0.0,0.0,0.0,0.0,0.0,0.0,0.0,0.0,0.0,0.0,0.0,0.0,0.0,0.0,0.0,0.0,0.0,0.0,0.0,0.0,0.0,0.0,0.0,0.0,0.0,0.0,0.0,0.0,0.0,0.0,0.0,0.0,0.0,0.0,0.0,0.0,0.0,0.0,0.0,0.0,0.0,0.0,0.0,0.0,0.0,0.0,0.0,0.0,0.0,0.0,0.0,0.0,0.0,0.0,0.0,0.0,0.0,0.0,0.0,0.0,0.0,0.0,0.0,0.0,0.0,0.0,0.0,0.0,0.0,0.0,0.0,0.0,0.0,0.0,0.0,0.0,0.0,0.0,0.0,0.0,0.0,0.0,0.0,0.0,0.0,0.0,0.0,0.0,0.0,0.0,0.0,0.0,0.0,0.0,0.0,0.0,0.0,0.0,0.0,0.0,0.0,0.0,0.0,0.0,0.0,0.0,0.0,0.0,0.0,0.0,0.0,0.0,0.0,0.0,0.0,0.0,0.0,0.0,0.0,0.0,0.0,0.0,0.0,0.0,0.0,0.0,0.0,0.0,0.0,0.0,0.0,0.0,0.0,0.0,0.0,0.0,0.0,0.0,0.0,0.0,0.0,0.0,0.0,0.0,0.0,0.0,0.0,0.0,0.0,0.0,0.0,0.0,0.0,0.0,0.0,0.0,0.0,0.0,0.0,0.0,0.0,0.0,0.0,0.0,0.0,0.0,0.0,0.0,0.0,0.0,0.0,0.0,0.0,0.0,0.0,0.0,0.0,0.0,0.0,0.0,0.0,0.0,0.0,0.0,0.0,0.0,0.0,0.0,0.0,0.0,0.0,0.0,0.0,0.0,0.0,0.0,0.0,0.0,0.0,0.0,0.0,0.0,0.0,0.0,0.0,0.0,0.0,0.0,0.0,0.0,0.0,0.0,0.0,0.0,0.0,0.0,0.0,0.0,0.0,0.0,0.0,0.0,0.0,0.0,0.0,0.0,0.0,0.0,0.0,0.0,0.0,0.0,0.0,0.0,0.0,0.0,0.0,0.0,0.0,0.0,0.0,0.0,0.0,0.0,0.0,0.0,0.0,0.0,0.0,0.0,0.0,0.0,0.0,0.0,0.0,0.0,0.0,0.0,0.0,0.0,0.0,0.0,0.0,0.0,0.0,0.0,0.0,0.0,0.0,0.0,0.0,0.0,0.0,0.0,0.0,0.0,0.0,0.0,0.0,0.0,0.0,0.0,0.0,0.0,0.0,0.0,0.0,0.0,0.0,0.0,0.0,0.0,0.0,0.0,0.0,0.0,0.0,0.0,0.0,0.0,0.0,0.0,0.0,0.0,0.0,0.0,0.0,0.0,0.0,0.0,0.0,0.0,0.0,0.0,0.0,0.0,0.0,0.0,0.0,0.0,0.0,0.0,0.0,0.0,0.0,0.0,0.0,0.0,0.0,0.0,0.0,0.0,0.0,0.0,0.0,0.0,0.0,0.0,0.0,0.0,0.0,0.0,0.0,0.0,0.0,0.0,0.0,0.0,0.0,0.0,0.0,0.0,0.0,0.0,0.0,0.0,0.0,0.0,0.0,0.0,0.0,0.0,0.0,0.0,0.0,0.0,0.0,0.0,0.0,0.0,0.0,0.0,0.0,0.0,0.0,0.0,0.0,0.0,0.0,0.0,0.0,0.0,0.0,0.0,0.0,0.0,0.0,0.0,0.0,0.0,0.0,0.0,0.0,0.0,0.0,0.0,0.0,0.0,0.0,0.0,0.0,0.0,0.0,0.0,0.0,0.0,0.0,0.0,0.0,0.0,0.0,0.0,0.0,0.0,0.0,0.0,0.0,0.0,0.0,0.0,0.0,0.0,0.0,0.0,0.0,0.0,0.0,0.0,0.0,0.0,0.0,0.0,0.0,0.0,0.0,0.0,0.0,0.0,0.0,0.0,0.0,0.0,0.0,0.0,0.0,0.0,0.0,0.0,0.0,0.0,0.0,0.0,0.0,0.0,0.0,0.0,0.0,0.0,0.0,0.0,0.0,0.0,0.0,0.0,0.0,0.0,0.0,0.0,0.0,0.0,0.0,0.0,0.0,0.0,0.0,0.0,0.0,0.0,0.0,0.0,0.0,0.0,0.0,0.0,0.0,0.0,0.0,0.0,0.0,0.0,0.0,0.0,0.0,0.0,0.0,0.0,0.0,0.0,0.0,0.0,0.0,0.0,0.0,0.0,0.0,0.0,0.0,0.0,0.0,0.0,0.0,0.0,0.0,0.0,0.0,0.0,0.0,0.0,0.0,0.0,0.0,0.0,0.0,0.0,0.0,0.0,0.0,0.0,0.0,0.0,0.0,0.0,0.0,0.0,0.0,0.0,0.0,0.0,0.0,0.0,0.0,0.0,0.0,0.0,0.0,0.0,0.0,0.0,0.0,0.0,0.0,0.0,0.0,0.0,0.0,0.0,0.0,0.0,0.0,0.0,0.0,0.0,0.0,0.0,0.0,0.0,0.0,0.0,0.0,0.0,0.0,0.0,0.0,0.0,0.0,0.0,0.0,0.0,0.0,0.0,0.0,0.0,0.0,0.0,0.0,0.0,0.0,0.0,0.0,0.0,0.0,0.0,0.0,0.0,0.0,0.0,0.0,0.0,0.0,0.0,0.0,0.0,0.0,0.0,0.0,0.0,0.0,0.0,0.0,0.0,0.0,0.0,0.0,0.0,0.0,0.0,0.0,0.0,0.0,0.0,0.0,0.0,0.0,0.0,0.0,0.0,0.0,0.0,0.0,0.0,0.0,0.0,0.0,0.0,0.0,0.0,0.0,0.0,0.0,0.0,0.0,0.0,0.0,0.0,0.0,0.0,0.0,0.0,0.0,0.0,0.0,0.0,0.0,0.0,0.0,0.0,0.0,0.0,0.0,0.0,0.0,0.0,0.0,0.0,0.0,0.0,0.0,0.0,0.0,0.0,0.0,0.0,0.0,0.0,0.0,0.0,0.0,0.0,0.0,0.0,0.0,0.0,0.0,0.0,0.0,0.0,0.0,0.0,0.0,0.0,0.0,0.0,0.0,0.0,0.0,0.0,0.0,0.0,0.0,0.0,0.0,0.0,0.0,0.0,0.0,0.0,0.0,0.0,0.0,0.0,0.0,0.0,0.0,0.0,0.0,0.0,0.0,0.0,0.0,0.0,0.0,0.0,0.0,0.0,0.0,0.0,0.0,0.0,0.0,0.0,0.0,0.0,0.0,0.0,0.0,0.0,0.0,0.0,0.0,0.0,0.0,0.0,0.0,0.0,0.0,0.0,0.0,0.0,0.0,0.0,0.0,0.0,0.0,0.0,0.0,0.0,0.0,0.0,0.0,0.0,0.0,0.0,0.0,0.0,0.0,0.0,0.0,0.0,0.0,0.0,0.0,0.0,0.0,0.0,0.0,0.0,0.0,0.0,0.0,0.0,0.0,0.0,0.0,0.0,0.0,0.0,0.0,0.0,0.0,0.0,0.0,0.0,0.0,0.0,0.0,0.0,0.0,0.0,0.0,0.0,0.0,0.0,0.0,0.0,0.0,0.0,0.0,0.0,0.0,0.0,0.0,0.0,0.0,0.0,0.0,0.0,0.0,0.0,0.0,0.0,0.0,0.0,0.0,0.0,0.0,0.0,0.0,0.0,0.0,0.0,0.0,0.0,0.0,0.0,0.0,0.0,0.0,0.0,0.0,0.0,0.0,0.0,0.0,-2.1109,-2.1109,0.0,0.0,0.0,0.0,0.0,0.0,0.0,0.0,0.0,0.0,0.0,0.0,0.0,0.0,0.0,0.0,0.0,0.0,0.0,0.0,0.0,0.0,0.0,0.0,0.0,0.0,0.0,0.0,0.0,0.0,0.0,0.0,0.0,0.0,-3.8574,-3.8574,-3.8574,-3.8574,-3.8574,-3.8574,-3.8555,-3.8125,-3.7695,-3.7285,0.0,0.0,0.0,0.0,0.0,0.0,0.0,0.0,0.0,0.0,0.0,0.0,0.0,0.0,0.0,0.0,0.0,0.0,0.0,0.0,0.0,0.0,0.0,0.0,0.0,0.0,0.0,0.0,0.0,0.0,0.0,0.0,0.0,0.0,0.0,0.0,0.0,0.0,0.0,0.0,0.0,0.0,0.0,0.0,0.0,0.0,0.0,0.0,0.0,0.0,0.0,0.0,0.0,0.0,0.0,0.0,0.0,0.0,0.0,0.0,0.0,0.0,0.0,0.0,0.0,0.0,0.0,0.0,0.0,0.0,-2.1235,-2.1109,0.0,0.0,0.0,0.0,0.0,0.0,0.0,0.0,0.0,0.0,0.0,0.0,0.0,0.0,0.0,0.0,0.0,0.0,0.0,0.0,0.0,0.0,0.0,-4.0859,-4.0605,-4.0527,-4.0195,-3.9805,0.0,0.0,0.0,0.0,0.0,-3.8574,-3.8574,-3.8574,-3.8574,-3.8574,-3.8574,-3.8574,-3.8574,-3.8574,-3.8203,-3.7519,-3.7441,0.0,0.0,0.0,0.0,0.0,0.0,0.0,0.0,0.0,0.0,0.0,0.0,0.0,0.0,0.0,0.0,0.0,0.0,0.0,0.0,0.0,0.0,0.0,0.0,0.0,0.0,0.0,0.0,0.0,0.0,0.0,0.0,0.0,0.0,0.0,0.0,0.0,0.0,0.0,0.0,0.0,0.0,0.0,0.0,0.0,0.0,0.0,0.0,0.0,0.0,0.0,0.0,0.0,0.0,0.0,0.0,0.0,0.0,0.0,0.0,0.0,0.0,0.0,-2.3015,-2.2606,-2.2606,-2.2355,-2.2104,-2.2104,-2.1488,-2.1235,-2.1235,-2.1235,0.0,0.0,0.0,0.0,0.0,0.0,0.0,0.0,0.0,0.0,0.0,0.0,0.0,0.0,0.0,0.0,0.0,0.0,0.0,0.0,0.0,-4.1113,-4.0937,-4.0566,-4.0469,-4.0254,-3.9824,0.0,-3.918,-3.9121,-3.8769,-3.8574,-3.8574,-3.8574,-3.8574,-3.8574,-3.8574,-3.8574,-3.8574,-3.8574,-3.8516,-3.8398,-3.8008,-3.7812,-3.7734,0.0,0.0,0.0,0.0,0.0,0.0,0.0,0.0,0.0,0.0,0.0,0.0,0.0,0.0,0.0,0.0,0.0,0.0,0.0,0.0,0.0,0.0,0.0,0.0,0.0,0.0,0.0,0.0,0.0,0.0,0.0,0.0,0.0,0.0,0.0,0.0,0.0,0.0,0.0,0.0,0.0,-2.8378,-2.8114,0.0,0.0,0.0,0.0,0.0,0.0,0.0,0.0,0.0,0.0,0.0,0.0,0.0,-2.4756,-2.4569,-2.4247,-2.391,-2.3588,-2.3267,-2.2856,-2.2606,-2.2606,-2.2355,-2.2104,-2.1992,0.0,-2.1978,-2.1978,0.0,0.0,0.0,0.0,0.0,0.0,0.0,0.0,0.0,0.0,0.0,0.0,0.0,0.0,0.0,0.0,0.0,0.0,0.0,0.0,0.0,-4.1327,-4.1094,-4.0898,-4.0879,-4.0703,-4.0273,-4.0059,-3.9726,-3.9219,-3.9023,-3.8809,-3.8574,-3.8574,-3.8574,-3.8574,-3.8574,-3.8574,-3.8574,-3.8574,-3.8574,-3.8574,-3.8379,-3.8164,-3.791,-3.7734,0.0,0.0,0.0,0.0,0.0,0.0,0.0,0.0,0.0,0.0,0.0,0.0,0.0,0.0,0.0,0.0,0.0,0.0,0.0,0.0,0.0,0.0,0.0,0.0,0.0,0.0,0.0,0.0,0.0,0.0,0.0,0.0,0.0,0.0,0.0,0.0,0.0,0.0,0.0,-3.0343,-3.0065,-2.9413,-2.8888,-2.8362,0.0,0.0,0.0,0.0,0.0,0.0,0.0,0.0,0.0,-2.5592,-2.5592,-2.5427,-2.5099,-2.477,-2.4441,-2.3843,-2.3518,-2.323,-2.2856,-2.2856,-2.2856,-2.2606,-2.2606,-2.2606,-2.2606,-2.223,-2.2104,-2.2118,0.0,0.0,0.0,0.0,-2.2104,-2.2355,0.0,0.0,0.0,0.0,0.0,0.0,0.0,0.0,0.0,0.0,0.0,0.0,-4.1773,-4.1463,-4.1327,-4.1172,-4.1074,-4.0879,-4.0547,-4.0312,-3.9883,-3.9238,-3.9101,-3.8887,-3.8574,-3.8574,-3.8574,-3.8574,-3.8574,-3.8574,-3.8574,-3.8574,-3.8574,-3.8574,-3.8574,-3.8398,-3.8086,-3.8086,-3.7656,-3.6992,0.0,0.0,0.0,0.0,0.0,0.0,0.0,0.0,0.0,0.0,0.0,0.0,0.0,0.0,0.0,0.0,0.0,0.0,0.0,0.0,0.0,0.0,0.0,0.0,0.0,0.0,0.0,0.0,0.0,0.0,0.0,0.0,0.0,0.0,0.0,0.0,0.0,-3.1635,-3.1377,-3.0825,-3.0325,-2.9691,0.0,0.0,0.0,0.0,0.0,0.0,-2.7451,-2.7067,-2.68,-2.68,-2.6666,-2.6408,-2.6028,-2.5467,-2.5001,-2.4359,-2.3938,-2.3604,-2.323,-2.323,-2.323,-2.3106,-2.3193,-2.3237,-2.3237,-2.2734,-2.2482,-2.2482,-2.2441,-2.2596,-2.2596,-2.2469,-2.2722,-2.2961,0.0,0.0,0.0,0.0,0.0,0.0,0.0,0.0,0.0,0.0,0.0,-4.2216,-4.1773,-4.1773,-4.1618,-4.1172,-4.0801,-4.0547,-4.0527,-3.9746,-3.9258,-3.9199,-3.8828,-3.8594,-3.8574,-3.8574,-3.8574,-3.8574,-3.8574,-3.8574,-3.8574,-3.8574,-3.8574,-3.8574,-3.8574,-3.8555,-3.8535,-3.8535,-3.8281,-3.7851,-3.7851,0.0,0.0,0.0,0.0,0.0,0.0,0.0,0.0,0.0,0.0,0.0,0.0,0.0,0.0,0.0,0.0,0.0,0.0,0.0,0.0,0.0,0.0,0.0,0.0,0.0,0.0,0.0,0.0,0.0,0.0,0.0,0.0,0.0,0.0,0.0,0.0,0.0,0.0,-3.1873,-3.1249,0.0,0.0,0.0,0.0,-2.9691,-2.9299,-2.9299,-2.9691,-2.9036,-2.8642,-2.8642,-2.7965,-2.7435,-2.7169,-2.6127,-2.551,-2.5092,-2.4421,-2.3852,-2.3604,-2.3604,-2.3355,-2.312,-2.3442,-2.3574,-2.3574,-2.3574,-2.3574,-2.3476,-2.3523,-2.3768,-2.3898,-2.3638,-2.3768,-2.3984,0.0,0.0,0.0,0.0,0.0,0.0,0.0,0.0,-4.2851,-4.2851,-4.2851,-4.2697,-4.2544,-4.1822,-4.1356,-4.1203,-4.0504,-4.0117,-4.0117,-3.9824,-3.9512,-3.9219,-3.9062,-3.8848,-3.8574,-3.8574,-3.8574,-3.8574,-3.8574,-3.8574,-3.8574,-3.8574,-3.8574,-3.8574,-3.8574,-3.8574,-3.8574,-3.8574,-3.832,-3.793,-3.793,-3.7578,0.0,0.0,0.0,0.0,0.0,0.0,0.0,0.0,0.0,0.0,0.0,0.0,0.0,0.0,0.0,0.0,0.0,0.0,0.0,0.0,0.0,0.0,0.0,0.0,0.0,0.0,0.0,0.0,0.0,0.0,0.0,0.0,0.0,0.0,0.0,0.0,0.0,-3.253,-3.2147,0.0,-3.1359,-3.0972,-3.0732,-3.0861,-3.0325,-2.9935,-2.9822,-2.8905,-2.8527,-2.8527,-2.7981,-2.7567,-2.7584,-2.6985,-2.6371,-2.5835,-2.537,-2.4772,-2.4247,-2.4247,-2.4119,-2.3735,-2.3866,-2.391,-2.3925,-2.413,-2.4101,-2.3925,-2.3912,-2.3956,-2.4086,-2.3956,-2.3956,-2.4071,0.0,0.0,0.0,0.0,0.0,0.0,0.0,0.0,-4.3157,-4.3157,-4.3157,-4.3157,-4.3004,-4.2281,-4.1642,-4.1337,-4.0518,-4.0033,-3.9902,-3.9609,-3.9375,-3.9199,-3.9355,-3.9316,-3.9023,-3.9023,-3.9023,-3.9023,-3.9023,-3.8945,-3.8789,-3.8789,-3.8711,-3.8574,-3.8574,-3.8574,-3.8574,-3.8574,-3.8418,-3.8144,-3.8144,-3.7891,-3.748,0.0,0.0,0.0,0.0,0.0,0.0,0.0,0.0,0.0,0.0,0.0,0.0,0.0,0.0,0.0,0.0,0.0,0.0,0.0,0.0,0.0,0.0,0.0,0.0,0.0,0.0,0.0,0.0,0.0,0.0,0.0,0.0,0.0,0.0,0.0,-3.3292,-3.3038,-3.2804,-3.253,-3.2275,-3.1891,-3.1763,-3.1891,-3.1359,-3.0843,-3.0714,-2.9691,-2.9185,-2.9053,-2.8378,-2.7981,-2.7849,-2.7376,-2.6937,-2.6399,-2.6068,-2.551,-2.4735,-2.4735,-2.4476,-2.4086,-2.4203,-2.4247,-2.4276,-2.4598,-2.4613,-2.4408,-2.4408,-2.4408,-2.4408,-2.4408,-2.4408,-2.4393,0.0,0.0,0.0,0.0,0.0,0.0,0.0,-4.3615,-4.3615,-4.3615,-4.3615,-4.3462,-4.3004,-4.3004,-4.2677,-4.1907,-4.096,-4.0334,-3.9902,-3.9082,-3.8789,-3.9199,-3.9648,-3.9902,-3.9902,-3.9902,-3.9902,-3.9902,-3.9902,-3.9668,-3.9219,-3.9199,-3.8984,-3.8594,-3.8574,-3.8574,-3.8574,-3.8574,-3.8574,-3.8574,-3.8574,-3.832,-3.7949,0.0,0.0,0.0,0.0,0.0,0.0,0.0,0.0,0.0,0.0,0.0,0.0,0.0,0.0,0.0,0.0,0.0,0.0,0.0,0.0,0.0,0.0,0.0,0.0,0.0,0.0,0.0,0.0,0.0,0.0,0.0,0.0,0.0,-3.3418,-3.3418,-3.3418,-3.3418,-3.3165,-3.2931,-3.2931,-3.2676,-3.2549,-3.2931,-3.2549,-3.2422,-3.2422,-3.1396,-3.075,-3.0378,-2.9333,-2.8675,-2.8395,-2.7654,-2.7084,-2.6692,-2.6342,-2.5798,-2.5153,-2.5153,-2.4765,-2.413,-2.4452,-2.4583,-2.4613,-2.492,-2.5052,-2.5052,-2.5052,-2.5052,-2.5052,-2.5052,-2.5052,-2.5008,0.0,0.0,0.0,0.0,0.0,0.0,-4.3615,-4.3615,-4.3615,-4.3615,-4.3615,-4.3615,-4.3462,-4.287,-4.2535,-4.2231,-4.1404,-4.0913,-4.0764,-4.0246,-3.9869,-3.9707,-3.9824,-3.9902,-3.9902,-3.9902,-3.9902,-3.9902,-3.9902,-3.9824,-3.9707,-3.9355,-3.9141,-3.9004,-3.8711,-3.8574,-3.8574,-3.8574,-3.8574,-3.8574,-3.8574,-3.8496,-3.8359,0.0,0.0,0.0,0.0,0.0,0.0,0.0,0.0,0.0,0.0,0.0,0.0,0.0,0.0,0.0,0.0,0.0,0.0,0.0,0.0,0.0,0.0,0.0,0.0,0.0,0.0,0.0,0.0,0.0,0.0,0.0,-3.4355,-3.4121,-3.3516,-3.3418,-3.3418,-3.3418,-3.3292,-3.3292,-3.3292,-3.3165,-3.3165,-3.3292,-3.2912,-3.253,-3.2019,-3.1249,-3.075,-3.0378,-3.0083,-2.9691,-2.943,-2.8935,-2.8377,-2.7851,-2.6962,-2.6253,-2.5855,-2.5589,-2.5189,-2.4788,-2.4876,-2.492,-2.4935,-2.5022,-2.5052,-2.5052,-2.5052,-2.5052,-2.5052,-2.5052,-2.5052,-2.5052,0.0,0.0,0.0,0.0,0.0,0.0,-4.3615,-4.3615,-4.3615,-4.3615,-4.3615,-4.3615,-4.3615,-4.3235,-4.2788,-4.2637,-4.2058,-4.1494,-4.1324,-4.1043,-4.0591,-4.0156,-4.0332,-4.043,-4.043,-4.043,-4.043,-4.043,-4.043,-4.0332,-4.0156,-3.9883,-3.9668,-3.9473,-3.9023,-3.8828,-3.8828,-3.8652,-3.8574,-3.8574,-3.8574,-3.8574,-3.8555,-3.8301,-3.8086,-3.7851,-3.7363,-3.6973,-3.6641,-3.6387,0.0,0.0,0.0,0.0,0.0,0.0,0.0,0.0,0.0,0.0,0.0,0.0,0.0,0.0,0.0,0.0,0.0,0.0,0.0,0.0,0.0,0.0,0.0,0.0,-3.4707,-3.4531,-3.4023,-3.3809,-3.3691,-3.3691,-3.3535,-3.3418,-3.3418,-3.3418,-3.3418,-3.3418,-3.3165,-3.2912,-3.2403,-3.1763,-3.1396,-3.1009,-3.0861,-3.0584,-3.0195,-2.9691,-2.9168,-2.8527,-2.7467,-2.6666,-2.6145,-2.5742,-2.5457,-2.5052,-2.5052,-2.5052,-2.5052,-2.5052,-2.5052,-2.5052,0.0,0.0,0.0,0.0,-2.5052,-2.5052,0.0,0.0,0.0,0.0,0.0,0.0,-4.3615,-4.3615,-4.3615,-4.3615,-4.3615,-4.3615,-4.3615,-4.3615,-4.3462,-4.3157,-4.2809,-4.2261,-4.1938,-4.1483,-4.1045,-4.0586,-4.0957,-4.1172,-4.1172,-4.1172,-4.1172,-4.1172,-4.1172,-4.0976,-4.0586,-4.0547,-4.0332,-3.9941,-3.9492,-3.9258,-3.918,-3.8809,-3.8613,-3.8574,-3.8574,-3.8574,-3.8574,-3.8574,-3.834,-3.7988,-3.7949,-3.7441,-3.6797,-3.6699,0.0,0.0,0.0,0.0,0.0,0.0,0.0,0.0,0.0,0.0,0.0,0.0,0.0,0.0,0.0,0.0,0.0,0.0,0.0,0.0,0.0,0.0,0.0,0.0,-3.4844,-3.4844,-3.4844,-3.4492,-3.418,-3.4082,-3.373,-3.3476,-3.3437,-3.3418,-3.3418,-3.3418,-3.3418,-3.3292,-3.2931,-3.2676,0.0,0.0,0.0,-3.1377,-3.0991,-3.0325,-2.9674,-2.8905,-2.7849,-2.6934,-2.613,-2.5727,-2.5457,-2.5052,-2.5052,-2.5052,-2.5052,-2.5052,-2.5052,-2.5052,-2.5052,-2.5052,-2.5052,-2.5052,-2.5052,-2.5052,0.0,0.0,0.0,0.0,0.0,0.0,-4.3677,-4.3615,-4.3615,-4.3615,-4.3615,-4.3615,-4.3615,-4.3615,-4.3615,-4.3462,-4.338,-4.3186,-4.2729,-4.2402,-4.1942,-4.1499,-4.1268,-4.1172,-4.1172,-4.1172,-4.1172,-4.1172,-4.1172,-4.1133,-4.1035,-4.0684,-4.0469,-4.0391,-3.9961,-3.9551,-3.9199,-3.9121,-3.8887,-3.8574,-3.8574,-3.8574,-3.8574,-3.8574,-3.8516,-3.8398,-3.8047,-3.7812,-3.7578,-3.6894,-3.6621,-3.6484,-3.6133,-3.6016,0.0,0.0,0.0,0.0,0.0,0.0,0.0,0.0,0.0,0.0,0.0,0.0,0.0,0.0,0.0,0.0,0.0,0.0,0.0,-3.5781,-3.5762,-3.5762,-3.5762,-3.541,-3.4863,-3.416,-3.4004,-3.3809,-3.3457,-3.3418,-3.3418,-3.3418,-3.3418,-3.3292,-3.2931,-3.2804,-3.2657,-3.2294,-3.253,-3.2403,-3.2019,-3.1377,-3.0714,-3.0048,-2.8362,0.0,-2.6532,-2.5861,-2.5457,-2.5052,-2.5052,-2.5052,-2.5052,-2.5052,-2.5052,-2.5052,-2.5052,-2.5052,-2.5052,-2.5052,-2.5052,-2.5052,0.0,0.0,0.0,0.0,0.0,0.0,-4.3677,-4.3615,-4.3615,-4.3615,-4.3615,-4.3615,-4.3615,-4.3615,-4.3615,-4.3615,-4.3615,-4.3462,-4.3004,-4.2851,-4.239,-4.1773,-4.1618,-4.1483,-4.1172,-4.1172,-4.1172,-4.1172,-4.1172,-4.1172,-4.1172,-4.0957,-4.084,-4.084,-4.0391,-4.0078,-3.9824,-3.9394,-3.9082,-3.8867,-3.8652,-3.8574,-3.8574,-3.8574,-3.8574,-3.8555,-3.832,-3.8105,-3.7851,-3.7441,-3.7012,-3.6641,-3.6406,-3.6191,-3.6016,0.0,0.0,0.0,0.0,0.0,0.0,0.0,0.0,0.0,0.0,0.0,0.0,0.0,0.0,-3.6016,-3.6016,0.0,-3.6016,-3.6016,-3.6016,-3.6016,-3.6016,-3.584,-3.5371,-3.4492,-3.4199,-3.3906,-3.3457,-3.3418,-3.3418,-3.3418,-3.3418,-3.3292,-3.3165,-3.3165,-3.3038,-3.2931,-3.3038,-3.3038,-3.2912,-3.2294,-3.1506,-3.0843,-2.9265,-2.8097,-2.7185,-2.6532,-2.5861,-2.5322,-2.5322,-2.5187,-2.5052,-2.5052,-2.5052,-2.5052,-2.5052,-2.5052,-2.5052,-2.5052,-2.5052,-2.5052,0.0,0.0,0.0,0.0,0.0,0.0,0.0,-4.3677,-4.3615,-4.3615,-4.3615,-4.3615,-4.3615,-4.3615,-4.3615,-4.3615,-4.3615,-4.3462,-4.3157,-4.3004,-4.2697,-4.1927,-4.1773,-4.1618,-4.1172,-4.1172,-4.1172,-4.1172,-4.1172,-4.1172,-4.1172,-4.1172,-4.1172,-4.1152,-4.0801,-4.0605,-4.0469,-3.9766,-3.9355,-3.918,-3.8975,-3.8798,-3.8574,-3.872,-3.872,-3.8574,-3.8574,-3.8359,-3.8027,-3.7949,-3.748,-3.6894,-3.6719,-3.6426,-3.6133,-3.6035,-3.6016,0.0,0.0,0.0,0.0,0.0,0.0,0.0,0.0,0.0,-3.6152,-3.6152,-3.6152,-3.6152,-3.6152,-3.6016,-3.6016,-3.6016,-3.6016,-3.6016,-3.6016,-3.6016,-3.5684,-3.4805,-3.4394,-3.3984,-3.3476,-3.3418,-3.3418,-3.3418,-3.3418,-3.3418,-3.3418,-3.3418,-3.3418,-3.3418,-3.3418,-3.3418,-3.3418,-3.2804,-3.2166,-3.1635,-3.0195,-2.902,-2.7833,-2.7185,-2.6398,-2.5592,-2.5457,-2.5322,-2.5052,-2.5052,-2.5052,-2.5052,-2.5052,-2.5052,-2.5052,-2.5052,-2.5052,-2.5052,0.0,0.0,0.0,0.0,0.0,0.0,0.0,0.0,-4.3615,-4.3615,-4.3615,-4.3615,-4.3615,-4.3615,-4.3615,-4.3615,-4.3615,-4.3615,-4.3615,-4.3157,-4.2851,-4.237,-4.1927,-4.1618,-4.1172,-4.1172,-4.1172,-4.1172,-4.1172,-4.1172,-4.1172,-4.1172,-4.1172,-4.1172,-4.1113,-4.0879,-4.0508,-4.041,-3.9922,-3.9199,-3.9603,-3.922,-3.8574,-3.903,-3.8865,-3.8574,-3.8574,-3.8555,-3.8437,-3.8047,-3.7851,-3.7656,-3.6914,-3.6641,-3.6523,-3.6133,-3.6016,-3.6016,-3.6016,-3.6268,-3.6384,-3.6384,-3.6674,-3.6944,0.0,0.0,-3.6944,-3.6944,-3.6674,-3.6384,-3.6384,-3.6132,-3.6016,-3.6016,-3.6016,-3.6016,-3.6016,-3.6016,-3.5684,-3.4805,-3.4668,-3.4316,-3.3496,-3.3418,-3.3418,-3.3418,-3.3418,-3.3418,-3.3418,-3.3418,-3.3418,-3.3418,-3.3418,-3.3418,-3.3418,-3.3038,-3.2676,-3.2294,-3.1249,-2.9952,-2.8642,-2.7965,-2.6918,-2.5592,-2.5337,-2.5187,-2.5052,-2.5052,-2.5052,-2.5052,-2.5052,-2.5052,-2.5052,-2.5052,-2.5052,-2.5052,0.0,0.0,0.0,0.0,0.0,0.0,0.0,0.0,0.0,-4.3656,-4.3615,-4.3615,-4.3615,-4.3615,-4.3615,-4.3615,-4.3615,-4.3615,-4.3615,-4.3157,-4.2851,-4.237,-4.2082,-4.1618,-4.1172,-4.1172,-4.1172,-4.1172,-4.1172,-4.1172,-4.1172,-4.1172,-4.1172,-4.1172,-4.1172,-4.1074,-4.0879,-4.0625,-4.0176,-3.959,-3.9781,-3.9406,-3.903,-3.9301,-3.9445,-3.9136,-3.872,-3.8574,0.0,-3.8359,-3.8125,-3.7851,-3.75,-3.707,-3.6641,-3.6445,-3.6211,-3.6016,-3.6016,-3.6268,0.0,0.0,-3.6789,-3.7079,-3.7079,-3.7079,-3.7079,-3.7079,-3.6944,-3.6809,-3.6809,-3.6539,-3.6268,0.0,-3.6152,-3.6016,-3.6016,-3.6016,-3.5684,-3.4805,-3.4707,-3.4355,-3.3496,-3.3418,-3.3418,-3.3418,-3.3418,-3.3418,-3.3418,-3.3418,-3.3418,-3.3418,-3.3418,-3.3418,-3.3418,-3.3292,-3.3038,-3.2676,-3.2038,-3.112,-2.9952,-2.9036,-2.7584,-2.5876,-2.5607,-2.5322,-2.5052,-2.5052,-2.5052,-2.5052,-2.5052,-2.5052,-2.5052,-2.5052,-2.5052,-2.5052,0.0,0.0,0.0,0.0,0.0,0.0,0.0,0.0,0.0,0.0,-4.3648,-4.376,-4.3615,-4.3615,-4.3615,-4.3615,-4.3615,-4.3615,-4.3615,-4.3157,-4.2851,-4.237,-4.2082,-4.1618,-4.1172,-4.1172,-4.1172,-4.1172,-4.1172,-4.1172,-4.1172,-4.1172,-4.1172,-4.1172,-4.1172,-4.1172,-4.1152,-4.0994,-4.0602,-4.0171,-4.0315,-4.0025,-3.9625,-3.9775,-3.9858,-3.957,-3.9136,-3.8865,-3.8865,-3.8865,-3.8649,-3.823,-3.8112,-3.7563,-3.6816,-3.6699,-3.6485,-3.6152,-3.6152,0.0,0.0,-3.6789,-3.7079,-3.7348,-3.7348,-3.7348,-3.7348,-3.7348,-3.7348,-3.7213,-3.7213,-3.6924,-3.6654,-3.6654,-3.6403,-3.6152,-3.6152,-3.6016,-3.5742,-3.498,-3.4883,-3.459,-3.3848,-3.3555,-3.3418,-3.3418,-3.3418,-3.3418,-3.3418,-3.3418,-3.3418,-3.3418,-3.3418,-3.3418,-3.3418,-3.3418,-3.3292,-3.3038,-3.2676,-3.2038,-3.1009,-2.9561,-2.7849,-2.6264,-2.5727,-2.5457,-2.5052,-2.5052,-2.5052,-2.5052,-2.5052,-2.5187,-2.5187,-2.5187,-2.5187,-2.5052,0.0,0.0,0.0,0.0,0.0,0.0,0.0,0.0,0.0,0.0,0.0,0.0,0.0,-4.3615,-4.3615,-4.3615,-4.3615,-4.3615,-4.3615,-4.3157,-4.2851,-4.237,-4.2082,-4.1618,-4.1172,-4.1172,-4.1172,-4.1172,-4.1172,-4.1172,-4.1172,-4.1172,-4.1172,-4.1172,-4.1172,-4.1172,-4.1172,-4.1618,-4.1495,-4.1059,-4.1373,-4.1056,-4.0318,-4.0329,-4.0022,-3.9714,-3.9714,-3.9714,-3.9714,-3.9714,-3.9425,-3.9076,-3.866,-3.7921,-3.7207,-3.6797,-3.6622,-3.6519,-3.6519,0.0,-3.7616,-3.7616,-3.7904,-3.8191,-3.8191,-3.8191,-3.8191,-3.8191,-3.7904,-3.7616,-3.7616,-3.7348,-3.7079,-3.7079,-3.6789,-3.6519,-3.6519,-3.6132,-3.5859,-3.543,-3.5371,-3.5176,-3.4707,-3.3906,-3.3418,-3.3418,-3.3418,-3.3418,-3.3418,-3.3418,-3.3418,-3.3418,-3.3418,-3.3418,-3.3418,-3.3418,-3.3418,-3.3418,-3.3038,-3.2403,-3.1249,-2.8888,-2.7318,-2.6666,-2.5861,-2.5457,-2.5052,-2.5052,-2.5052,-2.5052,-2.5052,-2.5322,-2.5592,-2.5592,-2.5322,-2.5187,0.0,0.0,0.0,0.0,0.0,0.0,0.0,0.0,0.0,0.0,0.0,0.0,0.0,0.0,0.0,0.0,-4.3615,-4.3615,-4.3615,-4.329,-4.2988,-4.2833,-4.2467,-4.2151,-4.2012,-4.1738,-4.1582,-4.1582,-4.1308,-4.1172,-4.1172,-4.1172,-4.1172,-4.1172,-4.1463,-4.1618,-4.1618,-4.2082,-4.1975,-4.1534,-4.1867,-4.1509,-4.0817,-4.111,-4.0864,-4.0433,0.0,-4.0146,-3.9714,-3.9714,-3.9445,-3.9156,-3.9266,-3.862,-3.7578,-3.7153,-3.7032,-3.6944,-3.6944,0.0,-3.7616,-3.7616,-3.7904,-3.8191,-3.8191,-3.8191,-3.8191,-3.8191,-3.8037,-3.8037,-3.8037,-3.7636,-3.7482,-3.7482,-3.6924,-3.6519,-3.6519,-3.6268,-3.5859,-3.5449,-3.5391,-3.5215,-3.4746,0.0,-3.4277,-3.4277,-3.4277,-3.4277,-3.4277,-3.4004,-3.3848,-3.3848,-3.3574,-3.3555,-3.3848,-3.3848,-3.4004,-3.4277,-3.3888,-3.3217,-3.2148,-3.0821,-2.9345,-2.7788,-2.7264,-2.6599,-2.5727,-2.5727,-2.5727,-2.5727,-2.5727,-2.5996,-2.6264,-2.6264,-2.6398,-2.6398,0.0,0.0,0.0,0.0,0.0,0.0,0.0,0.0,0.0,0.0,0.0,0.0,0.0,0.0,0.0,0.0,0.0,-4.4112,-4.4112,-4.3603,-4.3275,-4.3275,-4.2764,-4.2422,-4.2422,-4.2168,-4.2031,-4.2031,-4.1601,-4.1387,-4.1387,-4.125,-4.1327,-4.1483,-4.1618,-4.1927,-4.2082,-4.239,-4.2362,-4.2231,-4.2392,-4.203,-4.1501,-4.1628,-4.1276,0.0,-4.0882,-4.0576,-4.0146,-4.0146,-3.9878,-3.961,-3.9878,-3.9026,-3.7983,-3.755,-3.7305,-3.7213,-3.7213,-3.7482,-3.777,-3.777,-3.8037,-3.8191,-3.8191,-3.8191,-3.8191,-3.8191,-3.8191,-3.8191,-3.8191,-3.8037,-3.777,-3.777,-3.7348,-3.6924,-3.6924,-3.6539,-3.6169,-3.5894,-3.574,-3.5622,0.0,0.0,0.0,-3.4726,-3.4707,-3.4707,-3.4707,-3.4434,-3.4297,-3.4297,-3.4023,-3.4004,-3.4297,-3.4297,-3.4434,-3.4707,-3.4313,-3.3785,-3.297,-3.2168,-3.0798,-2.9227,-2.8837,-2.8044,-2.716,-2.716,-2.6962,-2.6703,-2.6703,-2.6894,-2.7185,-2.7185,-2.7584,-2.7981,0.0,0.0,0.0,0.0,0.0,0.0,0.0,0.0,0.0,0.0,0.0,0.0,0.0,0.0,0.0,0.0,0.0,0.0,-4.5002,-4.4193,-4.3718,-4.3718,-4.2961,-4.25,-4.25,-4.248,-4.2461,-4.2461,-4.2031,-4.1836,-4.1816,-4.1406,-4.1502,-4.1793,-4.1773,-4.2082,-4.2524,-4.2851,-4.3004,-4.2984,-4.2988,-4.2683,-4.2207,-4.1772,-4.1296,-4.0882,-4.0882,-4.0882,-4.0882,-4.0882,-4.0596,-4.031,-4.031,-3.9415,-3.8306,-3.8041,-3.7733,-3.7616,-3.7616,-3.7904,-3.8191,-3.8191,-3.8191,-3.8191,-3.8191,-3.8191,-3.8191,-3.8191,-3.8191,-3.8191,0.0,0.0,-3.8191,-3.8191,-3.7904,-3.7616,-3.7616,-3.7348,-3.6944,0.0,0.0,0.0,0.0,0.0,0.0,-3.4824,-3.4766,-3.4766,-3.4766,-3.4746,-3.4726,-3.4726,-3.4707,-3.4707,-3.4726,-3.4766,-3.4766,-3.4766,-3.4502,-3.4126,-3.3728,-3.2777,-3.1801,-3.109,-3.0446,-2.9763,-2.9061,-2.9061,-2.8575,-2.7861,-2.7861,-2.8057,-2.8428,-2.8428,-2.907,-2.9709,0.0,0.0,0.0,0.0,0.0,0.0,0.0,0.0,0.0,0.0,0.0,0.0,0.0,0.0,0.0,0.0,0.0,0.0,-4.4035,-4.388,-4.3738,-4.3738,-4.3549,-4.3379,-4.3379,-4.3066,-4.291,-4.291,-4.248,-4.2266,-4.2266,-4.1836,-4.1798,-4.2229,-4.2222,-4.2544,-4.2851,-4.331,-4.3462,-4.3462,-4.3491,-4.2952,-4.2249,-4.2124,-4.1586,-4.0882,-4.0882,-4.0882,-4.0882,-4.0882,0.0,0.0,-4.0002,-3.9536,-3.9101,-3.884,-3.8385,-3.8037,-3.8037,-3.8171,-3.8191,-3.8191,-3.8191,-3.8191,-3.8191,-3.8191,-3.8191,-3.8191,-3.8191,-3.8191,0.0,0.0,0.0,-3.8191,-3.7904,0.0,-3.7616,-3.7348,0.0,-3.6519,0.0,-3.6403,-3.6016,-3.6016,0.0,0.0,-3.5684,-3.5684,-3.5684,-3.5391,-3.5215,-3.5215,-3.4883,-3.4863,-3.5215,-3.5527,-3.5684,-3.5684,-3.5549,-3.5413,-3.5007,-3.4463,-3.3595,-3.2621,-3.2194,-3.1608,-3.0937,-3.0666,-3.0479,-3.0258,-3.0258,-3.0476,-3.081,-3.106,-3.1282,-3.1425,0.0,0.0,0.0,0.0,0.0,0.0,0.0,0.0,0.0,0.0,0.0,0.0,0.0,0.0,0.0,0.0,0.0,0.0,0.0,-4.4057,-4.4013,-4.4013,-4.3758,-4.3711,-4.3711,-4.3476,-4.3359,-4.3359,-4.293,-4.2715,-4.2695,-4.2285,-4.2289,-4.2721,-4.2637,-4.288,-4.331,-4.3462,-4.3615,0.0,0.0,-4.3077,-4.2249,-4.2249,-4.169,-4.0882,-4.0882,-4.0882,-4.0882,0.0,0.0,-4.0882,-4.0433,-3.9839,-3.9399,-3.926,0.0,-3.8191,-3.8191,-3.8191,-3.8191,-3.8191,-3.8191,-3.8191,-3.8191,-3.8191,-3.8191,-3.8191,-3.8191,-3.8191,-3.8191,-3.8191,0.0,0.0,0.0,0.0,-3.7904,-3.777,-3.7348,0.0,-3.6789,0.0,-3.6016,-3.6016,-3.6016,0.0,-3.6016,-3.6016,-3.6016,-3.5801,-3.5664,-3.5664,-3.541,-3.541,-3.5664,-3.5898,-3.6016,-3.6016,-3.6016,-3.5879,-3.5762,-3.5333,-3.4789,-3.4289,-3.3861,-3.3303,-3.2829,-3.2557,-3.2313,-3.2015,-3.2015,-3.2196,-3.232,-3.2454,-3.2707,-3.303,0.0,0.0,0.0,0.0,0.0,0.0,0.0,0.0,0.0,0.0,0.0,0.0,0.0,0.0,0.0,0.0,0.0,0.0,0.0,0.0,-4.437,-4.437,-4.3876,-4.3711,-4.3711,-4.3711,-4.3711,-4.3711,-4.334,-4.3164,-4.3144,-4.2715,-4.2604,-4.2978,-4.2917,-4.3123,-4.3462,-4.3462,-4.3462,-4.3615,-4.3615,-4.3077,-4.2249,0.0,-4.169,-4.0882,-4.0882,-4.0882,0.0,0.0,-4.0882,-4.0882,-4.0882,-4.0261,-3.9537,-3.9537,-3.8895,-3.8191,-3.8191,-3.8191,-3.8191,-3.8191,-3.8191,-3.8191,-3.8191,-3.8191,-3.8191,-3.8191,-3.8191,-3.8191,-3.8191,-3.8191,-3.8191,-3.8191,0.0,-3.8191,-3.8191,-3.8191,-3.7904,-3.7213,-3.7213,-3.6809,-3.6152,-3.6016,-3.6016,-3.6016,-3.6016,-3.6016,-3.6016,-3.6016,-3.6016,-3.6016,-3.6016,-3.6016,-3.6016,-3.6016,-3.6016,-3.6016,-3.6016,-3.6016,-3.6016,-3.5743,-3.5626,-3.5626,-3.5196,-3.4921,-3.4646,-3.4508,-3.4147,-3.3539,-3.3539,-3.3471,-3.3575,-3.3575,-3.3918,-3.4409,0.0,0.0,0.0,0.0,0.0,0.0,0.0,0.0,0.0,0.0,-4.4882,-4.5209,0.0,0.0,0.0,0.0,0.0,0.0,0.0,0.0,0.0,-4.3876,-4.3711,-4.3711,-4.3711,-4.3711,-4.3711,-4.3711,-4.3633,-4.3594,-4.3594,-4.3164,-4.3057,-4.3101,-4.2743,-4.2792,-4.3004,-4.2697,-4.2984,-4.3615,-4.331,-4.2775,-4.2249,-4.2249,0.0,0.0,-4.0882,0.0,0.0,0.0,-4.0882,-4.0882,-4.0882,-4.0261,-3.9537,-3.9537,-3.8895,-3.8191,-3.8191,-3.8191,-3.8191,-3.8191,-3.8191,-3.8191,-3.8191,-3.8191,0.0,-3.8191,-3.8191,-3.8191,-3.8191,-3.8191,-3.8191,-3.8191,0.0,0.0,0.0,0.0,-3.8037,0.0,0.0,0.0,0.0,0.0,0.0,0.0,-3.6016,-3.6016,-3.6016,-3.6016,-3.6016,-3.6016,-3.6016,-3.6016,-3.6016,-3.6016,-3.6016,-3.6016,-3.6016,-3.6016,-3.6016,-3.5879,-3.5879,-3.5879,-3.5879,-3.5743,-3.5743,-3.547,-3.5295,-3.5081,-3.5081,-3.5043,-3.5122,-3.5394,-3.5432,-3.514,0.0,0.0,0.0,0.0,0.0,0.0,0.0,0.0,-4.4041,-4.4041,-4.4205,-4.437,-4.4698,-4.4718,0.0,0.0,0.0,0.0,0.0,0.0,0.0,0.0,0.0,0.0,-4.3711,-4.3711,-4.3711,-4.3711,0.0,-4.3711,-4.3691,-4.3281,-4.3175,-4.3042,-4.2605,-4.2481,-4.2697,-4.2524,-4.2677,-4.3004,-4.3004,-4.2624,-4.1953,-4.2249,0.0,0.0,0.0,0.0,0.0,0.0,-4.0882,-4.0882,-4.0882,-4.0261,-3.9537,-3.9537,-3.8895,-3.8191,-3.8191,-3.8191,-3.8191,-3.8191,-3.8191,-3.8191,-3.8191,0.0,0.0,-3.8191,-3.8191,-3.8191,-3.8191,-3.8191,0.0,-3.8191,0.0,0.0,0.0,0.0,0.0,0.0,0.0,0.0,0.0,0.0,-3.6384,-3.6016,-3.6016,-3.6016,-3.6016,-3.6016,-3.6016,-3.6016,-3.6016,-3.6016,-3.6016,-3.6016,-3.6016,-3.6016,-3.6016,-3.6016,-3.6016,-3.6016,-3.6016,-3.6016,-3.6016,-3.6016,-3.6016,-3.5879,-3.5743,-3.5743,-3.5743,-3.5743,-3.5743,-3.5879,-3.5898,-3.5723,0.0,0.0,0.0,0.0,0.0,0.0,0.0,-4.3711,-4.3711,-4.3711,-4.3711,-4.3876,-4.4205,-4.4205,-4.4041,0.0,0.0,0.0,0.0,0.0,0.0,0.0,0.0,0.0,0.0,0.0,0.0,-4.3711,-4.3711,0.0,0.0,0.0,0.0,0.0,-4.2447,-4.2325,-4.2216,-4.2216,-4.2216,0.0,0.0,-4.2453,0.0,0.0,0.0,0.0,0.0,0.0,0.0,0.0,-4.0882,-4.0882,-4.0882,-4.0261,-3.9537,-3.9537,-3.8895,-3.8191,-3.8191,-3.8191,-3.8191,-3.8191,-3.8191,-3.8191,-3.8191,-3.8191,0.0,-3.8191,-3.8191,-3.8191,-3.8191,-3.8191,-3.8191,0.0,-3.8191,-3.8191,0.0,0.0,0.0,0.0,0.0,0.0,0.0,-3.6654,0.0,-3.6152,-3.6016,-3.6016,-3.6016,-3.6016,-3.6016,-3.6016,-3.6016,-3.6016,-3.6016,-3.6016,-3.6016,-3.6016,-3.6016,-3.6016,-3.6016,-3.6016,-3.6016,-3.6016,-3.6016,-3.6016,-3.6016,-3.6016,-3.6016,-3.6016,-3.6016,-3.6016,-3.6016,-3.6016,-3.6016,-3.6016,0.0,0.0,0.0,0.0,0.0,0.0,0.0,-4.3711,-4.3711,-4.3711,-4.3711,-4.3711,-4.3711,-4.3711,-4.3711,0.0,0.0,0.0,0.0,0.0,0.0,0.0,0.0,0.0,0.0,0.0,0.0,-4.3711,-4.3711,0.0,0.0,0.0,0.0,0.0,0.0,-4.1876,-4.1773,-4.1483,0.0,0.0,0.0,0.0,0.0,0.0,0.0,0.0,0.0,0.0,0.0,0.0,0.0,-4.0882,-4.0882,-4.0261,-3.9537,-3.9537,0.0,0.0,-3.8191,-3.8191,-3.8191,-3.8191,-3.8191,-3.8191,-3.8191,0.0,-3.8191,-3.8191,-3.8191,-3.8191,-3.8191,-3.8191,-3.8191,-3.8191,-3.8191,-3.8191,0.0,0.0,0.0,0.0,0.0,0.0,-3.7482,-3.7213,-3.6944,-3.6519,-3.6132,-3.6016,-3.6016,-3.6016,-3.6016,-3.6016,-3.6016,-3.6016,-3.6016,-3.6016,-3.6016,-3.6016,-3.6016,-3.6016,-3.6016,-3.6016,-3.6016,-3.6016,-3.6016,-3.6016,-3.6016,-3.6016,-3.6016,-3.6016,-3.6016,-3.6016,-3.6016,-3.6016,-3.6016,-3.6016,0.0,0.0,0.0,0.0,0.0,0.0,-4.3711,-4.3711,-4.3711,-4.3711,-4.3711,-4.3711,-4.3711,-4.3711,-4.3711,0.0,0.0,0.0,0.0,0.0,0.0,0.0,0.0,0.0,0.0,0.0,-4.3711,-4.3711,-4.3457,0.0,0.0,0.0,0.0,0.0,0.0,-4.1484,-4.1483,-4.1327,0.0,0.0,0.0,0.0,0.0,0.0,0.0,0.0,0.0,0.0,0.0,0.0,0.0,0.0,-4.0882,-4.0261,0.0,0.0,-3.8895,-3.8191,-3.8191,-3.8191,-3.8191,-3.8191,-3.8191,-3.8191,-3.8191,0.0,-3.8191,-3.8191,-3.8191,-3.8191,-3.8191,-3.8191,-3.8191,-3.8191,-3.8191,-3.8191,-3.8191,0.0,0.0,0.0,0.0,0.0,0.0,0.0,-3.6809,-3.6268,-3.6016,-3.6016,-3.6016,-3.6016,-3.6016,-3.6016,-3.6016,-3.6016,-3.6016,-3.6016,-3.6016,-3.6016,-3.6016,-3.6016,-3.6016,-3.6016,-3.6016,-3.6016,-3.6016,-3.6016,-3.6016,-3.6016,-3.6016,-3.6016,-3.6016,-3.6016,-3.6016,-3.6016,-3.6016,-3.6016,0.0,0.0,0.0,0.0,0.0,-4.3711,-4.3711,-4.3711,-4.3711,-4.3711,-4.3711,-4.3711,-4.3711,-4.3711,-4.3711,-4.3711,0.0,0.0,0.0,0.0,0.0,0.0,0.0,0.0,0.0,0.0,-4.3633,-4.3516,-4.3223,-4.3008,0.0,0.0,-4.1797,-4.1777,0.0,0.0,0.0,0.0,0.0,0.0,0.0,0.0,0.0,0.0,0.0,0.0,0.0,0.0,0.0,0.0,0.0,0.0,0.0,0.0,0.0,0.0,-3.8895,-3.8191,-3.8191,-3.8191,-3.8191,-3.8191,-3.8191,-3.8191,0.0,0.0,-3.8191,-3.8191,-3.8191,-3.8191,-3.8191,-3.8191,-3.8191,-3.8191,-3.8191,-3.8191,-3.8191,-3.8191,0.0,0.0,0.0,0.0,0.0,0.0,-3.6809,-3.6016,-3.6016,-3.6016,-3.6016,-3.6016,-3.6016,-3.6016,-3.6016,-3.6016,-3.6016,-3.6016,-3.6016,-3.6016,-3.6016,-3.6016,-3.6016,-3.6016,-3.6016,-3.6016,-3.6016,-3.6016,-3.6016,-3.6016,-3.6016,-3.6016,-3.6016,-3.6016,-3.6016,-3.6016,-3.6016,-3.6016,0.0,0.0,0.0,0.0,0.0,0.0,0.0,-4.3711,-4.3711,-4.3711,-4.3711,-4.3711,-4.3711,-4.3711,-4.3711,-4.3711,-4.3711,0.0,0.0,0.0,0.0,0.0,0.0,0.0,0.0,0.0,-4.3496,-4.3086,-4.3086,-4.2851,-4.2422,-4.1992,-4.1797,-4.1777,0.0,0.0,0.0,0.0,0.0,0.0,0.0,0.0,0.0,0.0,0.0,0.0,0.0,0.0,0.0,0.0,0.0,0.0,0.0,-4.0261,-3.9537,-3.9537,-3.8895,-3.8191,-3.8191,-3.8191,-3.8191,-3.8191,-3.8191,-3.8191,0.0,0.0,-3.8191,-3.8191,-3.8191,-3.8191,-3.8191,-3.8191,-3.8191,-3.8191,-3.8191,-3.8191,-3.8191,-3.8191,0.0,0.0,0.0,0.0,0.0,0.0,-3.6809,-3.6016,-3.6016,-3.6016,-3.6016,-3.6016,-3.6016,-3.6016,-3.6016,-3.6016,-3.6016,-3.6016,-3.6016,-3.6016,-3.6016,-3.6016,-3.6016,-3.6016,-3.6016,-3.6016,-3.6016,-3.6016,-3.6016,-3.6016,-3.6016,-3.6016,-3.6016,-3.6016,-3.6016,-3.6016,-3.6016,-3.6016,0.0,0.0,0.0,0.0,0.0,0.0,0.0,-4.3711,-4.3711,-4.3711,-4.3711,-4.3711,-4.3711,-4.3711,-4.3711,-4.3711,-4.3711,0.0,0.0,0.0,0.0,0.0,0.0,0.0,0.0,0.0,-4.3203,-4.3086,-4.25,-4.2129,-4.1992,-4.1562,-4.1367,-4.1367,-4.123,-4.1172,0.0,0.0,0.0,0.0,0.0,0.0,0.0,0.0,0.0,0.0,0.0,0.0,0.0,0.0,0.0,0.0,0.0,0.0,0.0,-3.9164,-3.8647,-3.8191,-3.8191,-3.8191,-3.8191,-3.8191,-3.8191,-3.8191,-3.8191,0.0,-3.8191,-3.8191,-3.8191,-3.8191,-3.8191,-3.8191,-3.8191,-3.8191,-3.8191,-3.8191,-3.8191,0.0,0.0,0.0,0.0,0.0,0.0,0.0,-3.6539,-3.6016,-3.6016,-3.6016,-3.6016,-3.6016,-3.6016,-3.6016,-3.6016,-3.6016,-3.6016,-3.6016,-3.6016,-3.6016,-3.6016,-3.6016,-3.6016,-3.6016,-3.6016,-3.6016,-3.6016,-3.6016,-3.6016,-3.6016,-3.6016,-3.6016,-3.6016,-3.6016,-3.6016,-3.6016,-3.6016,-3.6016,0.0,0.0,0.0,0.0,0.0,0.0,0.0,-4.3711,-4.3711,-4.3711,-4.3711,-4.3711,-4.3711,-4.3711,-4.3711,-4.3711,-4.3711,0.0,0.0,0.0,0.0,0.0,0.0,0.0,0.0,-4.3223,-4.293,-4.2598,-4.207,-4.1719,-4.1562,-4.1289,-4.1172,-4.1172,-4.1172,-4.1172,0.0,0.0,0.0,0.0,0.0,0.0,-4.0882,0.0,0.0,0.0,0.0,0.0,0.0,0.0,0.0,0.0,0.0,0.0,0.0,0.0,-3.8543,-3.8191,-3.8191,-3.8191,-3.8191,-3.8191,-3.8191,-3.8191,-3.8191,0.0,0.0,-3.8191,-3.8191,-3.8191,-3.8191,-3.8191,-3.8191,-3.8191,-3.8191,-3.8191,-3.8191,0.0,0.0,0.0,0.0,0.0,0.0,-3.6924,-3.6539,-3.6016,-3.6016,-3.6016,-3.6016,-3.6016,-3.6016,-3.6016,-3.6016,-3.6016,-3.6016,-3.6016,-3.6016,-3.6016,-3.6016,-3.6016,-3.6016,-3.6016,-3.6016,-3.6016,-3.6016,-3.6016,0.0,-3.6016,-3.6016,-3.6016,-3.6016,-3.6016,-3.6016,-3.6016,-3.6016,-3.6016,0.0,0.0,0.0,0.0,0.0,0.0,0.0,0.0,-4.3711,-4.3711,-4.3711,-4.3711,-4.3711,-4.3711,-4.3711,-4.3711,0.0,0.0,0.0,0.0,0.0,0.0,0.0,0.0,0.0,-4.3027,-4.2598,-4.1797,-4.1777,-4.1562,-4.1172,-4.1172,-4.1172,-4.1172,-4.1172,-4.1152,0.0,0.0,0.0,0.0,-4.098,-4.0822,0.0,0.0,0.0,0.0,0.0,0.0,0.0,0.0,0.0,0.0,0.0,0.0,0.0,0.0,0.0,0.0,0.0,-3.8191,-3.8191,-3.8191,-3.8191,-3.8191,-3.8191,0.0,0.0,0.0,0.0,-3.8191,-3.8191,-3.8191,-3.8191,-3.8191,-3.8191,-3.8191,-3.8191,-3.8191,0.0,0.0,0.0,0.0,0.0,-3.7079,-3.6809,-3.6016,-3.6016,-3.6016,-3.6016,-3.6016,-3.6016,-3.6016,-3.6016,-3.6016,-3.6016,-3.6016,-3.6016,-3.6016,-3.6016,-3.6016,-3.6016,-3.6016,-3.6016,-3.6016,-3.6016,-3.6016,-3.6016,-3.6016,-3.6016,-3.6016,-3.6016,-3.6016,-3.6016,-3.6016,-3.6016,-3.6016,0.0,0.0,0.0,0.0,0.0,0.0,0.0,0.0,0.0,0.0,-4.3711,-4.3711,-4.3711,-4.3711,-4.3711,0.0,0.0,0.0,0.0,0.0,0.0,0.0,0.0,0.0,0.0,-4.2441,-4.2012,-4.1797,-4.1484,-4.1269,-4.1172,-4.1172,-4.1172,-4.1172,-4.1172,-4.0996,0.0,0.0,0.0,0.0,-4.0202,-4.0391,0.0,0.0,0.0,0.0,-4.0882,-4.0882,0.0,0.0,0.0,0.0,0.0,0.0,0.0,0.0,-3.8274,-3.8191,-3.8191,0.0,-3.8191,-3.8191,-3.8191,-3.8191,0.0,0.0,0.0,0.0,0.0,-3.8191,-3.8191,-3.8191,-3.8191,-3.8191,-3.8191,-3.8191,-3.8191,0.0,0.0,0.0,0.0,0.0,0.0,-3.6789,-3.6403,-3.6016,-3.6016,-3.6016,-3.6016,-3.6016,-3.6016,-3.6016,-3.6016,-3.6016,-3.6016,-3.6016,-3.6016,-3.6016,-3.6016,-3.6016,-3.6016,-3.6016,-3.6016,-3.6016,-3.6016,-3.6016,-3.6016,-3.6016,-3.6016,-3.6016,-3.6016,-3.6016,-3.6016,-3.6016,-3.6016,-3.6016,0.0,0.0,0.0,0.0,0.0,0.0,0.0,0.0,0.0,0.0,0.0,0.0,0.0,0.0,0.0,0.0,0.0,0.0,0.0,0.0,0.0,0.0,0.0,-4.2988,-4.2773,-4.2129,-4.1699,-4.1504,-4.1289,-4.1172,-4.1172,-4.1172,-4.1172,-4.1172,-4.0957,-4.0742,0.0,0.0,0.0,0.0,-3.9895,0.0,0.0,0.0,0.0,0.0,-4.0882,-4.0882,0.0,-4.0882,-4.0593,-4.0158,0.0,0.0,0.0,0.0,-3.8191,-3.8191,-3.7904,-3.8037,-3.8191,-3.8191,-3.8191,-3.8191,-3.8191,0.0,0.0,0.0,0.0,0.0,-3.8191,0.0,0.0,-3.8191,-3.8191,-3.8191,0.0,0.0,0.0,0.0,0.0,0.0,0.0,-3.6654,-3.6384,-3.6016,-3.6016,-3.6016,-3.6016,-3.6016,-3.6016,-3.6016,-3.6016,-3.6016,-3.6016,-3.6016,-3.6016,-3.6016,-3.6016,-3.6016,-3.6016,-3.6016,-3.6016,-3.6016,-3.6016,-3.6016,-3.6016,-3.6016,-3.6016,-3.6016,-3.6016,-3.6016,-3.6016,-3.6016,-3.6016,-3.6016,0.0,0.0,0.0,0.0,0.0,0.0,0.0,0.0,0.0,0.0,0.0,0.0,0.0,0.0,0.0,0.0,0.0,0.0,0.0,0.0,0.0,0.0,0.0,-4.2812,-4.2441,-4.1953,-4.1523,-4.1172,-4.1172,-4.1172,-4.1172,-4.1172,-4.1172,-4.1152,-4.0723,-4.0488,0.0,0.0,0.0,0.0,-4.002,0.0,0.0,0.0,0.0,0.0,0.0,0.0,0.0,-4.08,-4.0489,-4.0034,-3.9578,0.0,0.0,0.0,0.0,0.0,-3.775,-3.777,-3.8037,-3.8037,-3.8037,-3.8058,-3.8058,0.0,0.0,0.0,0.0,0.0,0.0,0.0,0.0,0.0,0.0,0.0,0.0,0.0,0.0,0.0,0.0,0.0,-3.6654,-3.6519,-3.6268,-3.6016,-3.6016,-3.6016,-3.6016,-3.6016,-3.6016,-3.6016,-3.6016,-3.6016,-3.6016,-3.6016,-3.6016,-3.6016,-3.6016,-3.6016,-3.6016,-3.6016,-3.6016,-3.6016,-3.6016,-3.6016,-3.6016,-3.6016,-3.6016,-3.6016,-3.6016,-3.6016,-3.6016,-3.6016,-3.6016,-3.6016,0.0,0.0,0.0,0.0,0.0,0.0,0.0,0.0,0.0,0.0,0.0,0.0,0.0,0.0,0.0,0.0,0.0,0.0,0.0,0.0,0.0,-4.3711,-4.2949,-4.25,-4.2422,-4.166,-4.123,-4.1172,-4.1172,-4.1172,-4.1172,-4.1172,-4.1172,-4.1152,-4.101,-4.0749,-4.0373,0.0,0.0,-4.0268,-4.0187,0.0,0.0,0.0,0.0,0.0,0.0,0.0,0.0,-4.0448,-4.0034,-3.9558,-3.9102,0.0,0.0,0.0,0.0,0.0,-3.7616,-3.7482,-3.7213,-3.7213,-3.7482,-3.775,-3.775,0.0,0.0,0.0,0.0,0.0,0.0,0.0,0.0,0.0,0.0,0.0,0.0,0.0,0.0,0.0,0.0,-3.7079,-3.7079,-3.6403,-3.6016,-3.6016,-3.6016,-3.6016,-3.6016,-3.6016,-3.6016,-3.6016,-3.6016,-3.6016,-3.6016,-3.6016,-3.6016,-3.6016,-3.6016,-3.6016,-3.6016,-3.6016,-3.6016,-3.6016,-3.6016,-3.6016,-3.6016,-3.6016,-3.6016,-3.6016,-3.6016,-3.6016,-3.6016,-3.6016,-3.6016,-3.6016,0.0,0.0,0.0,0.0,0.0,0.0,0.0,0.0,0.0,0.0,0.0,0.0,0.0,0.0,0.0,0.0,0.0,0.0,0.0,0.0,0.0,-4.3711,-4.2891,-4.2422,-4.2422,-4.1601,-4.1172,-4.1172,-4.1172,-4.1172,-4.1172,-4.1172,-4.1172,-4.1152,-4.0907,-4.0643,-4.0405,-3.9898,-3.9935,-4.031,0.0,0.0,0.0,0.0,0.0,0.0,0.0,0.0,0.0,0.0,-4.0116,-3.9495,-3.9288,0.0,0.0,0.0,0.0,0.0,-3.7616,-3.7348,-3.7079,-3.6789,-3.7079,-3.7348,0.0,0.0,0.0,0.0,0.0,0.0,0.0,0.0,0.0,0.0,0.0,0.0,0.0,0.0,0.0,0.0,0.0,-3.6789,-3.6789,-3.6287,-3.6016,-3.6016,-3.6016,-3.6016,-3.6016,-3.6016,-3.6016,-3.6016,-3.6016,-3.6016,-3.6016,-3.6016,-3.6016,-3.6016,-3.6016,-3.6016,-3.6016,-3.6016,-3.6016,-3.6016,-3.6016,-3.6016,-3.6016,-3.6016,-3.6016,-3.6016,-3.6016,-3.6016,-3.6016,-3.6016,-3.6016,-3.6016,0.0,0.0,0.0,0.0,0.0,0.0,0.0,0.0,0.0,0.0,0.0,0.0,0.0,0.0,0.0,0.0,0.0,0.0,0.0,0.0,-4.3876,-4.3711,-4.2891,-4.2422,-4.2422,-4.1601,-4.1172,-4.1172,-4.1172,-4.1172,-4.1172,-4.1172,-4.1172,-4.1288,-4.0861,-4.0594,-4.0704,-3.9971,-3.9878,-4.0453,0.0,0.0,0.0,0.0,0.0,0.0,0.0,0.0,0.0,0.0,0.0,0.0,0.0,0.0,0.0,-3.8191,-3.8171,-3.8037,-3.7616,-3.7348,-3.7079,-3.6654,0.0,0.0,0.0,0.0,0.0,0.0,0.0,0.0,0.0,0.0,0.0,0.0,0.0,0.0,0.0,0.0,0.0,0.0,-3.7213,-3.6789,-3.6789,-3.6403,-3.6287,-3.6287,-3.6152,-3.6152,-3.6152,-3.6016,-3.6016,-3.6016,-3.6016,-3.6016,-3.6152,-3.6152,-3.6016,-3.6016,-3.6016,-3.6016,-3.6016,-3.6016,-3.6016,-3.6016,-3.6016,-3.6016,-3.6016,-3.6016,-3.6016,-3.6016,-3.6016,-3.6016,-3.6016,-3.6016,-3.6016,-3.6016,0.0,0.0,0.0,0.0,0.0,0.0,0.0,0.0,0.0,0.0,0.0,0.0,0.0,0.0,0.0,0.0,0.0,0.0,0.0,0.0,-4.4205,-4.3711,-4.2891,-4.2422,-4.2422,-4.1601,-4.1172,-4.1172,-4.1172,-4.1172,-4.1172,-4.1172,-4.1327,-4.1733,-4.1163,-4.1211,-4.1448,-4.0987,-4.0882,-4.0882,-4.0882,0.0,0.0,0.0,0.0,0.0,0.0,0.0,0.0,0.0,0.0,0.0,0.0,0.0,-3.8191,-3.8191,-3.7904,-3.7616,-3.7616,-3.7348,-3.7079,-3.7079,0.0,0.0,0.0,0.0,0.0,0.0,0.0,0.0,0.0,0.0,0.0,0.0,0.0,0.0,0.0,0.0,-3.8191,-3.8191,-3.777,-3.7482,-3.7482,-3.7213,-3.7079,-3.7079,-3.6654,-3.6519,-3.6519,-3.6132,-3.6016,-3.6016,-3.6016,-3.6132,-3.6519,-3.6519,-3.6268,-3.6016,-3.6016,-3.6016,-3.6016,-3.6016,-3.6016,-3.6016,-3.6016,-3.6016,-3.6016,-3.6016,-3.6016,-3.6016,-3.6016,-3.6016,-3.6016,-3.6016,-3.6016,-3.6016,0.0,0.0,0.0,0.0,0.0,0.0,0.0,0.0,0.0,0.0,0.0,0.0,0.0,0.0,0.0,0.0,0.0,0.0,0.0,-4.4698,-4.4718,-4.4554,-4.3678,-4.3221,-4.3221,-4.2052,-4.1618,-4.1927,-4.1927,-4.1927,-4.1927,-4.1927,-4.2082,-4.2196,-4.1898,-4.1773,-4.1616,-4.115,-4.1008,-4.0882,-4.0596,-4.074,0.0,0.0,0.0,0.0,0.0,0.0,0.0,0.0,-4.0344,-3.993,-3.9765,-3.9392,-3.9019,-3.9019,-3.8883,-3.8747,-3.8747,-3.861,-3.8336,-3.8336,0.0,0.0,0.0,0.0,0.0,0.0,0.0,0.0,0.0,0.0,0.0,0.0,0.0,0.0,0.0,-3.9019,-3.9019,-3.9019,-3.8747,-3.8473,-3.8473,-3.7924,-3.7648,-3.7648,-3.7213,-3.6936,-3.6936,-3.67,-3.6426,-3.6426,-3.6405,-3.6384,-3.6519,-3.6789,-3.6809,-3.6674,-3.6674,-3.6674,-3.6674,-3.6674,-3.6674,-3.6674,-3.6403,-3.6268,-3.6268,-3.6152,-3.6016,-3.6016,-3.6016,-3.6016,-3.6016,-3.6016,-3.6016,-3.6016,0.0,0.0,0.0,0.0,0.0,0.0,0.0,0.0,0.0,0.0,0.0,0.0,0.0,0.0,0.0,0.0,0.0,0.0,-4.5209,-4.5209,-4.5209,-4.5046,-4.4321,-4.3838,-4.3856,-4.2973,-4.2376,-4.237,-4.237,-4.237,-4.237,-4.237,-4.2524,-4.2524,-4.2383,-4.2086,-4.1785,-4.1334,-4.1008,-4.0882,-4.0596,-4.0596,0.0,0.0,0.0,0.0,0.0,0.0,0.0,0.0,-4.0593,-4.022,-4.022,-3.9909,-3.9537,-3.9537,-3.9537,-3.9537,-3.9399,-3.926,-3.9122,-3.8983,0.0,0.0,0.0,0.0,0.0,0.0,0.0,0.0,0.0,0.0,0.0,0.0,0.0,0.0,-3.9495,-3.9537,-3.9537,-3.9537,-3.926,-3.9122,-3.9122,-3.8705,-3.8427,-3.8427,-3.8007,-3.7867,-3.7867,-3.745,-3.7292,-3.7292,-3.7251,-3.7149,-3.7009,-3.728,-3.7489,-3.7502,-3.7502,-3.7348,-3.7079,-3.7079,-3.7079,-3.7079,-3.6809,-3.6654,-3.6654,-3.6403,-3.6287,-3.6287,-3.6152,-3.6132,-3.6132,-3.6016,-3.6016,-3.6016,0.0,0.0,0.0,0.0,0.0,0.0,0.0,0.0,0.0,0.0,0.0,0.0,0.0,0.0,0.0,0.0,0.0,0.0,-4.5719,-4.5719,-4.5535,-4.5046,-4.4603,-4.4321,-4.4351,-4.3922,-4.3298,-4.237,-4.237,-4.237,-4.237,-4.237,-4.2697,-4.2984,-4.2535,-4.2235,-4.2228,-4.1772,-4.1296,-4.0882,-4.0882,-4.0882,-4.0882,0.0,0.0,0.0,0.0,0.0,0.0,0.0,-4.0593,-4.0241,-4.0241,-3.993,-3.9558,-3.9558,-3.9558,-3.9419,-3.9122,-3.9281,-3.9419,-3.9142,0.0,0.0,0.0,0.0,0.0,0.0,0.0,0.0,0.0,0.0,0.0,0.0,0.0,0.0,-3.9558,-3.9558,-3.9558,-3.9558,-3.9558,-3.9558,-3.9558,-3.9558,-3.9558,-3.9558,-3.9142,-3.8983,-3.8983,-3.8705,-3.8566,-3.8566,-3.8566,-3.8482,-3.831,-3.831,-3.8221,-3.8191,-3.8191,-3.777,-3.7079,-3.7079,-3.7079,-3.7079,-3.7079,-3.7079,-3.7079,-3.7099,-3.7099,-3.7099,-3.6674,-3.6539,-3.6539,-3.6152,-3.6035,-3.6035,0.0,0.0,0.0,0.0,0.0,0.0,0.0,0.0,0.0,0.0,0.0,0.0,0.0,0.0,0.0,0.0,0.0,0.0,-4.6185,-4.6185,-4.6023,-4.5861,-4.5591,-4.5139,-4.4844,-4.4061,-4.3454,-4.331,-4.331,-4.331,-4.331,-4.331,-4.331,-4.3462,-4.3318,-4.2823,-4.2249,-4.2104,-4.1607,-4.0882,-4.0882,-4.0882,-4.0882,0.0,0.0,0.0,0.0,0.0,0.0,0.0,0.0,0.0,-4.0675,-4.0593,-4.0489,-4.0489,-4.0489,-4.0468,-4.0327,0.0,0.0,0.0,0.0,0.0,0.0,0.0,0.0,0.0,0.0,0.0,0.0,0.0,0.0,0.0,0.0,-4.0137,-4.0427,-4.0489,-4.0489,-4.0489,-4.0489,-4.0489,-4.0489,-4.0206,-4.0064,-4.0064,-3.976,-3.9475,-3.9475,-3.9192,-3.8869,-3.8869,-3.8867,-3.8783,-3.8779,-3.9055,-3.9131,-3.9144,-3.9144,-3.8656,-3.7904,-3.7904,-3.7904,-3.7904,-3.7616,-3.7665,-3.799,-3.8041,-3.8024,-3.8024,-3.8024,-3.7886,-3.7886,-3.7748,-3.7748,-3.7748,0.0,0.0,0.0,0.0,0.0,0.0,0.0,0.0,0.0,0.0,-4.7796,-4.7424,0.0,0.0,0.0,0.0,0.0,0.0,0.0,-4.6347,-4.6347,-4.6347,-4.6099,-4.5643,-4.5002,-4.4256,-4.3801,-4.3615,-4.3615,-4.3615,-4.3615,-4.3615,-4.3615,-4.3615,-4.3615,-4.3201,-4.2518,-4.2331,-4.1835,-4.1131,-4.0944,-4.0882,-4.0882,0.0,0.0,0.0,0.0,0.0,0.0,0.0,0.0,0.0,-4.0882,-4.0882,-4.0882,-4.0882,-4.0882,-4.0882,-4.074,0.0,0.0,0.0,0.0,0.0,0.0,0.0,0.0,0.0,0.0,0.0,0.0,0.0,0.0,0.0,-4.0489,-4.0572,-4.0841,-4.0882,-4.0882,-4.0882,-4.0882,-4.0882,-4.0882,-4.074,-4.0596,-4.0596,-4.0289,-4.0146,-4.0146,-3.9902,-3.976,-3.976,-3.9777,-3.9713,-3.9528,-3.9667,-3.9723,-3.9537,-3.9537,-3.9247,-3.873,-3.873,-3.8626,-3.846,-3.8356,-3.8466,-3.8733,-3.8861,-3.8844,-3.8844,-3.8705,-3.8705,-3.8705,-3.8566,-3.8566,-3.8427,0.0,0.0,-4.9059,-4.9017,0.0,0.0,0.0,0.0,0.0,0.0,-4.7941,-4.7506,0.0,0.0,0.0,0.0,0.0,0.0,0.0,0.0,-4.6347,-4.6347,-4.6306,-4.5892,-4.5064,-4.4567,-4.4091,-4.3677,-4.3635,-4.3615,-4.3615,-4.3615,-4.3615,-4.3615,-4.3615,-4.3346,-4.289,-4.2497,-4.2021,-4.1524,-4.111,-4.0924,-4.0882,-4.0882,0.0,0.0,0.0,0.0,0.0,0.0,0.0,0.0,-4.0882,-4.0882,-4.0882,-4.0882,-4.0882,-4.0882,0.0,0.0,0.0,0.0,0.0,0.0,0.0,0.0,0.0,0.0,0.0,0.0,0.0,0.0,0.0,-4.0882,-4.0882,-4.0882,-4.0882,-4.0882,-4.0882,-4.0882,-4.0882,-4.0882,-4.0882,-4.0882,-4.0882,-4.0882,-4.0882,-4.0882,-4.0882,-4.0882,-4.0882,-4.0882,-4.0882,-4.0696,-4.0303,-4.0282,-4.0075,-3.9661,-3.9661,-3.964,-3.9599,-3.9558,-3.9309,-3.8937,-3.9392,-3.9599,-3.9599,-3.964,-3.9661,-3.9661,-3.9245,-3.9245,-3.9106,-3.8827,-3.8687,-3.8687,0.0,0.0,-4.8955,-4.8583,0.0,0.0,0.0,0.0,0.0,0.0,0.0,0.0,0.0,0.0,0.0,0.0,0.0,0.0,0.0,0.0,-4.6347,-4.6347,-4.6016,-4.5726,-4.554,-4.4733,-4.4256,-4.4153,-4.378,-4.3615,-4.3615,-4.3615,-4.3615,-4.3615,-4.3615,-4.3346,-4.2911,-4.2828,-4.2311,-4.1565,-4.1462,-4.1193,-4.0882,-4.0882,-4.0882,0.0,0.0,0.0,0.0,0.0,0.0,0.0,-4.0882,-4.0882,-4.0882,-4.0882,-4.0882,-4.0882,0.0,0.0,0.0,0.0,0.0,0.0,0.0,0.0,0.0,0.0,0.0,0.0,0.0,0.0,-4.0882,-4.0882,-4.0882,-4.0882,-4.0882,-4.0882,-4.0882,-4.0882,-4.0882,-4.0882,-4.0882,-4.0882,-4.0882,-4.0882,-4.0882,-4.0882,-4.0882,-4.0882,-4.0882,-4.0882,-4.0882,-4.082,-4.0737,-4.0737,-4.0696,-4.0593,-4.0593,-4.0406,-4.0075,-3.9702,-3.9475,-3.9413,-3.9889,-4.0075,-4.0116,-4.0448,-4.0593,-4.0593,-4.0593,-4.0451,-4.0451,-4.0451,-4.0451,-4.0309,0.0,0.0,0.0,0.0,0.0,0.0,0.0,0.0,0.0,0.0,0.0,0.0,0.0,0.0,0.0,0.0,0.0,0.0,0.0,0.0,-4.6347,-4.6347,-4.6119,-4.5892,-4.5685,-4.5002,-4.4526,-4.4298,-4.3842,-4.3615,-4.3615,-4.3615,-4.3615,-4.3615,-4.3615,-4.347,-4.3242,-4.3014,-4.2642,-4.2186,-4.1979,-4.1607,-4.1214,-4.1214,-4.1069,-4.0882,-4.0882,0.0,0.0,0.0,0.0,0.0,0.0,0.0,-4.0882,-4.0882,-4.0882,-4.0882,0.0,0.0,0.0,0.0,0.0,0.0,0.0,0.0,0.0,0.0,0.0,0.0,0.0,-4.0882,-4.0882,-4.0882,-4.0882,-4.0882,-4.0882,-4.0882,-4.0882,-4.0882,-4.0882,-4.0882,-4.0882,-4.0882,-4.0882,-4.0882,-4.0882,-4.0882,-4.0882,-4.0882,-4.0882,-4.0882,-4.0882,-4.0882,-4.0882,-4.0882,-4.0986,-4.1214,-4.1214,-4.1214,-4.1172,-4.0282,-3.9992,-4.0199,-4.0427,-4.0551,-4.0551,-4.0779,-4.0882,-4.0882,-4.0882,-4.0882,-4.0882,-4.0882,-4.0882,-4.0882,0.0,0.0,0.0,0.0,0.0,0.0,0.0,0.0,0.0,0.0,0.0,0.0,0.0,0.0,0.0,0.0,0.0,0.0,0.0,0.0,0.0,-4.6347,-4.6347,-4.6182,-4.5809,-4.5354,-4.4919,-4.4546,-4.3987,0.0,0.0,0.0,-4.3615,-4.3615,-4.3615,-4.3615,-4.3594,-4.3201,-4.2994,-4.289,-4.2518,-4.2104,-4.169,-4.169,-4.14,-4.0986,-4.0986,-4.0944,-4.0882,-4.0882,0.0,0.0,0.0,0.0,-4.0882,-4.0882,-4.0882,-4.0882,0.0,0.0,0.0,0.0,0.0,0.0,0.0,0.0,0.0,0.0,0.0,0.0,-4.0882,-4.0882,-4.0882,-4.0882,-4.0882,-4.0882,-4.0882,-4.0882,-4.0882,-4.0882,-4.0882,-4.0882,-4.0882,-4.0882,-4.0882,-4.0882,-4.0882,-4.0882,-4.0882,-4.0882,-4.0882,-4.0882,-4.0882,-4.0924,-4.0986,-4.0986,-4.1234,-4.169,-4.169,-4.1876,-4.2228,-4.1089,-4.0737,-4.0986,-4.0986,-4.0944,-4.0882,-4.0882,-4.0882,-4.0882,-4.0882,-4.0882,-4.0882,-4.0882,-4.0882,-4.0882,0.0,0.0,0.0,0.0,0.0,0.0,0.0,0.0,0.0,0.0,-4.8127,-4.8355,0.0,0.0,0.0,0.0,0.0,0.0,0.0,0.0,0.0,-4.6347,-4.6347,-4.6306,-4.6264,-4.583,-4.5561,-4.5498,0.0,0.0,0.0,0.0,0.0,-4.3615,-4.3615,-4.3615,-4.3615,-4.3532,-4.3284,-4.2911,-4.2849,-4.2559,-4.2166,-4.2166,-4.1876,-4.1483,-4.1483,-4.1214,-4.0882,-4.0882,-4.0882,0.0,0.0,0.0,-4.0882,-4.0882,-4.0882,0.0,0.0,0.0,0.0,0.0,0.0,0.0,0.0,0.0,0.0,0.0,-4.0882,-4.0882,-4.0882,-4.0882,-4.0882,-4.0882,-4.0882,-4.0882,-4.0882,-4.0882,-4.0882,-4.0882,-4.0882,-4.0882,-4.0882,-4.0882,-4.0882,-4.0882,-4.0882,-4.0882,-4.0882,-4.0882,-4.0882,-4.0882,-4.0882,-4.1069,-4.1462,-4.1483,-4.171,-4.2166,-4.2166,-4.2186,-4.2249,-4.2062,-4.1793,-4.1483,-4.1483,-4.1255,-4.0882,-4.0882,-4.0882,-4.0882,-4.0882,-4.0882,-4.0882,-4.0882,-4.0882,-4.0882,0.0,0.0,0.0,0.0,0.0,0.0,0.0,0.0,0.0,0.0,0.0,-4.8666,0.0,0.0,0.0,-4.7051,-4.6616,-4.6347,-4.6347,-4.6347,0.0,-4.6347,-4.6347,-4.6347,-4.6347,-4.5912,-4.5685,-4.5685,0.0,0.0,0.0,-4.3822,-4.3615,0.0,0.0,0.0,-4.3615,0.0,0.0,-4.3304,-4.3304,-4.3035,-4.2642,-4.2642,-4.2352,-4.1959,-4.1959,-4.1814,-4.1648,-4.1648,-4.1648,-4.1648,-4.1648,0.0,0.0,0.0,-4.1069,0.0,0.0,0.0,0.0,0.0,0.0,0.0,0.0,0.0,0.0,-4.0882,-4.0882,-4.0882,-4.0882,-4.0882,-4.0882,-4.0882,-4.0882,-4.0882,-4.0882,-4.0882,-4.0882,-4.0882,-4.0882,-4.0882,-4.0882,-4.0882,-4.0882,-4.0882,-4.0882,-4.0882,-4.0882,-4.1131,-4.1255,-4.1255,-4.1524,-4.1752,-4.1959,-4.1959,-4.2186,-4.2642,-4.289,-4.289,-4.2642,-4.2642,-4.2249,-4.1565,-4.1565,-4.1296,-4.0882,-4.0882,-4.0882,-4.0882,-4.0882,-4.0882,-4.0882,-4.0882,-4.0882,-4.0882,0.0,0.0,0.0,0.0,0.0,0.0,0.0,0.0,0.0,0.0,0.0,0.0,0.0,0.0,0.0,0.0,-4.6782,-4.6471,-4.6347,-4.6347,0.0,0.0,-4.6347,-4.6347,-4.6347,-4.6016,-4.585,0.0,0.0,0.0,-4.4463,-4.3884,-4.3615,0.0,-4.3615,0.0,0.0,0.0,0.0,0.0,-4.3615,-4.3408,-4.3097,-4.3097,-4.2807,-4.2435,-4.2435,-4.2352,-4.2249,-4.2249,-4.2249,-4.2249,-4.2249,-4.2021,0.0,0.0,0.0,0.0,0.0,0.0,0.0,0.0,0.0,0.0,0.0,0.0,-4.0882,0.0,-4.0882,-4.0882,-4.0882,-4.0882,-4.0882,-4.0882,-4.0882,-4.0882,-4.0882,-4.0882,-4.0882,-4.0882,-4.0882,-4.0882,-4.0882,-4.0882,-4.0882,-4.0882,-4.0986,-4.1048,-4.1048,-4.1483,-4.1752,-4.1752,-4.2083,-4.2311,-4.2435,-4.2538,-4.2704,-4.2932,-4.3263,-4.3201,-4.2745,-4.2745,-4.2311,-4.1565,-4.1565,-4.1296,-4.0882,-4.0882,-4.0882,-4.0882,-4.0882,-4.0882,-4.0882,-4.0882,-4.0882,-4.0882,0.0,0.0,0.0,0.0,0.0,0.0,0.0,0.0,0.0,0.0,0.0,0.0,0.0,-4.8603,-4.8148,-4.7693,-4.7258,-4.6823,-4.6368,-4.6347,-4.6347,-4.6347,0.0,0.0,-4.6347,-4.6326,0.0,0.0,0.0,0.0,-4.494,-4.4029,-4.3615,-4.3615,-4.3615,-4.3615,-4.3615,0.0,0.0,0.0,-4.3615,-4.3594,-4.3573,-4.3573,-4.3284,-4.289,-4.289,0.0,-4.2249,-4.2249,-4.2249,-4.2249,-4.2249,-4.2249,-4.2228,0.0,0.0,0.0,0.0,0.0,0.0,0.0,0.0,0.0,0.0,0.0,0.0,-4.0882,-4.0882,-4.0882,-4.0882,-4.0882,-4.0882,-4.0882,-4.0882,-4.0882,-4.0882,-4.0882,-4.0882,-4.0882,-4.0882,-4.0882,-4.0882,-4.0882,-4.0882,-4.0882,-4.1276,-4.1524,-4.1524,-4.1979,-4.2228,-4.2228,-4.2249,-4.2456,-4.289,-4.3325,-4.3325,-4.2911,-4.2952,-4.2725,-4.229,-4.229,-4.2021,-4.1565,-4.1565,-4.1296,-4.0882,-4.0882,-4.0882,-4.0882,-4.0882,-4.0882,-4.0882,-4.0882,-4.0882,-4.0882,0.0,0.0,0.0,0.0,0.0,0.0,0.0,0.0,0.0,0.0,0.0,0.0,0.0,-4.8396,-4.7858,-4.7693,-4.701,-4.6533,-4.6368,-4.6347,-4.6347,-4.6347,0.0,0.0,0.0,0.0,0.0,0.0,0.0,-4.5436,-4.5416,-4.4484,-4.4049,-4.4049,-4.3739,-4.3615,-4.3615,-4.3615,0.0,0.0,-4.3615,-4.3615,-4.3615,0.0,0.0,0.0,0.0,0.0,0.0,-4.3118,-4.3118,-4.3118,-4.3118,-4.2932,-4.2621,-4.2352,-4.2145,-4.1979,-4.1814,0.0,0.0,0.0,0.0,0.0,0.0,-4.1772,-4.1772,-4.1772,-4.1772,-4.1772,-4.1772,-4.1276,-4.0882,-4.0882,-4.0882,-4.0882,-4.0882,-4.0882,-4.0882,-4.0882,-4.0882,-4.0986,-4.1296,-4.1317,-4.1441,-4.1752,-4.1917,-4.2021,-4.2021,-4.2435,-4.2683,-4.2683,-4.2973,-4.3056,-4.2911,-4.3077,-4.2932,-4.2497,-4.2497,-4.2249,-4.1814,-4.1814,-4.1565,-4.1131,-4.1131,-4.1027,-4.0882,-4.0882,-4.0882,-4.0882,-4.0882,-4.0882,-4.0882,-4.0882,-4.0882,-4.0882,0.0,0.0,0.0,0.0,0.0,0.0,0.0,0.0,0.0,0.0,0.0,0.0,0.0,0.0,-4.7631,-4.7486,-4.6782,-4.6347,-4.6347,-4.6347,-4.6347,-4.6347,-4.6347,-4.6347,-4.6347,0.0,0.0,0.0,0.0,0.0,0.0,-4.4898,-4.4443,-4.4298,-4.3987,-4.376,0.0,0.0,0.0,-4.3615,0.0,-4.3615,-4.3615,0.0,0.0,0.0,0.0,0.0,0.0,0.0,0.0,-4.3615,-4.3615,-4.3408,-4.3056,-4.2621,-4.2476,-4.2456,-4.229,0.0,0.0,0.0,0.0,-4.2249,-4.2249,0.0,-4.2249,-4.2249,-4.2249,-4.2249,-4.2249,-4.1752,-4.1296,-4.1131,-4.111,-4.111,-4.111,-4.1234,-4.1338,-4.1338,-4.1338,-4.1462,-4.1772,-4.1793,-4.1917,-4.2228,-4.2393,-4.2476,-4.2476,-4.2911,-4.3159,-4.3159,-4.3304,-4.3242,-4.2911,-4.2766,-4.2476,-4.2021,-4.2021,-4.1772,-4.1338,-4.1503,-4.14,-4.111,-4.1276,-4.1172,-4.0882,-4.0882,-4.0882,-4.0882,-4.0882,-4.0965,-4.111,-4.111,-4.111,-4.111,0.0,0.0,0.0,0.0,0.0,0.0,0.0,0.0,0.0,0.0,0.0,0.0,0.0,0.0,0.0,-4.7051,-4.6596,-4.6347,-4.6347,-4.6347,-4.6347,-4.6347,-4.6347,-4.6347,-4.6347,-4.6347,0.0,0.0,0.0,0.0,0.0,0.0,-4.4774,-4.4339,-4.4319,-4.407,-4.3656,0.0,-4.3635,-4.3635,0.0,-4.3656,-4.3656,0.0,0.0,0.0,-4.3656,-4.3635,0.0,-4.3635,0.0,0.0,-4.3615,-4.3615,-4.3532,-4.3077,-4.2932,-4.2849,0.0,0.0,0.0,0.0,0.0,0.0,-4.229,-4.229,-4.229,-4.229,-4.229,-4.229,-4.229,-4.229,-4.2124,-4.1669,-4.1607,-4.1586,-4.1586,-4.1979,-4.2249,-4.2249,-4.2249,-4.2269,-4.2269,-4.2269,-4.229,-4.229,-4.2704,-4.2932,-4.2932,-4.3366,-4.3615,-4.3615,-4.318,-4.2932,-4.2911,-4.2497,-4.2042,-4.1586,-4.1586,-4.1358,-4.0924,-4.1379,-4.1586,-4.1607,-4.2062,-4.1752,-4.0924,-4.0924,-4.0924,-4.0924,-4.0924,-4.1193,-4.1586,-4.1586,-4.1586,-4.1586,0.0,0.0,0.0,0.0,0.0,0.0,0.0,0.0,0.0,0.0,0.0,0.0,0.0,0.0,-4.703,-4.6575,-4.643,-4.6347,-4.6347,-4.6347,-4.6347,-4.6347,-4.6347,-4.6347,-4.6347,-4.6347,0.0,0.0,0.0,0.0,0.0,-4.5705,-4.5436,0.0,-4.496,-4.4733,-4.4588,-4.4256,0.0,0.0,-4.4484,-4.4608,0.0,0.0,0.0,0.0,0.0,-4.4401,-4.4112,0.0,-4.3884,-4.3615,0.0,-4.3615,-4.3594,-4.3449,-4.3428,-4.3387,-4.3263,0.0,0.0,0.0,0.0,0.0,-4.3242,-4.3242,-4.3242,-4.3242,-4.3242,-4.3242,-4.3242,-4.2973,-4.2704,-4.2559,-4.2269,-4.2062,-4.2062,-4.2186,-4.2249,-4.2249,-4.2249,-4.2373,-4.2704,-4.2745,-4.287,-4.3201,-4.3346,-4.3428,-4.3428,-4.3532,-4.3615,-4.3615,-4.3491,-4.3263,-4.2932,-4.2807,-4.2518,-4.2062,-4.2062,-4.2,-4.1876,-4.2,-4.2062,-4.2083,-4.2207,-4.2104,-4.1876,-4.1876,-4.1876,-4.1876,-4.1876,-4.1959,-4.2062,-4.2062,-4.2062,-4.2062,0.0,0.0,0.0,0.0,0.0,0.0,0.0,0.0,0.0,0.0,0.0,0.0,0.0,0.0,-4.6637,-4.6368,-4.6347,-4.6347,-4.6347,-4.6347,-4.6347,-4.6347,-4.6347,-4.6347,-4.6347,-4.6347,-4.6347,-4.6347,0.0,0.0,0.0,-4.6078,-4.585,-4.5664,-4.5395,-4.5167,-4.4981,-4.4919,0.0,0.0,-4.4877,0.0,0.0,-4.5002,-4.5002,0.0,0.0,0.0,-4.4588,-4.4588,-4.4401,0.0,0.0,-4.3905,-4.3863,-4.3677,-4.3615,-4.3615,-4.3615,-4.3615,-4.3615,-4.3615,0.0,0.0,-4.3615,-4.3615,-4.3615,-4.3615,-4.3615,-4.3615,-4.3615,-4.3387,-4.3201,-4.3201,-4.2994,-4.2745,-4.2559,-4.2704,-4.2828,-4.2828,-4.2828,-4.2932,-4.318,-4.3201,-4.3325,-4.3594,-4.3615,-4.3615,-4.3615,-4.3615,-4.3615,-4.3615,-4.3428,-4.3201,-4.2911,-4.2725,-4.2518,-4.2249,-4.2249,-4.2249,-4.2269,-4.2456,-4.2538,-4.2538,-4.2745,-4.2828,-4.2828,-4.3035,-4.2766,-4.2249,-4.2249,-4.2373,-4.2538,-4.2538,-4.2538,-4.2538,0.0,0.0,-4.9059,-4.9059,-4.8686,0.0,0.0,0.0,0.0,0.0,-4.6451,-4.643,0.0,-4.6368,-4.6347,-4.6347,-4.6347,-4.6347,-4.6347,-4.6347,-4.6347,-4.6347,-4.6347,-4.6347,-4.6347,-4.6347,-4.6347,-4.6347,0.0,0.0,0.0,-4.6347,-4.614,-4.5768,-4.5768,-4.5519,-4.5167,-4.5581,0.0,-4.5147,-4.5147,-4.5147,0.0,0.0,-4.5147,-4.5147,-4.5147,-4.5105,-4.5064,-4.5022,-4.5002,0.0,0.0,0.0,0.0,-4.3884,-4.3739,-4.3698,-4.3698,-4.3656,-4.3615,-4.3615,-4.3615,0.0,-4.3615,-4.3615,-4.3615,-4.3615,-4.3615,-4.3615,-4.3615,-4.3615,-4.3615,-4.3615,-4.3615,-4.347,-4.3056,-4.3346,-4.3615,-4.3615,-4.3615,-4.3615,-4.3615,-4.3615,-4.3615,-4.3615,-4.3615,-4.3615,-4.3615,-4.3615,-4.3615,-4.3615,-4.3221,-4.2994,-4.2994,-4.26,-4.2414,-4.2414,-4.2414,-4.2414,-4.2414,-4.287,-4.3077,-4.3097,-4.3553,-4.376,-4.3801,-4.4215,-4.3594,-4.2414,-4.2456,-4.2704,-4.2994,-4.2994,-4.2994,-4.2994,-4.9721,-4.9328,-4.9059,-4.9059,0.0,0.0,0.0,0.0,0.0,0.0,-4.7113,-4.6906,0.0,-4.6575,-4.6347,-4.6347,-4.6347,-4.6347,-4.6347,-4.6347,0.0,0.0,-4.6347,-4.6347,-4.6347,-4.6347,-4.6347,-4.6347,0.0,0.0,0.0,-4.6347,-4.6306,-4.6223,-4.6223,-4.6161,-4.6078,-4.6182,-4.6161,-4.6078,-4.6078,0.0,-4.6078,-4.6078,-4.6078,-4.6078,-4.6078,-4.585,-4.5498,-4.5126,-4.5002,-4.4981,0.0,0.0,0.0,-4.4753,0.0,-4.4174,-4.4174,-4.3905,-4.3615,-4.3615,-4.3615,0.0,-4.3615,-4.3615,-4.3615,-4.3615,-4.3615,-4.3615,-4.3615,-4.3615,-4.3615,-4.3615,-4.3615,-4.3573,-4.3491,-4.3553,-4.3615,-4.3615,-4.3615,-4.3615,-4.3615,-4.3615,-4.3615,-4.3615,-4.3615,-4.3615,-4.3615,-4.3615,-4.3615,-4.3615,-4.3532,-4.347,-4.347,-4.3387,-4.3346,-4.3346,-4.3346,-4.3346,-4.3366,-4.3822,-4.4029,-4.4049,-4.4526,-4.4733,-4.4733,-4.4815,-4.4256,-4.3387,-4.376,-4.3739,-4.347,-4.347,-4.347,-4.347,-5.0177,-4.9721,-4.9411,-4.9411,0.0,0.0,0.0,0.0,0.0,0.0,0.0,0.0,0.0,-4.7154,-4.6927,-4.672,-4.6699,-4.6596,-4.6368,-4.6347,0.0,0.0,-4.6347,-4.6347,-4.6347,-4.6347,-4.6347,-4.6347,0.0,0.0,0.0,-4.6347,-4.6347,-4.6347,-4.6347,-4.6347,-4.6347,-4.6347,-4.6347,-4.6347,-4.6347,0.0,-4.6347,-4.6347,-4.6347,-4.6347,-4.6347,-4.6202,-4.5975,-4.5747,-4.5664,0.0,-4.5395,-4.5333,-4.5291,0.0,-4.4836,-4.465,-4.465,-4.4319,-4.3967,-4.3967,-4.378,0.0,0.0,-4.3615,-4.3615,-4.3615,-4.3615,-4.3615,-4.3615,-4.3615,-4.3615,-4.3615,-4.3615,-4.3615,-4.3615,-4.3615,-4.3615,-4.3615,-4.3615,-4.3615,-4.3615,-4.3615,-4.3615,-4.3615,-4.3615,-4.3615,-4.3615,-4.3615,-4.3615,-4.3615,-4.3615,-4.3615,-4.3615,-4.3615,-4.3615,-4.3615,-4.3615,-4.3739,-4.3967,-4.4194,-4.4422,-4.465,-4.4898,-4.5002,-4.5022,-4.525,-4.4919,-4.4319,-4.4546,-4.4505,-4.4298,-4.4298,-4.4153,-4.3967,-5.0653,-5.0197,-4.9887,-4.9887,0.0,0.0,0.0,0.0,0.0,0.0,0.0,-4.7817,-4.7817,-4.7734,-4.7548,-4.7196,-4.7092,-4.6885,-4.6513,0.0,0.0,-4.6347,-4.6347,-4.6347,-4.6347,-4.6347,-4.6347,-4.6347,0.0,0.0,-4.6347,-4.6347,-4.6347,-4.6347,-4.6347,-4.6347,0.0,0.0,0.0,-4.6347,0.0,-4.643,-4.6347,-4.6347,-4.6347,-4.6347,-4.6347,-4.6347,-4.6347,-4.6347,-4.6347,-4.6285,-4.5933,-4.5809,-4.5726,-4.5354,-4.5188,-4.5126,-4.5126,-4.4795,-4.4443,-4.4443,-4.4091,-4.3739,0.0,0.0,0.0,-4.3615,-4.3615,-4.3615,-4.3615,-4.3615,-4.3615,-4.3615,-4.3615,-4.3615,-4.3615,-4.3615,-4.3615,-4.3615,-4.3615,-4.3615,-4.3615,-4.3615,-4.3615,-4.3615,-4.3615,-4.3615,-4.3615,-4.3615,-4.3615,-4.3615,-4.3615,-4.3615,-4.3615,-4.3615,-4.3656,-4.3739,-4.3739,-4.3987,-4.4443,-4.4526,-4.4774,-4.5126,-4.5209,-4.525,-4.5271,-4.5561,-4.5457,-4.5126,-4.5022,-4.494,-4.4857,-4.4753,-4.4484,-4.4174,-5.1129,-5.0653,-5.0342,-5.0342,0.0,0.0,0.0,-4.9245,-4.8955,0.0,-4.8541,0.0,0.0,0.0,0.0,0.0,0.0,0.0,-4.6968,0.0,-4.6347,-4.6347,-4.6347,-4.6347,-4.6347,-4.6347,-4.6347,-4.6347,-4.6347,-4.6347,-4.6347,-4.6347,-4.6347,-4.6347,-4.6347,0.0,0.0,0.0,-4.6347,0.0,-4.6803,-4.672,0.0,-4.6347,-4.6347,-4.6347,-4.6347,-4.6347,-4.6347,-4.6347,-4.6347,-4.6347,-4.6285,-4.6264,-4.6264,-4.6202,-4.5912,-4.5602,-4.5602,-4.5271,-4.4919,-4.4919,-4.4567,-4.4236,-4.4236,0.0,-4.3615,-4.3615,0.0,-4.3615,-4.3615,0.0,0.0,-4.3615,-4.3615,-4.3615,-4.3615,-4.3615,-4.3615,-4.3615,-4.3615,-4.3615,-4.3615,-4.3615,-4.3615,-4.3615,-4.3615,-4.3615,-4.3615,-4.3615,-4.3615,-4.3615,-4.3615,-4.3615,-4.3615,-4.3615,-4.3822,-4.4236,-4.4236,-4.4463,-4.4919,-4.5333,-4.5561,-4.5623,-4.6016,-4.6202,-4.6161,-4.583,-4.5643,-4.5561,-4.5147,-4.4753,-4.4339,-4.3925,-4.3739,-4.3698,-5.1501,-5.0922,-5.0425,-5.0425,0.0,0.0,-4.9349,-4.9183,-4.9059,-4.9059,-4.8893,0.0,0.0,0.0,0.0,0.0,0.0,-4.7693,0.0,0.0,-4.701,-4.6761,0.0,0.0,0.0,-4.6347,-4.6347,-4.6347,-4.6347,-4.6347,-4.6347,-4.6347,-4.6347,-4.6347,-4.6347,0.0,-4.674,0.0,-4.6885,0.0,0.0,0.0,0.0,-4.7113,-4.7113,-4.7113,-4.7113,-4.7113,-4.7092,-4.6823,-4.674,-4.6699,-4.643,-4.6347,-4.6347,-4.6347,-4.6223,-4.6078,-4.6078,-4.5747,-4.5395,-4.5395,-4.5043,-4.4712,-4.4712,-4.4339,-4.4008,-4.4008,0.0,0.0,0.0,0.0,0.0,0.0,-4.3615,-4.3615,-4.3615,-4.3615,-4.3615,-4.3615,-4.3615,-4.3615,-4.3615,-4.3615,-4.3615,-4.3615,-4.3615,-4.3615,-4.3615,-4.3615,-4.3615,-4.3615,-4.3615,-4.3739,-4.4008,-4.4008,-4.4236,-4.4712,-4.4712,-4.494,-4.5395,-4.5602,-4.583,-4.6057,-4.5995,-4.5954,-4.5933,-4.5478,-4.5291,-4.5229,-4.4774,-4.4629,-4.467,-4.4484,-4.4236,-4.4008,-5.1377,-5.088,-5.0425,-5.0425,0.0,0.0,-4.908,-4.9059,0.0,0.0,0.0,0.0,-4.9059,-4.9059,0.0,0.0,0.0,-4.8231,0.0,0.0,-4.7548,0.0,0.0,0.0,0.0,0.0,-4.6658,-4.6533,-4.6533,-4.6471,-4.6347,-4.6471,-4.6533,-4.6533,-4.6658,-4.6906,-4.7217,0.0,0.0,-4.7693,-4.7817,-4.7941,-4.8045,-4.7775,-4.7693,-4.7693,-4.7693,-4.7693,-4.7631,-4.732,-4.7217,-4.7154,-4.6823,-4.6637,-4.6533,-4.6533,-4.6451,-4.6347,-4.6347,-4.6119,-4.5871,-4.5871,-4.5519,-4.5188,-4.5188,-4.4815,-4.4484,-4.4484,-4.4112,0.0,0.0,0.0,-4.3615,-4.3615,0.0,-4.3615,-4.3615,-4.3615,-4.3615,-4.3615,-4.3615,-4.3615,-4.3615,-4.3615,-4.3615,-4.3615,-4.3615,-4.3615,-4.3615,-4.3615,-4.3677,-4.3801,-4.3801,-4.4029,-4.4484,-4.4484,-4.4733,-4.5188,-4.5188,-4.5416,-4.585,-4.5747,-4.585,-4.614,-4.5685,-4.5561,-4.5643,-4.5188,-4.5064,-4.5147,-4.467,-4.4691,-4.496,-4.4712,-4.4401,-4.4112,-5.0549,-5.0446,0.0,0.0,0.0,0.0,0.0,0.0,0.0,0.0,0.0,0.0,0.0,0.0,0.0,0.0,0.0,-4.8376,-4.8355,0.0,-4.7672,0.0,0.0,-4.7651,0.0,0.0,-4.7424,-4.701,-4.701,-4.6782,-4.6368,-4.6803,-4.701,-4.703,-4.7444,-4.7651,-4.7672,-4.7672,-4.7672,-4.7713,-4.8169,-4.8624,-4.8914,-4.8024,-4.7693,-4.7693,-4.7693,-4.7693,-4.7693,-4.7672,-4.7672,-4.7651,-4.7651,-4.7361,-4.701,-4.701,-4.6699,-4.6347,-4.6347,-4.6326,-4.6326,-4.6326,-4.5995,-4.5664,-4.5664,-4.5291,-4.496,-4.496,-4.4608,-4.4277,-4.4277,-4.3905,-4.3615,-4.3615,-4.3615,0.0,0.0,-4.3615,-4.3615,-4.3615,-4.3615,-4.3615,-4.3615,-4.3615,-4.3615,-4.3615,-4.3615,-4.3615,-4.3615,-4.3615,-4.3822,-4.4256,-4.4277,-4.4505,-4.496,-4.496,-4.5209,-4.5664,-4.5664,-4.5892,-4.6306,-4.5892,-4.5685,-4.5685,-4.5229,-4.5271,-4.5643,-4.5188,-4.525,-4.5623,-4.5147,-4.4981,-4.4877,-4.3987,-4.3656,-4.3635,-4.9659,-4.9514,0.0,0.0,0.0,0.0,0.0,-4.9059,0.0,0.0,0.0,0.0,0.0,0.0,-4.9059,0.0,0.0,-4.8831,-4.8831,-4.8686,0.0,0.0,0.0,-4.8003,0.0,0.0,0.0,0.0,-4.7465,-4.7382,-4.7237,-4.7403,-4.7465,-4.7465,0.0,-4.7858,0.0,0.0,0.0,0.0,0.0,-4.8935,-4.9038,-4.8728,-4.8603,-4.8603,-4.8603,-4.8603,-4.8541,-4.8252,-4.8148,-4.8086,-4.7775,-4.7589,-4.7465,-4.7465,-4.7154,-4.6803,-4.6803,-4.6575,-4.6347,-4.6347,-4.6244,-4.6119,-4.6119,-4.5768,-4.5457,-4.5457,-4.5084,-4.4753,-4.4753,-4.4629,-4.4422,-4.4112,-4.407,-4.3967,0.0,-4.3615,-4.3615,-4.3615,-4.3615,-4.3615,-4.3615,-4.3615,-4.3615,-4.3615,-4.3615,-4.3615,-4.3615,-4.3905,-4.4132,-4.4298,-4.4588,-4.4981,-4.5436,-4.5457,-4.5685,-4.6119,-4.6119,-4.6202,-4.6347,-4.6182,-4.6119,-4.6099,-4.5643,-4.554,-4.5643,-4.5188,-4.5084,-4.5209,-4.5064,-4.5002,-4.496,-4.465,-4.4526,-4.4526,-4.9494,-4.9307,-4.9349,0.0,0.0,0.0,0.0,0.0,0.0,0.0,-4.9059,0.0,-4.9059,0.0,-4.9059,0.0,-4.9059,-4.9059,-4.9059,-4.9059,0.0,-4.8624,-4.8624,0.0,0.0,0.0,0.0,0.0,-4.792,-4.7838,-4.7693,-4.7858,-4.792,-4.7941,0.0,-4.8334,-4.8624,0.0,-4.879,0.0,0.0,-4.9059,-4.9059,-4.9059,-4.9059,-4.9059,-4.9059,-4.9059,-4.9017,-4.8728,-4.8624,-4.8562,-4.8272,-4.8065,-4.792,-4.792,-4.761,-4.7279,-4.7279,-4.6927,-4.6596,-4.6596,-4.6471,-4.6347,-4.6347,-4.6119,-4.5912,-4.5912,-4.5561,-4.5229,-4.5229,-4.5105,-4.4898,-4.4588,-4.4546,-4.4381,0.0,-4.3863,-4.3801,-4.3635,-4.3615,-4.3615,-4.3615,-4.3615,-4.3615,-4.3615,-4.376,-4.3863,-4.3863,-4.4298,-4.4629,-4.4795,-4.5084,-4.5457,-4.5912,-4.5912,-4.6057,-4.6347,-4.6347,-4.6347,-4.6347,-4.6182,-4.6119,-4.6078,-4.5643,-4.554,-4.5664,-4.5354,-4.5333,-4.5478,-4.5478,-4.5478,-4.5436,-4.5105,-4.5002,-4.5002,-4.997,-4.9763,-4.9618,-4.9183,-4.908,0.0,0.0,0.0,-4.9059,0.0,-4.9059,-4.9059,-4.9059,-4.9059,-4.9059,-4.9059,-4.9059,0.0,-4.9059,-4.9059,0.0,0.0,-4.9059,-4.9059,-4.9059,0.0,0.0,0.0,0.0,-4.8189,-4.7755,-4.821,-4.8396,-4.8438,-4.8873,0.0,-4.9059,-4.9059,-4.9059,-4.9059,-4.9059,-4.9059,-4.9059,-4.9059,-4.9059,-4.9059,-4.9059,-4.9059,-4.9059,-4.9059,-4.9059,-4.9059,-4.9059,-4.8769,-4.8396,-4.8396,-4.8086,-4.7713,-4.7713,-4.7403,-4.7072,-4.7072,-4.672,-4.6368,-4.6368,-4.6368,-4.6347,-4.6347,-4.6016,-4.5705,-4.5705,-4.5354,-4.5064,-4.5022,-4.5002,-4.4836,-4.4401,-4.4339,-4.4174,-4.3739,-4.3677,-4.3656,-4.3615,-4.3615,-4.3615,-4.3635,-4.4049,-4.4319,-4.4339,-4.4774,-4.5229,-4.5664,-4.5705,-4.5912,-4.6347,-4.6347,-4.6347,-4.6347,-4.6347,-4.6347,-4.6326,-4.5912,-4.5705,-4.5685,-4.525,-4.5312,-4.5705,-4.5705,-4.5975,-4.6347,-4.6347,-4.6347,-4.6244,-4.5374,-4.5064,-4.5064,-5.0363,-4.999,-4.9721,-4.9597,-4.9287,-4.9059,0.0,0.0,0.0,0.0,-4.9059,-4.9059,-4.9059,-4.9059,-4.9059,-4.9059,-4.9059,0.0,0.0,0.0,0.0,-4.9059,-4.9059,-4.9059,-4.9059,-4.9059,-4.9017,-4.8893,-4.8893,-4.8831,-4.8707,-4.8831,-4.8893,-4.8893,0.0,-4.9059,-4.9059,-4.9059,-4.9059,-4.9059,-4.9059,-4.9059,-4.9059,-4.9059,-4.9059,-4.9059,-4.9059,-4.9059,-4.9059,-4.9059,-4.9059,-4.9059,-4.9059,-4.8976,-4.8893,-4.8893,-4.8562,-4.8189,-4.8189,-4.7858,-4.7506,-4.7506,-4.7196,-4.6865,-4.6865,-4.6596,-4.6347,-4.6347,-4.6264,-4.6182,-4.6182,-4.6078,-4.5892,-4.5561,-4.5229,-4.496,-4.4836,-4.4815,-4.4774,-4.465,-4.465,-4.436,-4.3677,-4.3615,-4.376,-4.4091,-4.4236,-4.4443,-4.4795,-4.525,-4.5561,-4.5685,-4.5995,-4.6244,-4.6347,-4.6347,-4.6347,-4.6347,-4.6347,-4.6347,-4.6347,-4.6223,-4.6182,-4.6182,-4.6057,-4.6057,-4.6182,-4.6182,-4.6405,-4.6852,-4.6852,-4.6993,-4.7272,-4.6741,-4.6636,-4.6934,-5.0818,-5.0363,-5.0052,-5.0052,-4.9825,0.0,-4.9121,0.0,0.0,-4.9059,-4.9059,0.0,-4.9059,-4.9059,-4.9059,-4.9059,-4.9059,0.0,-4.9059,0.0,0.0,-4.9059,-4.9059,-4.9059,-4.9059,-4.9059,0.0,-4.9059,-4.9059,-4.9059,-4.9059,-4.9059,-4.9059,-4.9059,-4.9059,-4.9059,-4.9059,-4.9059,-4.9059,-4.9059,-4.9059,-4.9059,0.0,-4.9059,-4.9059,-4.9059,-4.9059,-4.9059,-4.9059,-4.9059,-4.9059,-4.9059,-4.9059,-4.9059,-4.9059,-4.9059,-4.8873,-4.8686,-4.8686,-4.8334,-4.7982,-4.7982,-4.7651,-4.732,-4.732,-4.7113,-4.6865,-4.6678,-4.6658,-4.6575,-4.6389,-4.6347,-4.6264,-4.6016,-4.5747,-4.5519,-4.5333,-4.5291,-4.5229,-4.5022,-4.5002,-4.4795,-4.4256,-4.4215,-4.4319,-4.4588,-4.4795,-4.5022,-4.5291,-4.5726,-4.5975,-4.5975,-4.6223,-4.6347,-4.6347,-4.6347,-4.6347,-4.6347,-4.6347,-4.6347,-4.6347,-4.6347,-4.6347,-4.6347,-4.6347,-4.6347,-4.6347,-4.6347,-4.6509,-4.7014,-4.7153,-4.7453,-4.7933,-4.7635,-4.7613,-4.7592,-5.1274,-5.0818,-5.0508,-5.0508,0.0,0.0,0.0,-4.9204,0.0,-4.9162,0.0,-4.9059,-4.9059,-4.9059,-4.9059,-4.9059,0.0,-4.9059,-4.9059,-4.9059,-4.9059,-4.9059,-4.9059,-4.9059,-4.9059,-4.9059,-4.9059,-4.9059,-4.9059,-4.9059,-4.9059,-4.9059,-4.9059,-4.9059,0.0,0.0,0.0,-4.9059,-4.9059,-4.9059,-4.9059,-4.9059,-4.9059,-4.9059,-4.9059,-4.9059,-4.9059,-4.9059,-4.9059,-4.9059,-4.9059,-4.9059,-4.9059,-4.9059,-4.9059,-4.9059,-4.9059,-4.9059,-4.9059,-4.8769,-4.8459,-4.8459,-4.8127,-4.7775,-4.7775,-4.7734,-4.7568,-4.7196,-4.7113,-4.6989,-4.6533,-4.6389,-4.6347,-4.6347,-4.6347,-4.6223,-4.583,-4.5768,-4.5623,-4.5209,-4.5167,0.0,-4.5167,-4.5064,-4.5022,-4.5084,-4.5457,-4.5705,-4.5768,-4.614,-4.6347,-4.6347,-4.6347,-4.6347,-4.6347,-4.6347,-4.6347,-4.6347,-4.6347,-4.6347,-4.6347,-4.6347,-4.6347,-4.6347,-4.6347,-4.6347,-4.6347,-4.6347,-4.667,-4.7174,-4.7613,-4.8092,-4.8432,-4.8432,-4.8092,-4.7773,0.0,0.0,0.0,0.0,0.0,-5.0363,-5.0197,-4.9866,-4.9638,-4.9638,-4.9307,-4.9059,-4.9059,-4.9059,-4.9059,-4.9059,-4.9059,0.0,0.0,0.0,0.0,-4.9059,-4.9059,-4.9059,-4.9059,-4.9059,-4.9059,-4.9059,-4.9059,0.0,0.0,-4.9059,-4.9059,-4.9059,0.0,0.0,-4.9059,-4.9059,-4.9059,-4.9059,-4.9059,-4.9059,-4.9059,-4.9059,-4.9059,-4.9059,-4.9059,-4.9059,-4.9059,-4.9059,-4.9059,-4.9059,-4.9059,-4.9059,-4.9059,-4.9059,-4.9059,-4.9059,-4.9059,-4.9017,-4.8955,-4.8955,-4.8603,-4.8252,-4.8252,-4.7962,-4.7672,-4.7589,-4.7568,-4.7444,-4.6989,-4.6596,-4.6347,-4.6347,-4.6347,-4.6326,-4.6244,-4.6223,-4.6202,-4.6119,-4.6099,-4.6099,-4.6099,-4.5436,-4.5147,-4.554,-4.5643,-4.585,-4.6202,-4.6306,-4.6347,-4.6347,-4.6347,-4.6347,-4.6347,-4.6347,-4.6347,-4.6347,-4.6347,-4.6347,-4.6347,-4.6347,-4.6347,-4.6347,-4.6347,-4.6347,-4.6347,-4.6691,-4.7314,-4.8114,-4.8591,-4.8727,-4.8749,-4.8749,-4.8749,-4.8727,0.0,0.0,0.0,0.0,0.0,0.0,0.0,-5.0756,-5.0301,-4.9825,-4.9556,-4.9328,-4.91,-4.9059,-4.9059,-4.9059,-4.9059,-4.9059,-4.9059,-4.9059,-4.9059,-4.9059,-4.9059,-4.9059,-4.9059,-4.9059,-4.9059,-4.9059,-4.9059,0.0,0.0,-4.9059,-4.9059,-4.9059,0.0,-4.9059,-4.9059,-4.9059,-4.9059,-4.9059,-4.9059,-4.9059,-4.9059,-4.9059,-4.9059,-4.9059,-4.9059,-4.9059,-4.9059,-4.9059,-4.9059,-4.9059,-4.9059,-4.9059,-4.9059,-4.9059,-4.9059,-4.9059,-4.9059,-4.9059,-4.9059,-4.9059,-4.8893,-4.8728,-4.8728,-4.8562,-4.8334,-4.8086,-4.8045,-4.79,-4.7465,-4.7196,-4.6968,-4.674,-4.6699,-4.6616,-4.6368,-4.6347,-4.6347,-4.6347,-4.6347,-4.6347,-4.6347,-4.5954,-4.5788,-4.6016,-4.6037,-4.6119,-4.6326,-4.6347,-4.6347,-4.6347,-4.6347,-4.6347,-4.6347,-4.6347,-4.6347,-4.6347,-4.6347,-4.6347,-4.6347,-4.6347,-4.6347,-4.6347,-4.6347,-4.6509,-4.6691,-4.7314,-4.7954,-4.8273,-4.8749,-4.8907,-4.8907,-4.8907,-4.8907,-4.8907,0.0,-5.1791,0.0,0.0,-5.1791,0.0,-5.1791,-5.1501,-5.0963,-5.0156,-4.9949,-4.9763,-4.939,-4.9349,-4.9349,-4.9349,-4.9349,-4.9307,-4.9224,-4.9204,-4.9162,-4.908,-4.9059,-4.9059,-4.9059,-4.9059,-4.9059,-4.9059,-4.9059,-4.9059,-4.9059,-4.9059,-4.9059,-4.9059,-4.9059,-4.9059,-4.9059,-4.9059,-4.9059,-4.9059,-4.9059,-4.9059,-4.9059,-4.9059,-4.9059,-4.9059,-4.9059,-4.9059,-4.9059,-4.9059,-4.9059,-4.9059,-4.9059,-4.9059,-4.9059,-4.9059,-4.9059,-4.9059,-4.9059,-4.9059,-4.9059,-4.9059,-4.9059,-4.9059,-4.9059,-4.9059,-4.8955,-4.8603,-4.8438,-4.8272,-4.79,-4.7755,-4.7568,-4.7237,-4.7175,-4.701,-4.6554,-4.6492,-4.6451,-4.6368,-4.6347,-4.6347,-4.6347,-4.6347,-4.6347,-4.6347,-4.6347,-4.6347,-4.6347,-4.6347,-4.6347,-4.6347,-4.6347,-4.6347,-4.6347,-4.6347,-4.6347,-4.6347,-4.6347,-4.6347,-4.6347,-4.6347,-4.6347,-4.6347,-4.6347,-4.6832,-4.7314,-4.7954,-4.8432,-4.8432,-4.8749,-4.8907,-4.8907,-4.8907,-4.8907,-4.8907,0.0,0.0,0.0,0.0,0.0,0.0,-5.1791,-5.1771,-5.1564,-5.1046,-5.0611,-5.0342,-5.0301,-5.0301,-5.0301,-5.0301,-5.0301,-5.0115,-4.9721,-4.9701,-4.9494,-4.908,-4.9059,-4.9059,-4.9059,-4.9059,-4.9059,-4.9059,-4.9059,-4.9059,-4.9059,-4.9059,-4.9059,-4.9059,-4.9059,-4.9059,-4.9059,-4.9059,-4.9059,-4.9059,-4.9059,-4.9059,-4.9059,-4.9059,-4.9059,-4.9059,-4.9059,-4.9059,-4.9059,-4.9059,-4.9059,-4.9059,-4.9059,-4.9059,-4.9059,-4.9059,-4.9059,-4.9059,-4.9059,-4.9059,-4.9059,-4.9059,-4.9059,-4.9059,-4.9059,-4.9059,-4.9059,-4.9017,-4.8666,-4.8355,-4.8314,-4.7962,-4.7672,-4.7631,-4.7631,-4.7465,-4.703,-4.6968,-4.6823,-4.6389,-4.6347,-4.6347,-4.6347,-4.6347,-4.6347,-4.6347,-4.6347,-4.6347,-4.6347,-4.6347,-4.6347,-4.6347,-4.6347,-4.6347,-4.6347,-4.6347,-4.6347,-4.6347,-4.6347,-4.6347,-4.6347,-4.6347,-4.6347,-4.6347,-4.667,-4.7474,-4.8114,-4.8273,-4.8591,-4.8907,-4.8907,-4.8907,-4.8907,-4.8907,-4.8907,-4.8907,0.0,0.0,0.0,0.0,0.0,0.0,0.0,-5.1791,-5.1729,-5.1543,-5.1129,-5.0736,-5.0446,-5.0425,-5.0425,-5.0425,-5.0425,-5.0342,-5.0156,-5.0156,-5.0073,-4.9887,-4.9887,-4.9887,-4.9887,-4.9887,-4.9887,-4.9887,-4.9887,-4.9887,-4.9866,-4.9597,-4.9328,-4.9059,-4.9059,-4.9224,-4.9473,-4.9473,-4.9638,-4.9887,-4.9887,-4.9887,-4.9887,-4.9887,-4.9887,-4.9887,-4.9887,-4.9887,-4.9887,-4.9887,-4.9514,-4.9059,-4.9059,-4.9059,-4.9059,-4.9059,-4.9059,-4.9059,-4.9059,-4.9059,-4.9059,-4.9059,-4.9059,-4.9059,-4.9059,-4.9059,-4.9059,-4.9059,-4.8914,-4.879,-4.879,-4.8645,-4.8417,-4.8148,-4.8107,-4.7941,-4.7486,-4.7424,-4.7361,-4.7175,-4.6927,-4.6761,-4.6761,-4.6513,-4.6347,-4.6347,-4.6347,-4.6347,-4.6347,-4.6347,-4.6347,-4.6347,-4.6347,-4.6347,-4.6347,-4.6347,-4.6347,-4.6347,-4.6347,-4.6347,-4.6347,-4.6509,-4.6832,-4.7132,-4.7635,-4.7954,-4.8273,-4.8591,-4.8749,-4.8907,-4.8907,-4.8907,-4.8907,-4.8907,-4.8907,-4.8907,-5.2764,0.0,-5.2599,0.0,-5.2205,-5.2205,-5.2205,-5.2081,-5.1998,-5.1998,-5.1605,-5.1191,-5.086,-5.0818,-5.0818,-5.0818,-5.0818,-5.0756,-5.0632,-5.0632,-5.057,-5.0425,-5.0425,-5.0425,-5.0425,-5.0425,-5.0425,-5.0425,-5.0425,-5.0425,-5.0404,-5.0094,-4.9783,-4.9473,-4.9473,-4.9638,-4.9949,-4.9949,-5.0135,-5.0425,-5.0425,-5.0425,-5.0425,-5.0425,-5.0425,-5.0425,-5.0425,-5.0425,-5.0425,-5.0425,-4.999,-4.9473,-4.9473,-4.9369,-4.9266,-4.9266,-4.9183,-4.9059,-4.9059,-4.9059,-4.9059,-4.9059,-4.9059,-4.9059,-4.9059,-4.9059,-4.9059,-4.9059,-4.9059,-4.9059,-4.9059,-4.9059,-4.8955,-4.8624,-4.8583,-4.8417,-4.7962,-4.7879,-4.7838,-4.7693,-4.7424,-4.7237,-4.7237,-4.6927,-4.6678,-4.6554,-4.6554,-4.6492,-4.6347,-4.6347,-4.6347,-4.6347,-4.6347,-4.6347,-4.6347,-4.6509,-4.6509,-4.6509,-4.667,-4.667,-4.6649,-4.6993,-4.7474,-4.7773,-4.8092,-4.8432,-4.8432,-4.8749,-4.8995,-4.9126,-4.9126,-4.9191,-4.9322,-4.9322,-4.9322,-4.9322,-5.3178,-5.3178,-5.3178,-5.3157,-5.3157,-5.3157,-5.3157,-5.2785,-5.2495,-5.2495,-5.2081,-5.1791,-5.1791,-5.1791,-5.1791,-5.1791,-5.1791,-5.1584,-5.1129,-5.1108,-5.0901,-5.0446,-5.0425,-5.0425,-5.0425,-5.0425,-5.0425,-5.0425,-5.0425,-5.0425,-5.0425,-5.0425,-5.0404,-5.0404,-5.0404,-5.0404,-5.0404,-5.0404,-5.0425,-5.0425,-5.0425,-5.0425,-5.0425,-5.0425,-5.0425,-5.0425,-5.0425,-5.0425,-5.0425,-5.0425,-5.0404,-5.0404,-5.0404,-5.0094,-4.9742,-4.9742,-4.9431,-4.9059,-4.9059,-4.9059,-4.9059,-4.9059,-4.9059,-4.9059,-4.9059,-4.9059,-4.9059,-4.9059,-4.9059,-4.9059,-4.9059,-4.9059,-4.9059,-4.9059,-4.9059,-4.8893,-4.8438,-4.8376,-4.8189,-4.7734,-4.7672,-4.7672,-4.7672,-4.7672,-4.7486,-4.7072,-4.703,-4.6823,-4.6368,-4.6347,-4.6347,-4.6347,-4.6347,-4.6347,-4.6347,-4.6691,-4.7014,-4.7014,-4.7453,-4.7592,-4.7592,-4.7592,-4.7773,-4.8273,-4.8273,-4.8591,-4.8907,-4.8907,-4.9191,-4.9628,-4.9628,-4.989,-5.0284,-5.0284,-5.0284,-5.0284,-5.3696,-5.3633,-5.353,-5.324,-5.3178,-5.3178,-5.3178,-5.3054,-5.2971,-5.2971,-5.2847,-5.2743,-5.2743,-5.2185,-5.1791,-5.1791,-5.1791,-5.1729,-5.1584,-5.1584,-5.1522,-5.1377,-5.1357,-5.1357,-5.1357,-5.1357,-5.1357,-5.1357,-5.1357,-5.1191,-5.0901,-5.0901,-5.0715,-5.0425,-5.0425,-5.0591,-5.0901,-5.0901,-5.1067,-5.1357,-5.1357,-5.1357,-5.1357,-5.1357,-5.1357,-5.1357,-5.1357,-5.1357,-5.1357,-5.1357,-5.1357,-5.1357,-5.1357,-5.0839,-5.0218,-5.0218,-5.0094,-4.999,-4.999,-4.9763,-4.9535,-4.9535,-4.9307,-4.9059,-4.9059,-4.9059,-4.9059,-4.9059,-4.9059,-4.9059,-4.9059,-4.9059,-4.9059,-4.9059,-4.9059,-4.9017,-4.8873,-4.8852,-4.879,-4.8645,-4.8355,-4.8148,-4.8148,-4.7879,-4.7797,-4.8003,-4.7982,-4.7483,-4.6389,-4.6347,-4.6347,-4.6347,-4.667,-4.6852,-4.6852,-4.7153,-4.7453,-4.7453,-4.7613,-4.7773,-4.8114,-4.8436,-4.8747,-4.925,-4.9555,-4.9707,-4.9869,-4.9869,-4.9956,-5.0087,-5.0087,-5.0174,-5.0305,-5.0305,-5.0305,-5.0305,-5.4151,-5.411,-5.4027,-5.3737,-5.3696,-5.3696,-5.3696,-5.3551,-5.3427,-5.3427,-5.3282,-5.3178,-5.3178,-5.2661,-5.2329,-5.2329,-5.2329,-5.2329,-5.2329,-5.2329,-5.2329,-5.2329,-5.2329,-5.2329,-5.2329,-5.2329,-5.2329,-5.2329,-5.2329,-5.2164,-5.1874,-5.1708,-5.1481,-5.1191,-5.1005,-5.1108,-5.1377,-5.1377,-5.1543,-5.1791,-5.1791,-5.1791,-5.1791,-5.1791,-5.1791,-5.1791,-5.1791,-5.1791,-5.1791,-5.1791,-5.1791,-5.1791,-5.1791,-5.1398,-5.0901,-5.0736,-5.0549,-5.0425,-5.0425,-5.0218,-5.0011,-5.0011,-4.9783,-4.9535,-4.9369,-4.9183,-4.9059,-4.9059,-4.9059,-4.9059,-4.9059,-4.9059,-4.9059,-4.9059,-4.9059,-4.9059,-4.9059,-4.9059,-4.9059,-4.9059,-4.881,-4.8624,-4.8624,-4.8545,-4.8463,-4.8651,-4.8796,-4.8459,-4.7396,-4.7354,-4.7354,-4.7354,-4.768,-4.7863,-4.7863,-4.8145,-4.8468,-4.8468,-4.8608,-4.8769,-4.9111,-4.9415,-4.9567,-4.9912,-5.0196,-5.0305,-5.0305,-5.0305,-5.0415,-5.0589,-5.0589,-5.072,-5.0873,-5.0873,-5.0873,-5.0873,-5.4627,-5.4627,-5.4627,-5.4586,-5.4586,-5.4565,-5.4544,-5.4172,-5.3903,-5.3903,-5.353,-5.3282,-5.3282,-5.3282,-5.3282,-5.3282,-5.322,-5.3178,-5.3178,-5.3178,-5.3178,-5.3178,-5.3178,-5.3178,-5.3178,-5.3178,-5.3178,-5.3178,-5.3178,-5.3178,-5.3178,-5.2743,-5.2536,-5.2516,-5.2081,-5.1895,-5.1895,-5.1895,-5.1895,-5.1895,-5.1895,-5.1895,-5.1895,-5.1895,-5.1895,-5.1895,-5.1895,-5.1895,-5.1895,-5.1853,-5.1853,-5.1853,-5.1812,-5.1791,-5.1708,-5.1294,-5.086,-5.0508,-5.0508,-5.0487,-5.0466,-5.0466,-5.0446,-5.0301,-4.9887,-4.9452,-4.9121,-4.9121,-4.908,-4.9059,-4.9059,-4.9059,-4.9059,-4.9059,-4.9059,-4.9059,-4.9059,-4.9059,-4.9059,-4.9059,-4.9059,-4.9059,-4.9059,-4.9401,-4.9574,-4.9323,-4.9616,-4.9592,-4.9331,-4.931,-4.9289,-4.906,-4.906,-4.9203,-4.9203,-4.9532,-4.9696,-4.9696,-5.0164,-5.0305,-5.0305,-5.0349,-5.0371,-5.0371,-5.0393,-5.0415,-5.0415,-5.0415,-5.0699,-5.1135,-5.1135,-5.1398,-5.1791,-5.1791,-5.1791,-5.1791,-5.5559,-5.5559,-5.5455,-5.5082,-5.502,-5.4917,-5.4586,-5.4441,-5.4379,-5.4379,-5.4275,-5.4213,-5.4213,-5.4213,-5.4213,-5.4213,-5.3571,-5.3178,-5.3178,-5.3178,-5.3178,-5.3178,-5.3178,-5.3178,-5.3178,-5.3178,-5.3178,-5.3178,-5.3178,-5.3178,-5.3178,-5.3075,-5.3013,-5.3013,-5.2909,-5.2847,-5.2847,-5.2847,-5.2847,-5.2847,-5.2847,-5.2847,-5.2847,-5.2847,-5.2847,-5.2847,-5.2847,-5.2847,-5.2806,-5.2454,-5.2329,-5.2267,-5.1915,-5.1791,-5.1791,-5.1667,-5.1564,-5.1481,-5.1481,-5.1212,-5.0943,-5.0943,-5.0673,-5.0384,-5.028,-4.9908,-4.9597,-4.9597,-4.9307,-4.9059,-4.9059,-4.9059,-4.9059,-4.9059,-4.9059,-4.9059,-4.9059,-4.9059,-4.9059,-4.9059,-4.9059,-4.923,-4.9572,-4.9572,-5.004,-5.061,-5.0757,-5.0882,-5.113,-5.113,-5.045,-4.9081,-4.9368,-4.9532,-4.9532,-5.0001,-5.0164,-5.0164,-5.0305,-5.0305,-5.0327,-5.072,-5.0895,-5.0917,-5.1288,-5.1441,-5.1441,-5.1441,-5.1529,-5.1638,-5.1638,-5.1703,-5.1791,-5.1791,-5.1791,-5.1791,-5.6259,-5.6259,-5.6175,-5.5538,-5.5496,-5.5414,-5.5186,-5.5145,-5.5145,-5.5145,-5.5145,-5.5062,-5.4855,-5.4834,-5.4751,-5.4565,-5.4089,-5.3799,-5.3799,-5.3799,-5.3799,-5.3799,-5.3799,-5.3799,-5.3799,-5.3799,-5.3799,-5.3799,-5.3799,-5.3799,-5.3799,-5.3592,-5.3489,-5.3489,-5.3282,-5.3178,-5.3178,-5.3178,-5.3178,-5.3178,-5.3178,-5.3178,-5.3178,-5.3178,-5.3178,-5.3178,-5.3178,-5.3178,-5.3137,-5.2888,-5.2806,-5.2764,-5.2516,-5.2433,-5.2392,-5.2185,-5.1957,-5.1791,-5.1791,-5.1626,-5.1419,-5.1419,-5.1087,-5.0736,-5.0736,-5.0384,-5.0052,-5.0052,-4.9701,-4.939,-4.939,-4.9204,-4.9059,-4.9059,-4.9059,-4.9059,-4.9059,-4.9059,-4.923,-4.9401,-4.9401,-4.9572,-4.9891,-5.0252,-5.0591,-5.1097,-5.1287,-5.1455,-5.1813,-5.1791,-5.1384,-5.0364,-5.053,-5.0696,-5.0696,-5.0839,-5.1004,-5.1004,-5.1004,-5.1004,-5.1004,-5.1288,-5.1398,-5.1419,-5.1682,-5.1791,-5.1791,-5.1791,-5.1791,-5.1791,-5.1791,-5.1791,-5.1791,-5.1791,-5.1791,-5.1791,-5.7246,-5.7052,-5.6836,-5.6189,-5.6168,-5.6147,-5.589,-5.5869,-5.5869,-5.5869,-5.5869,-5.5724,-5.5331,-5.5289,-5.5145,-5.4772,-5.4731,-5.4689,-5.4544,-5.4544,-5.4544,-5.4544,-5.4544,-5.4544,-5.4544,-5.4544,-5.4544,-5.4544,-5.4544,-5.4544,-5.4524,-5.413,-5.3944,-5.3944,-5.3551,-5.3385,-5.3385,-5.3385,-5.3385,-5.3385,-5.3385,-5.3385,-5.3385,-5.3385,-5.3385,-5.3385,-5.3385,-5.3385,-5.3385,-5.3302,-5.3282,-5.3282,-5.3199,-5.3178,-5.3116,-5.2702,-5.2309,-5.1978,-5.1833,-5.1791,-5.1791,-5.1791,-5.1501,-5.1212,-5.1212,-5.086,-5.0529,-5.0529,-5.0177,-4.9866,-4.9866,-4.9473,-4.9183,-4.9183,-4.9121,-4.9059,-4.9059,-4.9059,-4.923,-4.9742,-4.9742,-5.0082,-5.04,-5.0929,-5.1097,-5.1265,-5.1623,-5.1791,-5.1791,-5.1791,-5.1791,-5.1791,-5.1791,-5.1791,-5.1791,-5.1791,-5.1791,-5.1791,-5.1791,-5.1791,-5.1791,-5.1791,-5.1791,-5.1791,-5.1791,-5.1791,-5.1791,-5.1791,-5.1791,-5.1791,-5.1791,-5.1791,-5.1791,-5.1791,-5.1791,-5.1791,-5.9159,-5.8788,-5.8288,-5.7319,-5.7256,-5.6913,-5.5931,-5.5869,-5.5869,-5.5869,-5.5869,-5.5848,-5.5766,-5.5766,-5.5745,-5.5662,-5.5662,-5.5352,-5.4586,-5.4544,-5.4544,-5.4544,-5.4544,-5.4544,-5.4544,-5.4544,-5.4544,-5.4544,-5.4544,-5.4544,-5.4544,-5.4461,-5.442,-5.442,-5.4358,-5.4337,-5.4337,-5.4337,-5.4337,-5.4337,-5.4337,-5.4337,-5.4337,-5.4337,-5.4337,-5.4337,-5.4337,-5.4337,-5.4275,-5.3882,-5.3737,-5.3675,-5.3302,-5.3178,-5.3178,-5.3095,-5.3033,-5.2806,-5.2019,-5.1791,-5.1791,-5.1791,-5.175,-5.1688,-5.1688,-5.1336,-5.1005,-5.1005,-5.0632,-5.0322,-5.0322,-4.9949,-4.9659,-4.9659,-4.9328,-4.9059,-4.9059,-4.9401,-4.9572,-4.9742,-5.0061,-5.04,-5.0929,-5.1097,-5.1265,-5.1623,-5.1791,-5.1791,-5.1791,-5.1791,-5.1791,-5.1791,-5.1791,-5.1791,-5.1791,-5.1791,-5.1791,-5.1791,-5.1791,-5.1791,-5.1791,-5.1791,-5.1791,-5.1791,-5.1791,-5.1791,-5.1791,-5.1791,-5.1791,-5.1791,-5.1791,-5.1791,-5.1791,-5.1791,-5.1791,-5.1791,-6.0943,-6.0158,-5.9331,-5.8352,-5.8112,-5.7852,-5.7227,-5.7009,-5.6988,-5.6594,-5.6594,-5.6511,-5.6283,-5.6242,-5.6138,-5.589,-5.5869,-5.5703,-5.5289,-5.5248,-5.5248,-5.5248,-5.5248,-5.5248,-5.5248,-5.5248,-5.5248,-5.5248,-5.5248,-5.5124,-5.4896,-5.4896,-5.4751,-5.4544,-5.4544,-5.4544,-5.4544,-5.4544,-5.4544,-5.4544,-5.4544,-5.4544,-5.4544,-5.4544,-5.4544,-5.4544,-5.4544,-5.4544,-5.4503,-5.4296,-5.4213,-5.4172,-5.3985,-5.3903,-5.3861,-5.3613,-5.3199,-5.2723,-5.2288,-5.1998,-5.1791,-5.1791,-5.1791,-5.1791,-5.1791,-5.1646,-5.1481,-5.1481,-5.1108,-5.0798,-5.0798,-5.0425,-5.0115,-5.0115,-4.9928,-4.9721,-4.9473,-4.9776,-5.0015,-5.0103,-5.04,-5.0929,-5.1455,-5.1455,-5.1623,-5.1791,-5.1791,-5.1791,-5.1791,-5.1791,-5.1791,-5.1791,-5.1791,-5.1791,-5.1791,-5.1791,-5.1791,-5.1791,-5.1791,-5.1791,-5.1791,-5.1791,-5.1791,-5.1791,-5.1791,-5.1791,-5.1791,-5.1791,-5.1791,-5.1791,-5.1791,-5.1791,-5.1791,-5.1791,-5.1791,-5.1791,-6.2824,-6.1947,-6.0877,-5.9589,-5.937,-5.8953,-5.8053,-5.8032,-5.7834,-5.7235,-5.7235,-5.709,-5.6759,-5.6718,-5.6573,-5.6221,-5.618,-5.618,-5.618,-5.618,-5.6097,-5.589,-5.5869,-5.5869,-5.5869,-5.5869,-5.5869,-5.5869,-5.5869,-5.5683,-5.5352,-5.5352,-5.5103,-5.4689,-5.4689,-5.4627,-5.4544,-5.4544,-5.4544,-5.4544,-5.4544,-5.4544,-5.4544,-5.4544,-5.4544,-5.4544,-5.4544,-5.4544,-5.4544,-5.4544,-5.4544,-5.4544,-5.4544,-5.4544,-5.4461,-5.411,-5.3427,-5.2785,-5.2681,-5.2309,-5.1957,-5.1957,-5.1874,-5.1791,-5.1791,-5.1791,-5.1791,-5.1791,-5.1522,-5.1274,-5.1274,-5.0901,-5.0591,-5.0591,-5.0487,-5.0301,-4.997,-5.0325,-5.0632,-5.0613,-5.0993,-5.1455,-5.1791,-5.1791,-5.1791,-5.1791,-5.1791,-5.1791,-5.1791,-5.1791,-5.1791,-5.1791,-5.1791,-5.1791,-5.1791,-5.1791,-5.1791,-5.1791,-5.1791,-5.1791,-5.1791,-5.1791,-5.1791,-5.1791,-5.1791,-5.1791,-5.1791,-5.1791,-5.1791,-5.1791,-5.1791,-5.1791,-5.1791,-5.1791,-5.1791,-5.1791,-6.4909,-6.4323,-6.338,-6.1337,-6.0855,-6.0307,-5.8294,-5.8032,-5.7834,-5.7235,-5.7235,-5.7215,-5.7173,-5.7173,-5.7173,-5.7132,-5.7132,-5.7132,-5.7132,-5.7132,-5.6759,-5.591,-5.5869,-5.5869,-5.5869,-5.5869,-5.5869,-5.5869,-5.5869,-5.5848,-5.5828,-5.5828,-5.5579,-5.5145,-5.5145,-5.4917,-5.4544,-5.4544,-5.4544,-5.4544,-5.4544,-5.4544,-5.4544,-5.4544,-5.4544,-5.4544,-5.4544,-5.4544,-5.4544,-5.4544,-5.4544,-5.4544,-5.4544,-5.4544,-5.4524,-5.4503,-5.413,-5.3654,-5.324,-5.2785,-5.2433,-5.2433,-5.2122,-5.1791,-5.1791,-5.1791,-5.1791,-5.1791,-5.1771,-5.175,-5.175,-5.1377,-5.1067,-5.1067,-5.0694,-5.0404,-5.0384,-5.0687,-5.1102,-5.106,-5.1547,-5.1791,-5.1791,-5.1791,-5.1791,-5.1791,-5.1791,-5.1791,-5.1791,-5.1791,-5.1791,-5.1791,-5.1791,-5.1791,-5.1791,-5.1791,-5.1791,-5.1791,-5.1791,-5.1791,-5.1791,-5.1791,-5.1791,-5.1791,-5.1791,-5.1791,-5.1791,-5.1791,-5.1791,-5.1791,-5.1791,-5.1791,-5.1791,-5.1791,-5.1791,-5.1791,-6.6244,-6.5403,-6.4149,-6.2393,-6.1908,-6.1052,-5.967,-5.8797,-5.8231,-5.7834,-5.7435,-5.7235,-5.7235,-5.7235,-5.7235,-5.7235,-5.7235,-5.7235,-5.7235,-5.7235,-5.707,-5.6738,-5.6718,-5.6718,-5.6718,-5.6718,-5.6718,-5.6718,-5.6718,-5.6573,-5.6304,-5.6304,-5.6055,-5.56,-5.56,-5.5517,-5.5372,-5.5372,-5.5372,-5.5372,-5.5372,-5.5372,-5.5372,-5.5372,-5.5372,-5.5331,-5.5041,-5.4938,-5.4896,-5.4627,-5.4544,-5.4544,-5.4544,-5.4544,-5.4544,-5.4544,-5.442,-5.4234,-5.4068,-5.3489,-5.2909,-5.2909,-5.2578,-5.2226,-5.2226,-5.1998,-5.1791,-5.1791,-5.1791,-5.1791,-5.1791,-5.1646,-5.1543,-5.1543,-5.1398,-5.1349,-5.1235,-5.1752,-5.2042,-5.1916,-5.2432,-5.2686,-5.2686,-5.2402,-5.2228,-5.2228,-5.1966,-5.1791,-5.1791,-5.1791,-5.1791,-5.1791,-5.1791,-5.1791,-5.1791,-5.1791,-5.1791,-5.1791,-5.1791,-5.1791,-5.1791,-5.1791,-5.1791,-5.1791,-5.1791,-5.1791,-5.1791,-5.1791,-5.1791,-5.1791,-5.1791,-5.1791,-5.1791,-5.1791,-5.1791,-5.1791,-6.7758,-6.6891,-6.5783,-6.4072,-6.3187,-6.2502,-6.0939,-5.9734,-5.8861,-5.8263,-5.7718,-5.7235,-5.7235,-5.7235,-5.7235,-5.7235,-5.7235,-5.7235,-5.7235,-5.7235,-5.7235,-5.7235,-5.7235,-5.7235,-5.7235,-5.7235,-5.7235,-5.7235,-5.7235,-5.707,-5.678,-5.678,-5.6531,-5.6097,-5.6097,-5.6014,-5.5869,-5.5869,-5.5869,-5.5869,-5.5869,-5.5869,-5.5869,-5.5869,-5.5869,-5.5828,-5.5517,-5.5393,-5.5352,-5.5062,-5.4855,-5.4731,-5.4731,-5.4648,-5.4544,-5.4544,-5.4544,-5.4544,-5.4544,-5.4089,-5.3571,-5.3427,-5.3054,-5.2702,-5.2702,-5.235,-5.2019,-5.2019,-5.1895,-5.1791,-5.1791,-5.1791,-5.1791,-5.1791,-5.1791,-5.1868,-5.2072,-5.2259,-5.2576,-5.2757,-5.2953,-5.3211,-5.3211,-5.2905,-5.2708,-5.2708,-5.2271,-5.1944,-5.1813,-5.1791,-5.1791,-5.1791,-5.1791,-5.1791,-5.1791,-5.1791,-5.1791,-5.1791,-5.1791,-5.1791,-5.1791,-5.1791,-5.1791,-5.1791,-5.1791,-5.1791,-5.1791,-5.1791,-5.1791,-5.1791,-5.1791,-5.1791,-5.1791,-5.1791,-5.1791,-5.1791,-6.9889,-6.9695,-6.8942,-6.6245,-6.5363,-6.4365,-6.2304,-6.0627,-5.9348,-5.8968,-5.7926,-5.7235,-5.7235,-5.7235,-5.7235,-5.7235,-5.7235,-5.7235,-5.7235,-5.7235,-5.7235,-5.7235,-5.7235,-5.7235,-5.7235,-5.7235,-5.7235,-5.7235,-5.7235,-5.7235,-5.7235,-5.7235,-5.6987,-5.6573,-5.6573,-5.6324,-5.589,-5.589,-5.589,-5.589,-5.589,-5.589,-5.589,-5.589,-5.589,-5.589,-5.589,-5.589,-5.5869,-5.5869,-5.5559,-5.5186,-5.5186,-5.4896,-5.4544,-5.4544,-5.4544,-5.4544,-5.4544,-5.4544,-5.442,-5.3965,-5.3509,-5.3178,-5.3178,-5.2826,-5.2495,-5.2495,-5.2122,-5.1812,-5.1812,-5.1791,-5.1791,-5.1791,-5.1791,-5.1972,-5.2492,-5.247,-5.2704,-5.321,-5.3148,-5.3232,-5.3232,-5.3211,-5.3211,-5.3211,-5.2774,-5.2293,-5.1834,-5.1813,-5.1813,-5.1813,-5.1791,-5.1791,-5.1791,-5.1791,-5.1791,-5.1791,-5.1791,-5.1791,-5.1791,-5.1791,-5.1791,-5.1791,-5.1791,-5.1791,-5.1791,-5.1791,-5.1791,-5.1791,-5.1791,-5.1791,-5.1791,-5.1791,-5.1791,-5.1791,-7.0422,-6.9865,-6.9233,-6.7672,-6.6384,-6.5096,-6.3745,-6.1926,-6.0419,-5.9815,-5.8607,-5.7711,-5.7711,-5.7422,-5.7235,-5.7235,-5.7235,-5.7235,-5.7235,-5.7235,-5.7235,-5.7235,-5.7235,-5.7235,-5.7235,-5.7235,-5.7235,-5.7235,-5.7235,-5.7235,-5.7235,-5.7235,-5.7152,-5.7028,-5.7028,-5.6945,-5.6821,-5.6821,-5.6821,-5.6821,-5.6821,-5.6821,-5.6821,-5.6821,-5.6821,-5.678,-5.6469,-5.6366,-5.6304,-5.5973,-5.5786,-5.5662,-5.5662,-5.5352,-5.4979,-5.4979,-5.4772,-5.4544,-5.4544,-5.4544,-5.4503,-5.4358,-5.3985,-5.3654,-5.3654,-5.3302,-5.2971,-5.2971,-5.2619,-5.2288,-5.2288,-5.2019,-5.1791,-5.1791,-5.2152,-5.2513,-5.2872,-5.328,-5.3727,-5.4258,-5.4303,-5.4215,-5.4215,-5.3931,-5.3713,-5.3713,-5.3276,-5.2927,-5.2796,-5.2468,-5.2271,-5.2271,-5.1966,-5.1791,-5.1791,-5.1791,-5.1791,-5.1791,-5.1791,-5.1791,-5.1791,-5.1791,-5.1791,-5.1791,-5.1791,-5.1791,-5.1791,-5.1791,-5.1791,-5.1791,-5.1791,-5.1791,-5.1791,-5.1791,-5.1791,-5.1791,-7.0615,-7.0253,-6.9671,-6.867,-6.7231,-6.6057,-6.5039,-6.3011,-6.1497,-6.089,-5.9495,-5.8391,-5.8391,-5.7975,-5.7504,-5.7504,-5.7339,-5.7235,-5.7235,-5.7235,-5.7235,-5.7235,-5.7235,-5.7235,-5.7235,-5.7235,-5.7235,-5.7235,-5.7235,-5.7235,-5.7235,-5.7235,-5.7235,-5.7235,-5.7235,-5.7235,-5.7235,-5.7235,-5.7235,-5.7235,-5.7235,-5.7235,-5.7235,-5.7235,-5.7235,-5.7194,-5.6925,-5.6821,-5.678,-5.6511,-5.6304,-5.6117,-5.5931,-5.5683,-5.5455,-5.5455,-5.5145,-5.4793,-5.4793,-5.4668,-5.4544,-5.4544,-5.4317,-5.413,-5.413,-5.3778,-5.3447,-5.3447,-5.3075,-5.2764,-5.2764,-5.2392,-5.2081,-5.2081,-5.2257,-5.2671,-5.3051,-5.3587,-5.4121,-5.4652,-5.4652,-5.4652,-5.4652,-5.439,-5.415,-5.3953,-5.3669,-5.3429,-5.3232,-5.2927,-5.2774,-5.2774,-5.2315,-5.2075,-5.2075,-5.19,-5.1791,-5.1791,-5.1791,-5.1791,-5.1791,-5.1791,-5.1791,-5.1791,-5.1791,-5.1791,-5.1791,-5.1791,-5.1791,-5.1791,-5.1791,-5.1791,-5.1791,-5.1791,-5.1791,-5.1791,-7.0639,-7.0446,-7.0059,-6.9109,-6.808,-6.6892,-6.5893,-6.4102,-6.2625,-6.2038,-6.0387,-5.9481,-5.9481,-5.8453,-5.798,-5.798,-5.7546,-5.7277,-5.7235,-5.7235,-5.7235,-5.7235,-5.7235,-5.7235,-5.7235,-5.7235,-5.7235,-5.7235,-5.7235,-5.7235,-5.7235,-5.7235,-5.7235,-5.7235,-5.7235,-5.7235,-5.7235,-5.7235,-5.7235,-5.7235,-5.7235,-5.7235,-5.7235,-5.7235,-5.7235,-5.7235,-5.7235,-5.7235,-5.7235,-5.7235,-5.6966,-5.6552,-5.6138,-5.5973,-5.5931,-5.5931,-5.56,-5.5248,-5.5248,-5.4917,-5.4586,-5.4586,-5.4565,-5.4544,-5.4544,-5.4213,-5.3903,-5.3903,-5.3551,-5.324,-5.324,-5.2868,-5.2557,-5.2557,-5.2688,-5.2755,-5.3294,-5.3787,-5.4121,-5.4652,-5.4652,-5.4652,-5.4652,-5.4652,-5.4477,-5.4041,-5.3997,-5.3822,-5.3363,-5.3298,-5.3276,-5.3276,-5.2796,-5.2555,-5.2555,-5.214,-5.1878,-5.1791,-5.1791,-5.1791,-5.1791,-5.1791,-5.1791,-5.1791,-5.1791,-5.1791,-5.1791,-5.1791,-5.1791,-5.1791,-5.1791,-5.1791,-5.1791,-5.1791,-5.1791,-5.1791,-7.0615,-7.0059,-6.9695,-6.9085,-6.8104,-6.7114,-6.6493,-6.4774,-6.3513,-6.3127,-6.1285,-5.9984,-5.9984,-5.9135,-5.8457,-5.8457,-5.8043,-5.7608,-5.7256,-5.7235,-5.7235,-5.7235,-5.7235,-5.7235,-5.7235,-5.7235,-5.7235,-5.7235,-5.7235,-5.7235,-5.7235,-5.7235,-5.7235,-5.7235,-5.7235,-5.7235,-5.7235,-5.7235,-5.7235,-5.7235,-5.7235,-5.7235,-5.7235,-5.7235,-5.7235,-5.7235,-5.7235,-5.7235,-5.7235,-5.7235,-5.7152,-5.707,-5.6966,-5.6697,-5.6407,-5.6407,-5.6097,-5.5724,-5.5724,-5.5393,-5.5041,-5.5041,-5.4793,-5.4544,-5.4544,-5.4461,-5.4379,-5.4379,-5.4027,-5.3696,-5.3696,-5.3344,-5.3218,-5.3567,-5.3535,-5.3783,-5.4345,-5.4537,-5.4652,-5.4652,-5.4652,-5.4652,-5.4652,-5.4652,-5.4609,-5.4499,-5.4499,-5.4456,-5.4346,-5.3997,-5.3779,-5.3779,-5.332,-5.3058,-5.3058,-5.2948,-5.2533,-5.1791,-5.1791,-5.1791,-5.1791,-5.1791,-5.1791,-5.1791,-5.1791,-5.1791,-5.1791,-5.1791,-5.1791,-5.1791,-5.1791,-5.1791,-5.1791,-5.1791,-5.1791,-5.1791,-6.9841,-6.9062,-6.8497,-6.8104,-6.7312,-6.6493,-6.6093,-6.4886,-6.4097,-6.3689,-6.2038,-6.0859,-6.0859,-5.9615,-5.885,-5.8622,-5.8394,-5.8043,-5.7587,-5.7546,-5.7463,-5.7235,-5.7235,-5.7235,-5.7235,-5.7235,-5.7235,-5.7235,-5.7235,-5.7235,-5.7235,-5.7235,-5.7235,-5.7235,-5.7235,-5.7235,-5.7235,-5.7235,-5.7235,-5.7235,-5.7235,-5.7235,-5.7235,-5.7235,-5.7235,-5.7235,-5.7235,-5.7235,-5.7235,-5.7235,-5.7235,-5.7235,-5.7235,-5.707,-5.6883,-5.6883,-5.6552,-5.62,-5.62,-5.5869,-5.5455,-5.5248,-5.502,-5.4793,-5.4586,-5.4544,-5.4544,-5.4544,-5.4337,-5.4172,-5.4172,-5.3799,-5.3675,-5.4234,-5.4203,-5.4369,-5.4719,-5.4819,-5.4914,-5.4674,-5.4652,-5.4652,-5.4652,-5.4652,-5.4652,-5.4652,-5.4652,-5.4652,-5.4652,-5.4412,-5.4281,-5.4281,-5.3822,-5.356,-5.356,-5.332,-5.297,-5.2468,-5.2249,-5.2118,-5.2118,-5.19,-5.1791,-5.1791,-5.1791,-5.1791,-5.1791,-5.1791,-5.1791,-5.1791,-5.1791,-5.1791,-5.1791,-5.1791,-5.1791,-5.1791,-6.9229,-6.8221,-6.7581,-6.7289,-6.6493,-6.5692,-6.5692,-6.4706,-6.4119,-6.3915,-6.2665,-6.1612,-6.1405,-6.026,-5.9222,-5.8767,-5.8726,-5.8519,-5.8063,-5.8043,-5.7877,-5.7484,-5.7463,-5.7422,-5.7339,-5.7339,-5.7318,-5.7235,-5.7235,-5.7235,-5.7235,-5.7235,-5.7235,-5.7235,-5.7235,-5.7235,-5.7235,-5.7235,-5.7235,-5.7235,-5.7235,-5.7235,-5.7235,-5.7235,-5.7235,-5.7235,-5.7235,-5.7235,-5.7235,-5.7235,-5.7235,-5.7235,-5.7235,-5.7235,-5.7235,-5.7235,-5.6966,-5.6676,-5.6676,-5.6345,-5.589,-5.5517,-5.5352,-5.5186,-5.4751,-5.4586,-5.4544,-5.4544,-5.4544,-5.4544,-5.4544,-5.4213,-5.4153,-5.4716,-5.4874,-5.4979,-5.4978,-5.539,-5.5351,-5.4958,-5.4827,-5.474,-5.4652,-5.4652,-5.4652,-5.4652,-5.4652,-5.4652,-5.4652,-5.4652,-5.4652,-5.4652,-5.4281,-5.4062,-5.4062,-5.3669,-5.3451,-5.3451,-5.297,-5.2686,-5.2599,-5.2118,-5.1922,-5.1922,-5.1834,-5.1791,-5.1791,-5.1791,-5.1791,-5.1791,-5.1791,-5.1791,-5.1791,-5.1791,-5.1791,-5.1791,-6.9872,-6.9183,-6.8422,-6.7405,-6.6493,-6.5692,-6.5692,-6.4706,-6.3915,-6.3485,-6.2438,-6.1405,-6.099,-6.0344,-5.9719,-5.9243,-5.9202,-5.9015,-5.8539,-5.8519,-5.8498,-5.8415,-5.8415,-5.8229,-5.7836,-5.7836,-5.7629,-5.7235,-5.7235,-5.7235,-5.7235,-5.7235,-5.7235,-5.7235,-5.7235,-5.7235,-5.7235,-5.7235,-5.7235,-5.7235,-5.7235,-5.7235,-5.7235,-5.7235,-5.7235,-5.7235,-5.7235,-5.7235,-5.7235,-5.7235,-5.7235,-5.7235,-5.7235,-5.7235,-5.7235,-5.7235,-5.7194,-5.7132,-5.7132,-5.6801,-5.6449,-5.6387,-5.6076,-5.5662,-5.5207,-5.4813,-5.4544,-5.4544,-5.4544,-5.4544,-5.4544,-5.4862,-5.5199,-5.5744,-5.5921,-5.5948,-5.6435,-5.6269,-5.5985,-5.5919,-5.5548,-5.5111,-5.4696,-5.4652,-5.4652,-5.4652,-5.4652,-5.4652,-5.4652,-5.4652,-5.4652,-5.4652,-5.4587,-5.4565,-5.4565,-5.4499,-5.4456,-5.4456,-5.3975,-5.3516,-5.3101,-5.2621,-5.2381,-5.2359,-5.1966,-5.1791,-5.1791,-5.1791,-5.1791,-5.1791,-5.1791,-5.1791,-5.1791,-5.1791,-5.1791,-5.1791,-6.9727,-6.8699,-6.7729,-6.7021,-6.592,-6.5018,-6.4525,-6.3689,-6.3076,-6.2849,-6.1819,-6.099,-6.0782,-6.0386,-5.9906,-5.9699,-5.9678,-5.9492,-5.9015,-5.8995,-5.8871,-5.8622,-5.8601,-5.8519,-5.8312,-5.8312,-5.8084,-5.7608,-5.7359,-5.7235,-5.7235,-5.7235,-5.7235,-5.7235,-5.7235,-5.7235,-5.7235,-5.7235,-5.7235,-5.7235,-5.7235,-5.7235,-5.7235,-5.7235,-5.7235,-5.7235,-5.7235,-5.7235,-5.7235,-5.7235,-5.7235,-5.7235,-5.7235,-5.7235,-5.7235,-5.7235,-5.7235,-5.7235,-5.7235,-5.709,-5.6883,-5.6635,-5.6407,-5.6138,-5.5683,-5.5414,-5.5145,-5.4648,-5.4544,-5.4544,-5.4925,-5.5114,-5.5493,-5.6226,-5.643,-5.6565,-5.6837,-5.6618,-5.64,-5.6138,-5.5919,-5.5701,-5.5482,-5.522,-5.5067,-5.5067,-5.4805,-5.4652,-5.4652,-5.4652,-5.4652,-5.4652,-5.4652,-5.4652,-5.4652,-5.4652,-5.4652,-5.4652,-5.4434,-5.4084,-5.3604,-5.3123,-5.2883,-5.2883,-5.2686,-5.2577,-5.2577,-5.2577,-5.2424,-5.2184,-5.2184,-5.2031,-5.1791,-5.1791,-5.1791,-5.1791]}]]